[[{"header":{"parameterUnit":"m.s-1","parameterCategory":1,"la1":30.6,"la2":28.766,"lo1":-90.7593,"lo2":-88.6598,"dy":0.0162,"dx":0.0183,"nx":116,"ny":114,"refTime":"2024-06-16T06:00:00:Z","depth":0,"parameterNumber":2,"parameterNumberName":"U-component_of_WINDS"},"data":[0.0,0.0,0.0,0.0,0.0,0.0,0.0,0.0,0.0,0.0,0.0,0.0,0.0,0.0,0.0,0.0,0.0,0.0,0.0,0.0,0.0,0.0,0.0,0.0,0.0,0.0,0.0,0.0,0.0,0.0,0.0,0.0,0.0,0.0,0.0,0.0,0.0,0.0,0.0,0.0,0.0,0.0,0.0,0.0,0.0,0.0,0.0,0.0,0.0,0.0,0.0,0.0,0.0,0.0,0.0,0.0,0.0,0.0,0.0,0.0,0.0,0.0,0.0,0.0,0.0,0.0,0.0,0.0,0.0,0.0,0.0,0.0,0.0,0.0,0.0,0.0,0.0,0.0,0.0,0.0,0.0,0.0,0.0,0.0,0.0,0.0,0.0,0.0,0.0,0.0,0.0,0.0,0.0,0.0,0.0,0.0,0.0,0.0,0.0,0.0,0.0,0.0,0.0,0.0,0.0,0.0,0.0,0.0,0.0,0.0,0.0,0.0,0.0,0.0,0.0,0.0,0.0,0.0,0.0,0.0,0.0,0.0,0.0,0.0,0.0,0.0,0.0,0.0,0.0,0.0,0.0,0.0,0.0,0.0,0.0,0.0,0.0,0.0,0.0,0.0,0.0,0.0,0.0,0.0,0.0,0.0,0.0,0.0,0.0,0.0,0.0,0.0,0.0,0.0,0.0,0.0,0.0,0.0,0.0,0.0,0.0,0.0,0.0,0.0,0.0,0.0,0.0,0.0,0.0,0.0,0.0,0.0,0.0,0.0,0.0,0.0,0.0,0.0,0.0,0.0,0.0,0.0,0.0,0.0,0.0,0.0,0.0,0.0,0.0,0.0,0.0,0.0,0.0,0.0,0.0,0.0,0.0,0.0,0.0,0.0,0.0,0.0,0.0,0.0,0.0,0.0,0.0,0.0,0.0,0.0,0.0,0.0,0.0,0.0,0.0,0.0,0.0,0.0,0.0,0.0,0.0,0.0,0.0,0.0,0.0,0.0,0.0,0.0,0.0,0.0,0.0,0.0,0.0,0.0,0.0,0.0,0.0,0.0,0.0,0.0,0.0,0.0,0.0,0.0,0.0,0.0,0.0,0.0,0.0,0.0,0.0,0.0,0.0,0.0,0.0,0.0,0.0,0.0,0.0,0.0,0.0,0.0,0.0,0.0,0.0,0.0,0.0,0.0,0.0,0.0,0.0,0.0,0.0,0.0,0.0,0.0,0.0,0.0,0.0,0.0,0.0,0.0,0.0,0.0,0.0,0.0,0.0,0.0,0.0,0.0,0.0,0.0,0.0,0.0,0.0,0.0,0.0,0.0,0.0,0.0,0.0,0.0,0.0,0.0,0.0,0.0,0.0,0.0,0.0,0.0,0.0,0.0,0.0,0.0,0.0,0.0,0.0,0.0,0.0,0.0,0.0,0.0,0.0,0.0,0.0,0.0,0.0,0.0,0.0,0.0,0.0,0.0,0.0,0.0,0.0,0.0,0.0,0.0,0.0,0.0,0.0,0.0,0.0,0.0,0.0,0.0,0.0,0.0,0.0,0.0,0.0,0.0,0.0,0.0,0.0,0.0,0.0,0.0,0.0,0.0,0.0,0.0,0.0,0.0,0.0,0.0,0.0,0.0,0.0,0.0,0.0,0.0,0.0,0.0,0.0,0.0,0.0,0.0,0.0,0.0,0.0,0.0,0.0,0.0,0.0,0.0,0.0,0.0,0.0,0.0,0.0,0.0,0.0,0.0,0.0,0.0,0.0,0.0,0.0,0.0,0.0,0.0,0.0,0.0,0.0,0.0,0.0,0.0,0.0,0.0,0.0,0.0,0.0,0.0,0.0,0.0,0.0,0.0,0.0,0.0,0.0,0.0,0.0,0.0,0.0,0.0,0.0,0.0,0.0,0.0,0.0,0.0,0.0,0.0,0.0,0.0,0.0,0.0,0.0,0.0,0.0,0.0,0.0,0.0,0.0,0.0,0.0,0.0,0.0,0.0,0.0,0.0,0.0,0.0,0.0,0.0,0.0,0.0,0.0,0.0,0.0,0.0,0.0,0.0,0.0,0.0,0.0,0.0,0.0,0.0,0.0,0.0,0.0,0.0,0.0,0.0,0.0,0.0,0.0,0.0,0.0,0.0,0.0,0.0,0.0,0.0,0.0,0.0,0.0,0.0,0.0,0.0,0.0,0.0,0.0,0.0,0.0,0.0,0.0,0.0,0.0,0.0,0.0,0.0,0.0,0.0,0.0,0.0,0.0,0.0,0.0,0.0,0.0,0.0,0.0,0.0,0.0,0.0,0.0,0.0,0.0,0.0,0.0,0.0,0.0,0.0,0.0,0.0,0.0,0.0,0.0,0.0,0.0,0.0,0.0,0.0,0.0,0.0,0.0,0.0,0.0,0.0,0.0,0.0,0.0,0.0,0.0,0.0,0.0,0.0,0.0,0.0,0.0,0.0,0.0,0.0,0.0,0.0,0.0,0.0,0.0,0.0,0.0,0.0,0.0,0.0,0.0,0.0,0.0,0.0,0.0,0.0,0.0,0.0,0.0,0.0,0.0,0.0,0.0,0.0,0.0,0.0,0.0,0.0,0.0,0.0,0.0,0.0,0.0,0.0,0.0,0.0,0.0,0.0,0.0,0.0,0.0,0.0,0.0,0.0,0.0,0.0,0.0,0.0,0.0,0.0,0.0,0.0,0.0,0.0,0.0,0.0,0.0,0.0,0.0,0.0,0.0,0.0,0.0,0.0,0.0,0.0,0.0,0.0,0.0,0.0,0.0,0.0,0.0,0.0,0.0,0.0,0.0,0.0,0.0,0.0,0.0,0.0,0.0,0.0,0.0,0.0,0.0,0.0,0.0,0.0,0.0,0.0,0.0,0.0,0.0,0.0,0.0,0.0,0.0,0.0,0.0,0.0,0.0,0.0,0.0,0.0,0.0,0.0,0.0,0.0,0.0,0.0,0.0,0.0,0.0,0.0,0.0,0.0,0.0,0.0,0.0,0.0,0.0,0.0,0.0,0.0,0.0,0.0,0.0,0.0,0.0,0.0,0.0,0.0,0.0,0.0,0.0,0.0,0.0,0.0,0.0,0.0,0.0,0.0,0.0,0.0,0.0,0.0,0.0,0.0,0.0,0.0,0.0,0.0,0.0,0.0,0.0,0.0,0.0,0.0,0.0,0.0,0.0,0.0,0.0,0.0,0.0,0.0,0.0,0.0,0.0,0.0,0.0,0.0,0.0,0.0,0.0,0.0,0.0,0.0,0.0,0.0,0.0,0.0,0.0,0.0,0.0,0.0,0.0,0.0,0.0,0.0,0.0,0.0,0.0,0.0,0.0,0.0,0.0,0.0,0.0,0.0,0.0,0.0,0.0,0.0,0.0,0.0,0.0,0.0,0.0,0.0,0.0,0.0,0.0,0.0,0.0,0.0,0.0,0.0,0.0,0.0,0.0,0.0,0.0,0.0,0.0,0.0,0.0,0.0,0.0,0.0,0.0,0.0,0.0,0.0,0.0,0.0,0.0,0.0,0.0,0.0,0.0,0.0,0.0,0.0,0.0,0.0,0.0,0.0,0.0,0.0,0.0,0.0,0.0,0.0,0.0,0.0,0.0,0.0,0.0,0.0,0.0,0.0,0.0,0.0,0.0,0.0,0.0,0.0,0.0,0.0,0.0,0.0,0.0,0.0,0.0,0.0,0.0,0.0,0.0,0.0,0.0,0.0,0.0,0.0,0.0,0.0,0.0,0.0,0.0,0.0,0.0,0.0,0.0,0.0,0.0,0.0,0.0,0.0,0.0,0.0,0.0,0.0,0.0,0.0,0.0,0.0,0.0,0.0,0.0,0.0,0.0,0.0,0.0,0.0,0.0,0.0,0.0,0.0,0.0,0.0,0.0,0.0,0.0,0.0,0.0,0.0,0.0,0.0,0.0,0.0,0.0,0.0,0.0,0.0,0.0,0.0,0.0,0.0,0.0,0.0,0.0,0.0,0.0,0.0,0.0,0.0,0.0,0.0,0.0,0.0,0.0,0.0,0.0,0.0,0.0,0.0,0.0,0.0,0.0,0.0,0.0,0.0,0.0,0.0,0.0,0.0,0.0,0.0,0.0,0.0,0.0,0.0,0.0,0.0,0.0,0.0,0.0,0.0,0.0,0.0,0.0,0.0,0.0,0.0,0.0,0.0,0.0,0.0,0.0,0.0,0.0,0.0,0.0,0.0,0.0,0.0,0.0,0.0,0.0,0.0,0.0,0.0,0.0,0.0,0.0,0.0,0.0,0.0,0.0,0.0,0.0,0.0,0.0,0.0,0.0,0.0,0.0,0.0,0.0,0.0,0.0,0.0,0.0,0.0,0.0,0.0,0.0,0.0,0.0,0.0,0.0,0.0,0.0,0.0,0.0,0.0,0.0,0.0,0.0,0.0,0.0,0.0,0.0,0.0,0.0,0.0,0.0,0.0,0.0,0.0,0.0,0.0,0.0,0.0,0.0,0.0,0.0,0.0,0.0,0.0,0.0,0.0,0.0,0.0,0.0,0.0,0.0,0.0,0.0,0.0,0.0,0.0,0.0,0.0,0.0,0.0,0.0,0.0,0.0,0.0,0.0,0.0,0.0,0.0,0.0,0.0,0.0,0.0,0.0,0.0,0.0,0.0,0.0,0.0,0.0,0.0,0.0,0.0,0.0,0.0,0.0,0.0,0.0,0.0,0.0,0.0,0.0,0.0,0.0,0.0,0.0,0.0,0.0,0.0,0.0,0.0,0.0,0.0,0.0,0.0,0.0,0.0,0.0,0.0,0.0,0.0,0.0,0.0,0.0,0.0,0.0,0.0,0.0,0.0,0.0,0.0,0.0,0.0,0.0,0.0,0.0,0.0,0.0,0.0,0.0,0.0,0.0,0.0,0.0,0.0,0.0,0.0,0.0,0.0,0.0,0.0,0.0,0.0,0.0,0.0,0.0,0.0,0.0,0.0,0.0,0.0,0.0,0.0,0.0,0.0,0.0,0.0,0.0,0.0,0.0,0.0,0.0,0.0,0.0,0.0,0.0,0.0,0.0,0.0,0.0,0.0,0.0,0.0,0.0,0.0,0.0,0.0,0.0,0.0,0.0,0.0,0.0,0.0,0.0,0.0,0.0,0.0,0.0,0.0,0.0,0.0,0.0,0.0,0.0,0.0,0.0,0.0,0.0,0.0,0.0,0.0,0.0,0.0,0.0,0.0,0.0,0.0,0.0,0.0,0.0,0.0,0.0,0.0,0.0,0.0,0.0,0.0,0.0,0.0,0.0,0.0,0.0,0.0,0.0,0.0,0.0,0.0,0.0,0.0,0.0,0.0,0.0,0.0,0.0,0.0,0.0,0.0,0.0,0.0,0.0,0.0,0.0,0.0,0.0,0.0,0.0,0.0,0.0,0.0,0.0,0.0,0.0,0.0,0.0,0.0,0.0,0.0,0.0,0.0,0.0,0.0,0.0,0.0,0.0,0.0,0.0,0.0,0.0,0.0,0.0,0.0,0.0,0.0,0.0,0.0,0.0,0.0,0.0,0.0,0.0,0.0,0.0,0.0,0.0,0.0,0.0,0.0,0.0,0.0,0.0,0.0,0.0,0.0,0.0,0.0,0.0,0.0,0.0,0.0,0.0,0.0,0.0,0.0,0.0,0.0,0.0,0.0,0.0,0.0,0.0,0.0,0.0,0.0,0.0,0.0,0.0,0.0,0.0,0.0,0.0,0.0,0.0,0.0,0.0,0.0,0.0,0.0,0.0,0.0,0.0,0.0,0.0,0.0,0.0,0.0,0.0,0.0,0.0,0.0,0.0,0.0,0.0,0.0,0.0,0.0,0.0,0.0,0.0,0.0,0.0,0.0,0.0,0.0,0.0,0.0,0.0,0.0,0.0,0.0,0.0,0.0,0.0,0.0,0.0,0.0,0.0,0.0,0.0,0.0,0.0,0.0,0.0,0.0,0.0,0.0,0.0,0.0,0.0,0.0,0.0,0.0,0.0,0.0,0.0,0.0,0.0,0.0,0.0,0.0,0.0,0.0,0.0,0.0,0.0,0.0,0.0,0.0,0.0,0.0,0.0,0.0,0.0,0.0,0.0,0.0,0.0,0.0,-1.2547,0.0,0.0,0.0,0.0,0.0,0.0,0.0,0.0,0.0,0.0,0.0,0.0,0.0,0.0,0.0,0.0,0.0,0.0,0.0,0.0,0.0,0.0,0.0,0.0,-1.0235,-1.024,-1.0371,-1.0347,-1.0339,-1.0314,-1.0355,-1.0326,-1.028,-0.9876,-0.958,-0.94,-0.9006,-0.8738,-0.8657,-0.848,-0.835,-0.8253,-0.7975,-0.7703,-0.7454,0.0,0.0,0.0,0.0,0.0,0.0,0.0,0.0,0.0,0.0,0.0,0.0,0.0,0.0,0.0,0.0,0.0,0.0,0.0,0.0,0.0,0.0,0.0,0.0,0.0,0.0,0.0,0.0,0.0,0.0,0.0,0.0,0.0,0.0,0.0,0.0,0.0,0.0,0.0,0.0,0.0,0.0,0.0,0.0,0.0,0.0,0.0,0.0,0.0,0.0,0.0,0.0,0.0,0.0,0.0,0.0,0.0,0.0,0.0,0.0,0.0,0.0,0.0,0.0,0.0,0.0,0.0,0.0,0.0,0.0,0.0,-1.3118,0.0,0.0,0.0,0.0,0.0,0.0,0.0,0.0,0.0,0.0,0.0,0.0,0.0,0.0,0.0,0.0,0.0,0.0,0.0,0.0,0.0,-0.9517,-0.9856,-0.9879,-0.9869,-0.9926,-0.9761,-0.9625,-0.9534,-0.9723,-0.9792,-0.9678,-0.9488,-0.9381,-0.9406,-0.8975,-0.8746,-0.8745,-0.8519,-0.8253,-0.7941,-0.7941,-0.7684,-0.7245,-0.7008,0.0,0.0,0.0,0.0,0.0,0.0,0.0,0.0,0.0,0.0,0.0,0.0,0.0,0.0,0.0,0.0,0.0,0.0,0.0,0.0,0.0,0.0,0.0,0.0,0.0,0.0,0.0,0.0,0.0,0.0,0.0,0.0,0.0,0.0,0.0,0.0,0.0,0.0,0.0,0.0,0.0,0.0,0.0,0.0,0.0,0.0,0.0,0.0,0.0,0.0,0.0,0.0,0.0,0.0,0.0,0.0,0.0,0.0,0.0,0.0,0.0,0.0,0.0,-1.4189,-1.4265,-1.4539,-1.4743,-1.5017,-1.5273,-1.4168,-1.3615,-1.36,-1.3663,0.0,0.0,0.0,0.0,0.0,0.0,0.0,0.0,0.0,0.0,0.0,0.0,0.0,0.0,0.0,0.0,0.0,0.0,0.0,-0.903,-0.9445,-0.9575,-0.9719,-0.9954,-0.9957,-0.9977,-1.008,-0.9792,-0.9624,-0.9606,-0.9104,-0.8866,-0.8983,-0.8743,-0.8712,-0.889,-0.9182,-0.9202,-0.8931,-0.8931,-0.8511,-0.7774,-0.717,-0.6754,-0.643,0.0,0.0,0.0,0.0,0.0,0.0,0.0,0.0,0.0,0.0,0.0,0.0,0.0,0.0,0.0,0.0,0.0,0.0,0.0,0.0,0.0,0.0,0.0,0.0,0.0,0.0,0.0,0.0,0.0,0.0,0.0,0.0,0.0,0.0,0.0,0.0,0.0,0.0,0.0,0.0,0.0,-1.2227,-1.2569,0.0,0.0,0.0,0.0,0.0,0.0,0.0,0.0,0.0,0.0,0.0,0.0,0.0,-1.4368,-1.4284,-1.4025,-1.3986,-1.4143,-1.4217,-1.4295,-1.4379,-1.485,-1.5103,-1.513,-1.4811,0.0,-1.5428,-1.51,0.0,0.0,0.0,0.0,0.0,0.0,0.0,0.0,0.0,0.0,0.0,0.0,0.0,0.0,0.0,0.0,0.0,0.0,0.0,0.0,0.0,-0.9344,-0.9538,-0.9691,-0.9782,-0.9788,-0.9697,-0.9537,-0.9348,-0.9211,-0.8963,-0.8862,-0.9023,-0.9001,-0.9102,-0.928,-0.9533,-0.9536,-0.9312,-0.9312,-0.9152,-0.8779,-0.8388,-0.7661,-0.6686,-0.6267,0.0,0.0,0.0,0.0,0.0,0.0,0.0,0.0,0.0,0.0,0.0,0.0,0.0,0.0,0.0,0.0,0.0,0.0,0.0,0.0,0.0,0.0,0.0,0.0,0.0,0.0,0.0,0.0,0.0,0.0,0.0,0.0,0.0,0.0,0.0,0.0,0.0,0.0,0.0,-1.1639,-1.1923,-1.2488,-1.2871,-1.3308,0.0,0.0,0.0,0.0,0.0,0.0,0.0,0.0,0.0,-1.4091,-1.4099,-1.3958,-1.3797,-1.381,-1.3784,-1.37,-1.3848,-1.3919,-1.3919,-1.441,-1.4727,-1.4834,-1.5029,-1.5345,-1.5671,-1.5223,-1.5018,-1.501,0.0,0.0,0.0,0.0,-1.4823,-1.4562,0.0,0.0,0.0,0.0,0.0,0.0,0.0,0.0,0.0,0.0,0.0,0.0,-0.8854,-0.9216,-0.9482,-0.9627,-0.9677,-0.965,-0.9497,-0.9372,-0.9226,-0.9011,-0.8979,-0.9033,-0.9184,-0.9459,-0.9693,-0.9945,-1.0055,-1.0102,-0.9989,-0.9989,-0.9946,-0.9809,-0.9635,-0.8737,-0.7366,-0.6953,-0.6629,-0.6338,0.0,0.0,0.0,0.0,0.0,0.0,0.0,0.0,0.0,0.0,0.0,0.0,0.0,0.0,0.0,0.0,0.0,0.0,0.0,0.0,0.0,0.0,0.0,0.0,0.0,0.0,0.0,0.0,0.0,0.0,0.0,0.0,0.0,0.0,0.0,0.0,0.0,-1.1401,-1.1635,-1.2267,-1.2818,-1.3377,0.0,0.0,0.0,0.0,0.0,0.0,-1.4995,-1.4624,-1.4259,-1.3892,-1.3762,-1.3623,-1.3487,-1.3557,-1.3539,-1.3398,-1.35,-1.3501,-1.3548,-1.4011,-1.4275,-1.4454,-1.4784,-1.5009,-1.5137,-1.5036,-1.507,-1.516,-1.5393,-1.5541,-1.5616,-1.5607,-1.5457,-1.5232,0.0,0.0,0.0,0.0,0.0,0.0,0.0,0.0,0.0,0.0,0.0,-0.8383,-0.8838,-0.9247,-0.9643,-0.9965,-0.9856,-0.9834,-0.9937,-0.9557,-0.9296,-0.9285,-0.9147,-0.9195,-0.9465,-1.0036,-1.0514,-1.0842,-1.0966,-1.1145,-1.1417,-1.1417,-1.1156,-1.0746,-1.0516,-0.9828,-0.875,-0.8293,-0.7966,-0.7636,-0.6864,0.0,0.0,0.0,0.0,0.0,0.0,0.0,0.0,0.0,0.0,0.0,0.0,0.0,0.0,0.0,0.0,0.0,0.0,0.0,0.0,0.0,0.0,0.0,0.0,0.0,0.0,0.0,0.0,0.0,0.0,0.0,0.0,0.0,0.0,0.0,0.0,0.0,0.0,-1.1822,-1.255,0.0,0.0,0.0,0.0,-1.4511,-1.5237,-1.5138,-1.3833,-1.4167,-1.4073,-1.3263,-1.3358,-1.356,-1.3775,-1.337,-1.3201,-1.3322,-1.3328,-1.3328,-1.3334,-1.3819,-1.4,-1.403,-1.3896,-1.3882,-1.3951,-1.4914,-1.5262,-1.5275,-1.517,-1.5145,-1.5131,-1.5131,-1.4929,-1.4653,0.0,0.0,0.0,-0.639,-0.6657,-0.6883,-0.6927,-0.7204,-0.752,-0.7809,-0.811,-0.8529,-0.9082,-0.9461,-0.9856,-1.0226,-1.0215,-1.0144,-1.0025,-0.9862,-0.9699,-0.9546,-0.9568,-0.9769,-1.0206,-1.0617,-1.0987,-1.1308,-1.1465,-1.1645,-1.1797,-1.1797,-1.1751,-1.1557,-1.1323,-1.0911,-1.0367,-0.9204,-0.8506,-0.8152,-0.7698,-0.7398,0.0,0.0,0.0,0.0,0.0,0.0,0.0,0.0,0.0,0.0,0.0,0.0,0.0,0.0,0.0,0.0,0.0,0.0,0.0,0.0,0.0,0.0,0.0,0.0,0.0,0.0,0.0,0.0,0.0,0.0,0.0,0.0,0.0,0.0,0.0,0.0,0.0,-1.1773,-1.2124,0.0,-1.367,-1.4199,-1.4672,-1.5136,-1.4995,-1.4711,-1.4325,-1.3748,-1.3337,-1.3146,-1.2942,-1.2899,-1.3111,-1.2922,-1.2973,-1.3173,-1.3173,-1.3212,-1.3234,-1.3385,-1.3601,-1.3749,-1.379,-1.3905,-1.4073,-1.4543,-1.4705,-1.463,-1.4583,-1.4683,-1.482,-1.482,-1.4678,-1.4451,0.0,0.0,0.0,-0.6385,-0.6612,-0.6801,-0.6801,-0.7148,-0.7546,-0.779,-0.8274,-0.8778,-0.9367,-0.9748,-1.009,-1.0457,-1.0484,-1.0373,-1.021,-1.0128,-1.0014,-0.9856,-1.0036,-1.0329,-1.0773,-1.1096,-1.14,-1.1679,-1.1841,-1.202,-1.2172,-1.2172,-1.2172,-1.2161,-1.1922,-1.1705,-1.1476,-1.0324,-0.9537,-0.9038,-0.8668,-0.8363,-0.8099,0.0,0.0,0.0,0.0,0.0,0.0,0.0,0.0,0.0,0.0,0.0,0.0,0.0,0.0,0.0,0.0,0.0,0.0,0.0,0.0,0.0,0.0,0.0,0.0,0.0,0.0,0.0,0.0,0.0,0.0,0.0,0.0,0.0,0.0,-1.0788,-1.1071,-1.1698,-1.1959,-1.2506,-1.3541,-1.3816,-1.4201,-1.483,-1.4472,-1.4165,-1.4077,-1.3411,-1.3017,-1.2955,-1.2699,-1.2651,-1.2765,-1.2808,-1.2912,-1.312,-1.3107,-1.3167,-1.3186,-1.3186,-1.3304,-1.3464,-1.3548,-1.3694,-1.3889,-1.3977,-1.3956,-1.397,-1.4222,-1.4463,-1.4612,-1.456,-1.4392,-1.4244,0.0,0.0,0.0,-0.6368,-0.6612,-0.6801,-0.6801,-0.7312,-0.7785,-0.8055,-0.8579,-0.9103,-0.966,-0.9992,-1.0302,-1.0582,-1.0604,-1.0599,-1.0599,-1.0346,-1.0221,-1.0231,-1.0527,-1.0873,-1.1118,-1.1471,-1.1764,-1.1998,-1.2176,-1.2308,-1.2493,-1.2493,-1.2493,-1.2482,-1.2292,-1.2112,-1.1971,-1.1668,-1.1112,-1.036,-0.9795,-0.9338,-0.8976,0.0,0.0,0.0,0.0,0.0,0.0,0.0,0.0,0.0,0.0,0.0,0.0,0.0,0.0,0.0,0.0,0.0,0.0,0.0,0.0,0.0,0.0,0.0,0.0,0.0,0.0,0.0,0.0,0.0,0.0,0.0,0.0,0.0,-1.0728,-1.1058,-1.1373,-1.1578,-1.2113,-1.2506,-1.2512,-1.3043,-1.34,-1.3406,-1.3636,-1.3597,-1.313,-1.3245,-1.3122,-1.2705,-1.271,-1.277,-1.2884,-1.3009,-1.3125,-1.308,-1.3189,-1.3192,-1.3197,-1.3197,-1.3197,-1.3192,-1.3197,-1.3197,-1.3192,-1.3197,-1.3197,-1.3278,-1.4051,-1.4351,-1.4339,-1.4206,-1.4067,-1.406,0.0,0.0,-0.6287,-0.6385,-0.6612,-0.6801,-0.6801,-0.7312,-0.7785,-0.8055,-0.8655,-0.9228,-0.9699,-1.0117,-1.0433,-1.0666,-1.0688,-1.065,-1.0604,-1.0579,-1.0672,-1.0846,-1.1031,-1.1281,-1.1618,-1.1884,-1.2102,-1.2301,-1.246,-1.2591,-1.2656,-1.2656,-1.2656,-1.2651,-1.2504,-1.2319,-1.2159,-1.2061,-1.171,-1.1204,-1.0617,-1.0217,-0.9955,0.0,0.0,0.0,0.0,0.0,0.0,0.0,0.0,0.0,0.0,0.0,0.0,0.0,0.0,0.0,0.0,0.0,0.0,0.0,0.0,0.0,0.0,0.0,0.0,0.0,0.0,0.0,0.0,0.0,0.0,0.0,-1.0976,-1.1161,-1.1128,-1.1362,-1.1656,-1.1987,-1.2193,-1.2469,-1.3024,-1.322,-1.3483,-1.3818,-1.3596,-1.3437,-1.3389,-1.3081,-1.2858,-1.2835,-1.2835,-1.2852,-1.289,-1.3009,-1.3113,-1.3194,-1.3314,-1.3417,-1.3504,-1.3504,-1.3455,-1.3322,-1.3466,-1.3455,-1.3327,-1.3466,-1.3504,-1.3477,-1.3495,-1.3553,-1.3548,-1.3514,-1.3564,-1.367,0.0,-0.6243,-0.6331,-0.639,-0.6612,-0.6801,-0.6801,-0.7355,-0.7856,-0.81,-0.8758,-0.9331,-0.9753,-1.0123,-1.0405,-1.0639,-1.0661,-1.0655,-1.0634,-1.0791,-1.0998,-1.1237,-1.1504,-1.1694,-1.196,-1.2199,-1.2384,-1.2552,-1.264,-1.2732,-1.2781,-1.2781,-1.2781,-1.2776,-1.2656,-1.2526,-1.2384,-1.2279,-1.2053,-1.1819,-1.1373,-1.0987,-1.0661,-1.0416,-1.0161,-0.9944,-0.9682,-0.9477,-0.9325,-0.9122,0.0,0.0,0.0,0.0,0.0,0.0,0.0,0.0,0.0,0.0,0.0,0.0,0.0,0.0,0.0,0.0,0.0,0.0,0.0,0.0,0.0,0.0,0.0,0.0,-1.1493,-1.1712,-1.1761,-1.1803,-1.1976,-1.2286,-1.2324,-1.2475,-1.2903,-1.3014,-1.3211,-1.3508,-1.3319,-1.325,-1.3374,-1.3078,-1.296,-1.3031,-1.3037,-1.3037,-1.3037,-1.3156,-1.3249,-1.3268,-1.3439,-1.3537,-1.3602,-1.3602,-1.3564,-1.3504,-1.3575,-1.3564,-1.3504,-1.3575,-1.3602,0.0,0.0,0.0,0.0,0.0,-1.332,-1.3379,0.0,-0.6314,-0.6363,-0.6412,-0.6634,-0.6823,-0.6823,-0.7439,-0.7937,-0.815,-0.8829,-0.94,-0.9721,-1.0025,-1.0275,-1.0538,-1.0582,-1.0664,-1.0744,-1.1014,-1.1259,-1.157,-1.1841,-1.208,-1.2227,-1.2444,-1.2613,-1.2727,-1.2727,-1.2781,-1.289,-1.289,-1.289,-1.2884,-1.2776,-1.2716,-1.2683,-1.2352,-1.2252,-1.2219,-1.1933,-1.1558,-1.1118,-1.09,-1.0726,-1.0599,-1.0237,-1.0073,-1.0068,-0.9884,0.0,0.0,0.0,0.0,0.0,0.0,0.0,0.0,0.0,0.0,0.0,0.0,0.0,0.0,0.0,0.0,0.0,0.0,0.0,0.0,0.0,0.0,0.0,0.0,-1.2047,-1.2285,-1.2421,-1.235,-1.2314,-1.2482,-1.2504,-1.2515,-1.2542,-1.2689,-1.2797,-1.2917,-1.3026,-1.3134,-1.3181,-1.3186,0.0,0.0,0.0,-1.3186,-1.3186,-1.3305,-1.3423,-1.3423,-1.3548,-1.3602,-1.3602,-1.3602,-1.3602,-1.3602,-1.3602,-1.3607,-1.3708,-1.3708,-1.3708,-1.376,-1.3655,-1.3602,-1.3591,-1.3466,-1.3292,-1.3193,0.0,-0.642,-0.6531,-0.6553,-0.6785,-0.6948,-0.6948,-0.7399,-0.7818,-0.8088,-0.8633,-0.9119,-0.9514,-0.9856,-1.0112,-1.0259,-1.0484,-1.0773,-1.1139,-1.1352,-1.1625,-1.2061,-1.2148,-1.2281,-1.2596,-1.2651,-1.2732,-1.2852,-1.2852,-1.2863,-1.289,-1.289,-1.289,-1.2884,-1.2863,-1.2797,-1.2694,-1.2531,-1.2406,-1.2345,-1.2053,-1.1726,-1.1428,-1.1379,-1.1123,-1.084,-1.077,-1.0641,-1.0533,-1.0473,-1.0331,-1.0144,-0.9943,-0.9688,0.0,0.0,0.0,0.0,0.0,0.0,0.0,0.0,0.0,0.0,0.0,0.0,0.0,0.0,0.0,0.0,0.0,0.0,0.0,-1.2058,-1.2274,-1.2443,-1.2607,-1.2618,-1.2618,-1.2667,-1.2672,-1.2748,-1.295,-1.2988,-1.3047,-1.3162,-1.3194,-1.3165,-1.3186,-1.3186,-1.3186,-1.3186,-1.3186,-1.3186,-1.3186,-1.3305,-1.3423,-1.3423,0.0,0.0,-1.3602,-1.3602,-1.3602,-1.3602,-1.3602,-1.3871,-1.4241,-1.4241,-1.4551,-1.4862,-1.3971,-1.3602,-1.3591,-1.3466,-1.339,-1.3336,-0.6535,-0.6632,-0.6709,-0.6709,-0.6861,-0.7013,-0.7013,-0.7394,-0.7785,-0.8055,-0.8524,-0.8997,-0.9356,-0.9606,-0.9851,-1.009,-1.0438,-1.0824,-1.1286,-1.1504,-1.1797,-1.2203,-1.2341,-1.252,-1.27,-1.2765,-1.2857,-1.2977,-1.2977,-1.3009,-1.3064,-1.3064,-1.3031,-1.2977,-1.2977,-1.2912,-1.2786,-1.2672,-1.2585,-1.2509,-1.227,-1.2072,-1.1848,-1.1683,-1.1487,-1.127,-1.121,-1.1107,-1.0987,-1.0867,-1.0748,-1.0634,-1.0509,-1.0264,-1.0003,0.0,0.0,0.0,0.0,0.0,0.0,0.0,0.0,0.0,0.0,0.0,0.0,0.0,0.0,-1.1444,-1.1677,0.0,-1.2167,-1.2401,-1.2493,-1.2591,-1.277,-1.2852,-1.289,-1.289,-1.289,-1.296,-1.314,-1.3156,-1.3205,-1.3268,-1.3278,-1.3305,-1.3417,-1.3423,-1.3423,-1.3423,-1.3423,-1.3423,-1.3423,-1.3482,-1.3515,-1.3515,-1.3575,-1.3602,-1.3602,-1.3602,-1.3602,-1.3602,-1.3866,-1.4135,-1.4399,-1.471,-1.5026,-1.523,-1.4657,-1.4288,-1.3966,-1.3642,-1.3471,-1.3412,-0.6785,-0.6839,-0.6866,-0.6839,-0.6937,-0.7046,-0.7046,-0.7366,-0.7714,-0.7984,-0.8416,-0.8796,-0.9128,-0.9318,-0.9568,-0.991,-1.0381,-1.0862,-1.1292,-1.1634,-1.1966,-1.2232,-1.2536,-1.2727,-1.2776,-1.2873,-1.2982,-1.3102,-1.3102,-1.3151,-1.3186,-1.3186,-1.3189,-1.3102,-1.3131,-1.3015,-1.2912,-1.2765,-1.2705,-1.2683,-1.2498,-1.2345,-1.223,-1.1944,-1.1759,-1.1578,-1.1498,-1.1423,-1.1297,-1.1139,-1.1036,-1.0954,-1.0954,-1.0742,-1.0492,-1.0492,-1.0264,0.0,0.0,0.0,0.0,0.0,0.0,0.0,0.0,-1.1243,-1.14,-1.151,-1.1716,-1.196,-1.2074,-1.2323,-1.253,-1.2672,-1.2743,-1.2808,-1.2912,-1.3026,-1.3113,-1.3134,-1.3118,-1.3145,-1.3208,-1.3224,-1.3273,-1.345,-1.3455,-1.3499,-1.3597,-1.3602,-1.3602,-1.3602,-1.3602,-1.3602,-1.3602,-1.3602,-1.3602,-1.3602,-1.3602,-1.3602,-1.3602,-1.3602,-1.3655,-1.3819,-1.4446,-1.4715,-1.4762,-1.5394,-1.5657,-1.5605,-1.55,-1.5078,-1.4499,-1.3971,-1.3595,-1.3455,0.0,-0.6997,-0.7111,-0.7007,-0.7089,-0.7193,-0.7193,-0.7274,-0.7435,-0.7709,-0.8062,-0.8356,-0.8638,-0.897,-0.932,-0.978,-1.0297,-1.0817,-1.1286,-1.171,-1.2129,-1.2434,-1.2629,-1.2808,-1.3026,-1.3093,-1.3107,-1.317,-1.317,-1.3176,-1.3186,-1.3186,-1.3181,-1.3216,-1.3118,-1.3114,-1.3037,-1.2803,-1.2705,-1.2683,-1.2498,-1.2394,-1.2356,-1.2063,-1.183,-1.1578,-1.1498,-1.1423,-1.1297,-1.1139,-1.1096,-1.1079,-1.1079,-1.0982,-1.0857,-1.0857,-1.0712,-1.0592,-1.0592,-1.0674,-1.0835,-1.0987,-1.1118,-1.1302,0.0,-1.1737,-1.1851,-1.2214,-1.2312,-1.2378,-1.2449,-1.258,-1.2672,-1.27,-1.289,-1.3087,-1.3098,-1.3145,-1.3208,-1.3368,-1.3235,-1.3219,-1.339,-1.3401,-1.345,-1.3575,-1.3586,-1.3591,-1.3602,-1.3602,-1.3602,-1.3602,-1.3602,-1.3602,-1.3602,-1.3602,-1.3602,-1.3602,-1.3602,-1.3602,-1.3602,-1.3602,-1.3871,-1.4346,-1.5447,-1.592,-1.5973,-1.6558,-1.6821,-1.6768,-1.6236,-1.5657,-1.5131,-1.4551,-1.4019,-1.3586,0.0,-0.7068,-0.7193,-0.7122,-0.7149,-0.721,-0.721,-0.7258,-0.7397,-0.7671,-0.7888,-0.8166,-0.8546,-0.8976,-0.9367,-0.9709,-1.0222,-1.0661,-1.1145,-1.1623,-1.2053,-1.2417,-1.2607,-1.2786,-1.296,-1.3087,-1.3124,-1.3186,-1.3257,-1.3385,-1.345,-1.345,-1.3412,-1.3289,-1.3221,-1.3134,-1.3109,-1.2884,-1.2814,-1.2792,-1.2553,-1.2417,-1.2378,-1.208,-1.1797,-1.1525,-1.1515,-1.133,0.0,-1.1096,-1.1052,-1.1009,-1.1079,-1.124,-1.141,-1.141,-1.1635,-1.1835,-1.1609,-1.1461,-1.1323,-1.1487,-1.1656,-1.1897,-1.208,-1.2183,-1.2281,-1.2428,-1.2515,-1.2574,-1.2623,-1.2732,-1.2835,-1.2906,-1.3054,-1.3091,-1.3156,-1.327,-1.3363,-1.3417,-1.3439,-1.3471,-1.352,-1.3526,-1.3548,-1.3602,-1.3602,-1.3602,-1.3602,-1.3602,-1.3602,-1.3602,-1.3602,-1.3602,-1.3602,-1.3602,-1.3602,-1.3602,-1.3602,-1.3602,-1.3602,-1.3924,-1.4551,-1.5394,-1.5868,-1.6288,-1.6663,-1.6873,-1.6978,-1.6978,-1.6715,-1.6288,-1.5657,-1.4768,-1.4083,-1.3602,0.0,-0.7057,-0.7144,-0.7204,-0.721,-0.721,-0.721,-0.723,-0.7372,-0.7616,-0.7752,-0.8039,-0.8486,-0.891,-0.9253,-0.9503,-0.996,-1.0454,-1.0965,-1.1437,-1.1928,-1.2334,-1.2564,-1.2765,-1.2884,-1.3009,-1.3124,-1.3186,-1.3311,-1.3466,-1.3553,-1.3591,-1.3558,-1.3466,-1.3257,-1.3194,-1.3107,-1.2955,-1.2868,-1.2819,-1.2569,-1.2444,-1.2323,-1.2138,-1.1848,-1.1577,-1.1577,-1.1318,-1.1042,-1.119,-1.1205,-1.1177,-1.13,-1.1647,-1.198,-1.2093,-1.2384,-1.2645,-1.2388,-1.2079,-1.1857,-1.1944,-1.2118,-1.2303,-1.247,-1.252,-1.2591,-1.2574,-1.27,-1.2765,-1.2797,-1.2879,-1.2977,-1.3096,-1.3145,-1.3194,-1.3224,-1.3395,-1.3471,-1.3471,-1.3553,-1.3602,-1.3602,-1.3602,-1.3602,-1.3602,-1.3602,-1.3602,-1.3602,-1.3602,-1.3602,-1.3602,-1.3602,-1.3602,-1.3602,-1.3602,-1.3602,-1.3602,-1.3602,-1.3655,-1.3819,-1.4551,-1.5342,-1.6131,-1.6288,-1.661,-1.6978,-1.6978,-1.6978,-1.6978,-1.6978,-1.661,-1.5973,-1.5184,-1.4393,-1.3819,0.0,0.0,-0.7051,-0.7188,-0.721,-0.721,-0.721,-0.7215,-0.7275,-0.7491,-0.7633,-0.7888,-0.8372,-0.8638,-0.8883,-0.9092,-0.9542,-1.0067,-1.0668,-1.1264,-1.1803,-1.2209,-1.2515,-1.2765,-1.2884,-1.3009,-1.3124,-1.3186,-1.3311,-1.3423,-1.3428,-1.3548,-1.3602,-1.3591,-1.3295,-1.3186,-1.3165,-1.2988,-1.2819,-1.27,-1.258,-1.239,-1.2234,-1.2283,-1.2042,-1.1672,-1.1672,-1.1549,-1.1416,-1.1538,-1.1654,-1.1816,-1.1914,-1.218,-1.2441,-1.279,-1.2782,-1.2708,-1.2667,-1.2528,-1.2383,-1.2383,-1.2433,-1.2553,-1.2667,-1.2694,-1.2732,-1.2852,-1.2879,-1.2917,-1.3037,-1.3114,-1.3102,-1.3216,-1.333,-1.3412,-1.3417,-1.352,-1.3597,-1.3597,-1.3602,-1.3602,-1.3602,-1.3602,-1.3602,-1.3602,-1.3602,-1.3602,-1.3602,-1.3602,-1.3602,-1.3602,-1.3602,-1.3602,-1.3602,-1.3602,-1.3602,-1.3602,-1.3602,-1.3871,-1.4399,-1.5552,-1.6078,-1.6131,-1.6715,-1.6978,-1.6978,-1.6978,-1.6978,-1.6978,-1.6978,-1.661,-1.6078,-1.6078,-1.5342,-1.4294,0.0,0.0,0.0,-0.7204,-0.721,-0.721,-0.721,-0.721,-0.7269,-0.7486,-0.7804,0.0,0.0,0.0,0.0,0.0,-0.9682,-1.0175,-1.0471,-1.0992,-1.1444,-1.1803,-1.208,-1.2324,-1.258,-1.2651,-1.2814,-1.3004,-1.3129,-1.3227,-1.3246,-1.3289,-1.3518,-1.3875,-1.3706,-1.379,-1.4007,-1.3881,-1.3681,-1.3421,-1.3298,-1.304,-1.2712,-1.2669,-1.2332,-1.1939,0.0,-1.1836,-1.1311,-1.1521,-1.15,-1.1479,-1.1749,-1.2291,-1.2938,-1.3591,-1.353,-1.3275,-1.3114,-1.2791,-1.2493,-1.2569,-1.2618,-1.2678,-1.2797,-1.2825,-1.2841,-1.2879,-1.289,-1.2901,-1.2939,-1.3015,-1.3107,-1.317,-1.3289,-1.345,-1.3531,-1.358,-1.3602,-1.3602,-1.3602,-1.3602,-1.3602,-1.3602,-1.3602,-1.3602,-1.3602,-1.3602,-1.3602,-1.3602,-1.3602,-1.3602,-1.3602,-1.3602,-1.3602,-1.3602,-1.3602,-1.3602,-1.3971,-1.4446,-1.5026,-1.5763,-1.6341,-1.6715,-1.6926,-1.6978,-1.6978,-1.6978,-1.6917,-1.6777,-1.6777,-1.6606,-1.6312,-1.5957,-1.5595,-1.5154,0.0,0.0,0.0,0.0,0.0,0.0,0.0,0.0,0.0,0.0,0.0,0.0,0.0,0.0,0.0,0.0,0.0,-1.0338,-1.0657,-1.1076,-1.1453,-1.1871,-1.2125,-1.2351,-1.2607,-1.2735,-1.2893,-1.31,-1.3321,-1.3462,-1.3486,-1.3582,-1.3825,-1.4124,-1.3998,-1.4074,-1.4231,-1.4098,-1.3866,-1.3557,-1.3472,-1.3199,-1.2867,-1.2816,-1.2557,0.0,-1.2477,-1.2167,-1.1612,-1.1846,-1.1833,-1.1789,-1.2196,-1.2772,-1.3421,-1.4035,-1.388,-1.3489,-1.3412,-1.3015,-1.2678,-1.2754,-1.277,-1.2792,-1.2868,-1.289,-1.289,-1.289,-1.304,-1.3201,-1.3245,-1.3351,-1.3474,-1.3544,-1.351,-1.3515,-1.3591,-1.3602,-1.3602,-1.3602,-1.3602,-1.3602,-1.3602,-1.3602,-1.3602,-1.3602,-1.3602,-1.3602,-1.3602,-1.3602,-1.3602,-1.3602,-1.3602,-1.3602,-1.3602,-1.3602,-1.3713,-1.3866,-1.4446,-1.5026,-1.5599,-1.6183,-1.661,-1.6978,-1.6978,-1.6951,-1.6897,-1.6897,-1.6809,-1.6615,-1.6615,-1.6554,-1.6473,-1.6115,-1.5968,-1.584,0.0,0.0,0.0,0.0,0.0,0.0,0.0,0.0,0.0,0.0,0.0,0.0,0.0,0.0,0.0,0.0,0.0,0.0,-1.1156,-1.1427,-1.181,-1.2331,-1.2561,-1.2766,-1.2944,-1.3199,-1.3339,-1.3351,-1.3739,-1.394,-1.3958,-1.4219,-1.434,-1.4378,-1.4116,-1.4042,-1.4012,-1.3761,-1.3492,-1.3242,-1.3236,-1.2991,-1.2656,-1.286,-1.2746,-1.2544,-1.2628,-1.2542,-1.2325,-1.2467,-1.2623,-1.2774,-1.3105,-1.3455,-1.3848,-1.4053,-1.372,-1.3332,-1.3421,-1.3195,-1.289,-1.289,-1.289,-1.289,-1.289,-1.2884,-1.2879,-1.2929,-1.3323,-1.3707,-1.3867,-1.3949,-1.4037,-1.4163,-1.3824,-1.3597,-1.3602,-1.3602,-1.3602,-1.3602,-1.3602,-1.3602,-1.3602,-1.3602,-1.3602,-1.3602,-1.3602,-1.3602,-1.3602,-1.3602,-1.3602,-1.3602,-1.3602,-1.3602,-1.3602,-1.3602,-1.3871,-1.4399,-1.5026,-1.5599,-1.6131,-1.6715,-1.6978,-1.6978,-1.6971,-1.6883,-1.6696,-1.6689,-1.6594,-1.651,-1.651,-1.6503,-1.6497,-1.6497,-1.6497,-1.6292,0.0,0.0,0.0,0.0,0.0,0.0,0.0,0.0,0.0,0.0,0.0,0.0,0.0,0.0,0.0,0.0,0.0,0.0,-1.0894,-1.1233,-1.1543,-1.1785,-1.2046,-1.2253,-1.2392,-1.2562,-1.2744,-1.2893,-1.3145,-1.3345,-1.3539,-1.3606,-1.3879,-1.4257,-1.4181,-1.4221,-1.4375,-1.4303,-1.4105,-1.3879,-1.3723,-1.3479,-1.3169,-1.3149,-1.2943,-1.2635,-1.268,-1.261,-1.2467,-1.2584,-1.2882,-1.3179,-1.3035,-1.3361,-1.3732,-1.3331,-1.3269,-1.3252,-1.3084,-1.2962,-1.289,-1.289,-1.289,-1.289,-1.289,-1.2819,-1.2853,-1.3249,-1.3372,-1.351,-1.3883,-1.3831,-1.3778,-1.3853,-1.3646,-1.3499,-1.3591,-1.3602,-1.3602,-1.3602,-1.3602,-1.3602,-1.3602,-1.3602,-1.3602,-1.3602,-1.3602,-1.3602,-1.3602,-1.3602,-1.3602,-1.3602,-1.3602,-1.3602,-1.3602,-1.3602,-1.3871,-1.4399,-1.5026,-1.5599,-1.6131,-1.6715,-1.6978,-1.6971,-1.6856,-1.6736,-1.6689,-1.6574,-1.6497,-1.6368,-1.6368,-1.6293,-1.6191,-1.6191,-1.6191,-1.6141,0.0,0.0,0.0,0.0,0.0,0.0,0.0,0.0,0.0,0.0,0.0,0.0,0.0,0.0,0.0,0.0,0.0,0.0,0.0,-1.1441,-1.1689,-1.1996,-1.2155,-1.2334,-1.2545,-1.2685,-1.279,-1.29,-1.3153,-1.3331,-1.3483,-1.3547,-1.3752,-1.4021,-1.3961,-1.402,-1.4122,-1.4055,-1.3892,0.0,0.0,-1.341,-1.3193,-1.3037,-1.2874,-1.2679,-1.2618,-1.2664,-1.2718,-1.2807,-1.3004,-1.3162,-1.3111,-1.3173,-1.319,-1.304,-1.2961,-1.2922,-1.2924,-1.289,-1.289,-1.289,-1.289,-1.2873,-1.2819,-1.2952,-1.312,-1.3306,-1.3607,-1.3939,-1.4228,-1.4262,-1.4197,-1.4078,-1.39,-1.3705,-1.3515,-1.3569,-1.3602,-1.3602,-1.3602,-1.3602,-1.3602,-1.3602,-1.3602,-1.3602,-1.3602,-1.3602,-1.3602,-1.3602,-1.3602,-1.3602,-1.3602,-1.3602,-1.3602,-1.3813,-1.4235,-1.4815,-1.5394,-1.5973,-1.6505,-1.6873,-1.6944,-1.6876,0.0,-1.6621,-1.65,-1.6463,-1.6341,-1.6212,-1.6212,-1.6157,-1.6083,-1.6083,-1.6083,-1.6083,0.0,0.0,0.0,0.0,0.0,0.0,0.0,0.0,0.0,0.0,0.0,-0.9071,-0.9496,-1.0028,0.0,0.0,0.0,0.0,0.0,0.0,-1.1969,-1.2393,-1.2433,-1.2576,-1.2907,-1.305,-1.3132,-1.3112,-1.3403,-1.3553,-1.3531,-1.3653,-1.3707,-1.3707,-1.3585,-1.3559,-1.349,-1.3397,-1.3268,-1.3186,-1.3119,-1.3037,-1.2955,0.0,-1.2659,-1.2645,-1.2549,-1.2737,-1.3003,-1.3003,-1.298,-1.2981,-1.3158,-1.2904,-1.257,-1.2913,-1.2776,-1.2537,-1.2825,-1.289,-1.289,-1.289,-1.2873,-1.2835,-1.2825,-1.3109,-1.3409,-1.3285,-1.3924,-1.4558,-1.4605,-1.4796,-1.4796,-1.4409,-1.4198,-1.3933,-1.3447,-1.3488,-1.3564,-1.3575,-1.358,-1.3586,-1.3602,-1.3602,-1.3602,-1.3602,-1.3602,-1.3602,-1.3602,-1.3602,-1.3602,-1.3602,-1.3602,-1.3607,-1.3713,-1.4188,-1.4762,-1.5388,-1.5868,-1.6394,-1.6978,-1.6978,-1.6897,-1.6696,-1.6675,-1.6513,-1.6307,-1.6286,-1.6198,-1.6083,-1.6083,-1.6083,-1.6083,-1.6083,-1.6083,-1.6083,0.0,0.0,0.0,0.0,0.0,0.0,0.0,0.0,0.0,0.0,-0.8967,-0.9609,0.0,0.0,0.0,0.0,0.0,0.0,0.0,0.0,0.0,-1.1908,-1.2067,-1.2261,-1.2406,-1.2549,-1.2678,-1.2807,-1.299,-1.318,-1.3254,-1.3275,-1.3288,-1.3288,-1.3261,-1.3227,-1.3118,-1.3091,-1.3064,-1.303,-1.2861,-1.2753,-1.2752,-1.2603,-1.2542,0.0,-1.2508,-1.2737,-1.3003,-1.3003,-1.3047,-1.3017,-1.2792,-1.2636,-1.2524,-1.2533,-1.2487,-1.2537,-1.2825,-1.289,-1.289,-1.289,-1.2814,-1.2831,-1.3253,-1.3202,-1.3252,-1.4014,-1.4147,-1.4211,-1.4625,-1.4592,-1.4396,-1.411,-1.3851,-1.3604,-1.3295,-1.3235,-1.3289,-1.3439,-1.3455,-1.3493,-1.3597,-1.3602,-1.3602,-1.3602,-1.3602,-1.3602,-1.3602,-1.3602,-1.3602,-1.3602,-1.3602,-1.3813,-1.4241,-1.4346,-1.492,-1.5973,-1.6078,-1.6394,-1.6978,-1.6978,-1.6897,-1.6689,-1.6567,0.0,-1.63,-1.6171,-1.6103,-1.6083,-1.6083,-1.6083,-1.6083,-1.6083,-1.6083,-1.6083,0.0,0.0,0.0,0.0,0.0,0.0,0.0,-0.7439,-0.8046,-0.8403,-0.9303,-0.994,-1.0042,-1.0613,-1.1098,0.0,0.0,0.0,0.0,0.0,0.0,-1.1793,-1.1904,-1.2054,-1.2284,-1.2359,-1.2467,-1.261,0.0,-1.2759,-1.282,-1.282,-1.282,-1.282,-1.282,-1.2786,-1.2725,-1.2725,-1.2725,-1.2718,-1.2644,-1.261,-1.2603,-1.2528,-1.2501,0.0,-1.2501,-1.2651,-1.2854,-1.2975,-1.3014,-1.2966,-1.2779,-1.2648,-1.2575,-1.2484,-1.2531,-1.2661,-1.2841,-1.289,-1.289,-1.289,-1.2797,-1.282,-1.3186,-1.3298,-1.3368,-1.3826,-1.4127,-1.4326,-1.4478,-1.4592,-1.4584,-1.427,-1.4122,-1.388,-1.3497,-1.3315,-1.3208,-1.3268,-1.3385,-1.3444,-1.3504,-1.3564,-1.3602,-1.3602,-1.3602,-1.3602,-1.3602,-1.3602,-1.3602,-1.3602,-1.3602,-1.3871,-1.4399,-1.471,-1.5289,-1.6078,-1.6394,-1.6715,-1.6978,-1.6978,-1.6897,-1.6689,-1.6533,0.0,-1.63,-1.6144,-1.6083,-1.6083,-1.6083,-1.6083,-1.6083,-1.6083,-1.6083,-1.6083,0.0,0.0,0.0,0.0,0.0,0.0,0.0,-0.7275,-0.8016,-0.8569,-0.9375,-0.9973,-1.0239,-1.0657,-1.109,0.0,0.0,0.0,0.0,0.0,0.0,0.0,-1.1793,-1.1979,-1.2284,0.0,0.0,-1.2501,-1.2501,0.0,0.0,0.0,0.0,0.0,-1.2501,-1.2501,-1.2501,-1.2501,-1.2501,0.0,0.0,-1.2501,-1.2501,0.0,0.0,0.0,0.0,-1.2651,-1.28,-1.2996,-1.3035,-1.3017,-1.2929,-1.2882,-1.2818,-1.2706,-1.2743,-1.2847,-1.2896,-1.289,-1.289,-1.289,-1.2875,-1.2906,-1.317,-1.3429,-1.3656,-1.3687,-1.4022,-1.4346,-1.4265,-1.457,-1.4757,-1.4405,-1.4284,-1.4131,-1.3638,-1.3334,-1.3172,-1.32,-1.3257,-1.339,-1.3417,-1.3531,-1.3602,-1.3602,-1.3602,-1.3602,-1.3602,-1.3602,-1.3602,-1.3602,-1.3713,-1.4024,-1.461,-1.5184,-1.5763,-1.6288,-1.6768,-1.6978,-1.6978,-1.6978,-1.6897,-1.6689,-1.6533,0.0,0.0,-1.6144,-1.6083,-1.6083,-1.6083,-1.6083,-1.6083,-1.6083,-1.6083,-1.6083,0.0,0.0,0.0,0.0,0.0,0.0,0.0,-0.6332,-0.7065,-0.8258,-0.8862,-0.9489,-1.0305,-1.0958,-1.1464,0.0,0.0,0.0,0.0,0.0,0.0,0.0,0.0,0.0,0.0,0.0,0.0,-1.2501,-1.2501,0.0,0.0,0.0,0.0,0.0,0.0,-1.2501,-1.2501,-1.2501,0.0,0.0,0.0,0.0,0.0,0.0,0.0,0.0,0.0,-1.2807,-1.3003,-1.3146,-1.3321,-1.3512,-1.3294,-1.3235,-1.3256,-1.3255,-1.326,-1.3177,-1.2974,-1.289,-1.289,-1.289,-1.3056,-1.3328,-1.3668,-1.3765,-1.3887,-1.4162,-1.4045,-1.3939,-1.4068,-1.4238,-1.4316,-1.4224,-1.4027,-1.3777,-1.3531,-1.3184,-1.296,-1.3075,-1.3189,-1.3246,-1.3412,-1.3531,-1.3602,-1.3602,-1.3602,-1.3602,-1.3602,-1.3602,-1.3602,-1.3602,-1.4083,-1.4604,-1.523,-1.5763,-1.6341,-1.6926,-1.6978,-1.6978,-1.6978,-1.6978,-1.6897,-1.6689,-1.6533,0.0,0.0,-1.6144,-1.6083,-1.6083,-1.6083,-1.6083,-1.6083,-1.6083,-1.6083,-1.6083,0.0,0.0,0.0,0.0,0.0,0.0,-0.5021,-0.5912,-0.6733,-0.7558,-0.8562,-0.947,-1.0092,-1.0865,-1.1397,-1.1541,0.0,0.0,0.0,0.0,0.0,0.0,0.0,0.0,0.0,0.0,-1.2406,-1.2637,-1.2637,0.0,0.0,0.0,0.0,0.0,0.0,-1.2501,-1.2501,-1.2501,0.0,0.0,0.0,0.0,0.0,0.0,0.0,0.0,0.0,0.0,-1.3023,-1.3166,-1.3315,-1.3497,-1.3581,-1.3738,-1.3868,-1.3541,-1.3433,-1.3392,-1.3298,-1.3079,-1.2968,-1.3195,-1.3288,-1.3421,-1.3942,-1.3943,-1.3834,-1.3958,-1.3883,-1.3815,-1.3919,-1.4136,-1.4325,-1.4499,-1.4332,-1.4091,-1.383,-1.3493,-1.3173,-1.2994,-1.3124,-1.3208,-1.3251,-1.3488,-1.3602,-1.3602,-1.3602,-1.3602,-1.3602,-1.3602,-1.376,-1.4083,-1.4294,-1.4815,-1.5763,-1.5973,-1.64,-1.6978,-1.6978,-1.6978,-1.6978,-1.6978,-1.6944,-1.6876,-1.6727,0.0,0.0,-1.6279,-1.6164,-1.6083,-1.6083,-1.6083,-1.6083,-1.6083,-1.6083,-1.6083,0.0,0.0,0.0,0.0,0.0,-0.3056,-0.4182,-0.5181,-0.605,-0.6751,-0.793,-0.8921,-0.9562,-1.0385,-1.1035,-1.134,-1.1718,0.0,0.0,0.0,0.0,0.0,0.0,0.0,0.0,0.0,-1.2522,-1.2693,-1.2779,-1.28,0.0,0.0,-1.2632,-1.2569,0.0,0.0,0.0,0.0,0.0,0.0,0.0,0.0,0.0,0.0,0.0,0.0,0.0,0.0,0.0,0.0,0.0,-1.3376,-1.3592,-1.3892,-1.4062,-1.386,-1.3758,-1.3733,-1.3663,-1.3456,-1.3304,-1.3557,-1.3654,-1.3734,-1.4113,-1.4023,-1.3881,-1.3826,-1.3727,-1.3693,-1.3781,-1.3971,-1.4292,-1.4633,-1.4355,-1.4062,-1.3988,-1.3559,-1.315,-1.2923,-1.3096,-1.3186,-1.3186,-1.3461,-1.3602,-1.3602,-1.3602,-1.3655,-1.3813,-1.3819,-1.403,-1.4399,-1.4715,-1.5289,-1.6078,-1.6288,-1.6558,-1.6978,-1.6978,-1.6978,-1.6978,-1.6978,-1.6978,-1.6971,-1.6763,0.0,0.0,-1.6368,-1.6218,-1.6083,-1.6083,-1.6083,-1.6083,-1.6083,-1.6083,-1.6083,0.0,0.0,0.0,0.0,0.0,0.0,-0.3162,-0.3884,-0.4732,-0.5853,-0.6705,-0.7609,-0.8602,-0.9485,-1.0369,-1.1217,-1.1906,0.0,0.0,0.0,0.0,0.0,0.0,0.0,0.0,0.0,-1.2686,-1.2693,-1.2881,-1.3003,-1.2996,-1.28,-1.2693,-1.2679,0.0,0.0,0.0,0.0,0.0,0.0,0.0,0.0,-1.2501,0.0,0.0,0.0,0.0,0.0,0.0,0.0,0.0,0.0,0.0,-1.3512,-1.3682,-1.4069,-1.4285,-1.4317,-1.406,-1.3982,-1.3988,-1.3982,-1.417,-1.4356,-1.4208,-1.4143,-1.4027,-1.3829,-1.3607,-1.3492,-1.3741,-1.3802,-1.3998,-1.4599,-1.3988,-1.3574,-1.3927,-1.3266,-1.2748,-1.2873,-1.3096,-1.3186,-1.3186,-1.3461,-1.3602,-1.3602,-1.3602,-1.3813,-1.4346,-1.4399,-1.4399,-1.4399,-1.55,-1.6078,-1.6078,-1.6715,-1.6978,-1.6978,-1.6978,-1.6978,-1.6978,-1.6978,-1.6978,-1.6971,0.0,0.0,0.0,-1.6368,-1.6218,-1.6083,-1.6083,-1.6083,-1.6083,-1.6083,-1.6083,-1.6083,0.0,0.0,0.0,0.0,0.0,0.0,0.0,-0.2788,-0.3622,-0.458,-0.5676,-0.6755,-0.771,-0.8837,-0.9855,-1.0752,-1.1491,0.0,0.0,0.0,0.0,0.0,0.0,0.0,0.0,-1.2665,-1.2841,-1.3186,-1.3234,-1.3261,-1.3261,-1.3214,-1.3024,-1.2686,-1.2678,-1.2603,0.0,0.0,0.0,0.0,0.0,-1.2501,-1.2501,0.0,0.0,0.0,0.0,0.0,0.0,0.0,0.0,0.0,0.0,0.0,0.0,-1.3724,-1.3905,-1.4091,-1.4136,-1.3926,-1.3786,-1.4071,-1.4217,-1.4275,-1.4394,-1.4264,-1.4027,-1.3829,-1.3607,-1.3492,-1.3741,-1.3926,-1.4163,-1.4613,-1.4355,-1.4055,-1.3988,-1.3559,-1.3178,-1.3038,-1.3221,-1.3395,-1.3482,-1.3558,-1.3602,-1.3602,-1.3602,-1.3813,-1.4346,-1.4815,-1.5184,-1.5552,-1.592,-1.6288,-1.6715,-1.6873,-1.6978,-1.6978,-1.6978,-1.6978,-1.6978,-1.6978,-1.6978,0.0,0.0,0.0,0.0,-1.6466,-1.6368,-1.6225,-1.6123,-1.6083,-1.6083,-1.6083,-1.6083,-1.6083,0.0,0.0,0.0,0.0,0.0,0.0,0.0,-0.1859,-0.262,-0.332,-0.4376,-0.5464,-0.655,-0.7714,-0.8852,-1.0047,-1.0842,0.0,0.0,0.0,0.0,0.0,0.0,0.0,-1.2686,-1.2855,-1.3119,-1.3403,-1.3512,-1.3566,-1.3566,-1.3451,-1.3247,-1.2976,-1.2767,-1.2638,0.0,0.0,0.0,0.0,-1.2501,-1.2501,-1.2501,0.0,0.0,0.0,0.0,0.0,0.0,0.0,0.0,0.0,0.0,0.0,0.0,0.0,-1.3567,-1.3781,-1.4192,-1.4126,-1.3999,-1.429,-1.433,-1.4323,-1.4399,-1.4197,-1.3939,-1.3747,-1.3572,-1.3559,-1.3754,-1.4014,-1.4285,-1.4633,-1.4341,-1.4064,-1.3994,-1.3559,-1.3162,-1.3153,-1.3303,-1.3471,-1.3591,-1.3602,-1.3602,-1.3602,-1.3819,-1.413,-1.471,-1.5289,-1.5868,-1.6394,-1.6446,-1.661,-1.6978,-1.6978,-1.6978,-1.6978,-1.6978,-1.6978,-1.6978,-1.6978,-1.6978,0.0,0.0,0.0,0.0,-1.6594,-1.6524,-1.6374,-1.6225,-1.6171,-1.6157,-1.6103,-1.6083,-1.6083,0.0,0.0,0.0,0.0,0.0,0.0,0.0,-0.1077,-0.1704,-0.2154,-0.2915,-0.3909,-0.5234,-0.6229,-0.7462,-0.9114,0.0,0.0,0.0,0.0,0.0,0.0,0.0,0.0,-1.272,-1.318,-1.341,-1.3431,-1.3687,-1.3822,-1.3808,-1.3587,-1.3444,-1.3383,-1.2922,-1.272,0.0,0.0,0.0,0.0,-1.2515,-1.2515,0.0,0.0,0.0,0.0,0.0,0.0,0.0,0.0,0.0,0.0,0.0,0.0,0.0,0.0,0.0,0.0,0.0,-1.4455,-1.4516,-1.4613,-1.4545,-1.4462,-1.4319,-1.4011,0.0,-1.3632,-1.3592,-1.3639,-1.3802,-1.4116,-1.4414,-1.4674,-1.4094,-1.3703,-1.3958,-1.3294,-1.2868,-1.3159,-1.3305,-1.3477,-1.3591,-1.3602,-1.3602,-1.3655,-1.4135,-1.4657,-1.5336,-1.5815,-1.6394,-1.6978,-1.6978,-1.6978,-1.6978,-1.6978,-1.6978,-1.6978,-1.6978,-1.6978,-1.6978,-1.6978,-1.6978,0.0,0.0,0.0,0.0,-1.6702,-1.6615,-1.6524,-1.6381,-1.6327,-1.6307,-1.6164,-1.611,-1.611,0.0,0.0,0.0,0.0,0.0,0.0,0.0,0.0,0.0,0.0,-0.2126,-0.2977,-0.4028,-0.5159,-0.6396,0.0,0.0,0.0,0.0,0.0,0.0,0.0,0.0,0.0,-1.3064,-1.3288,-1.3512,-1.3693,-1.4041,-1.4129,-1.4021,-1.4068,-1.3844,-1.3397,-1.3288,-1.3051,0.0,0.0,0.0,0.0,-1.2591,-1.261,0.0,0.0,0.0,0.0,-1.2338,-1.2366,0.0,0.0,0.0,0.0,0.0,0.0,0.0,0.0,-1.3017,-1.3288,-1.358,0.0,-1.4183,-1.4217,-1.4292,-1.4312,0.0,-1.398,-1.3788,-1.3754,-1.366,-1.37,-1.4122,-1.434,-1.4597,-1.5011,-1.4428,-1.3994,-1.4214,-1.3574,-1.3127,-1.3305,-1.3488,-1.3569,-1.3602,-1.3602,-1.3766,-1.4188,-1.4346,-1.4815,-1.5868,-1.6026,-1.6394,-1.6978,-1.6978,-1.6978,-1.6978,-1.6978,-1.6978,-1.6978,-1.6978,-1.6978,-1.6978,-1.6978,-1.6978,0.0,0.0,0.0,-1.6917,-1.6743,-1.6675,-1.6628,-1.653,-1.6469,-1.6469,-1.6429,-1.6415,-1.6415,0.0,0.0,0.0,0.0,0.0,0.0,0.0,0.0,0.0,0.0,0.0,0.0,0.0,0.0,0.0,0.0,0.0,0.0,0.0,0.0,0.0,0.0,0.0,-1.248,-1.2881,-1.316,-1.3503,-1.3946,-1.4251,-1.4387,-1.438,-1.4326,-1.4089,-1.3695,-1.3349,-1.3064,0.0,0.0,0.0,-1.2712,-1.2725,0.0,0.0,0.0,0.0,0.0,-1.221,-1.2268,0.0,-1.2379,-1.2447,-1.2501,0.0,0.0,0.0,0.0,-1.2786,-1.3003,-1.3159,-1.3573,-1.398,-1.4098,-1.419,-1.4258,-1.4153,-1.4007,-1.3926,-1.3815,-1.3849,-1.4034,-1.434,-1.4631,-1.4831,-1.4905,-1.4475,-1.4048,-1.3799,-1.3491,-1.3295,-1.3412,-1.3531,-1.3602,-1.3602,-1.3813,-1.4083,-1.4399,-1.4868,-1.5447,-1.6078,-1.6341,-1.6663,-1.6978,-1.6978,-1.6978,-1.6978,-1.6978,-1.6978,-1.6978,-1.6978,-1.6978,-1.6978,-1.6978,-1.6978,0.0,0.0,0.0,-1.6971,-1.689,-1.6856,-1.6842,-1.6635,-1.6574,-1.6567,-1.6493,-1.6524,-1.6524,0.0,0.0,0.0,0.0,0.0,0.0,0.0,0.0,0.0,0.0,0.0,0.0,0.0,0.0,0.0,0.0,0.0,0.0,0.0,0.0,0.0,0.0,-1.1486,-1.192,-1.2332,-1.2851,-1.3435,-1.4015,-1.4294,-1.4547,-1.4687,-1.4482,-1.4251,-1.405,-1.337,-1.3057,-1.3023,-1.2854,-1.2861,-1.2989,-1.282,0.0,0.0,0.0,0.0,0.0,0.0,0.0,0.0,-1.2284,-1.2386,-1.2501,-1.2501,0.0,0.0,0.0,0.0,0.0,-1.2982,-1.341,-1.3835,-1.4034,-1.4204,-1.4299,-1.417,-1.4136,-1.4102,-1.3923,-1.417,-1.4428,-1.4611,-1.4911,-1.5053,-1.4786,-1.4458,-1.3966,-1.3243,-1.3298,-1.3428,-1.3444,-1.3542,-1.3607,-1.3713,-1.4135,-1.4452,-1.4663,-1.5552,-1.6131,-1.6236,-1.6715,-1.6978,-1.6978,-1.6978,-1.6978,-1.6978,-1.6978,-1.6978,-1.6978,-1.6978,-1.6978,-1.6978,-1.6978,-1.6978,-1.6978,0.0,0.0,-1.6978,-1.6978,-1.6978,-1.6971,-1.6784,-1.6736,-1.6716,-1.6639,-1.6592,-1.6592,0.0,0.0,0.0,0.0,0.0,0.0,0.0,0.0,0.0,0.0,0.0,0.0,0.0,0.0,0.0,0.0,0.0,0.0,0.0,0.0,0.0,-0.8643,-1.0349,-1.1435,-1.1741,-1.2404,-1.306,-1.3691,-1.4049,-1.4382,-1.4694,-1.4647,-1.4342,-1.3815,-1.3498,-1.3261,-1.318,-1.3152,-1.3091,-1.3003,-1.2975,0.0,0.0,0.0,0.0,0.0,0.0,0.0,0.0,-1.2244,-1.2386,-1.2501,-1.2501,0.0,0.0,0.0,0.0,0.0,-1.3064,-1.3485,-1.3835,-1.4034,-1.4278,-1.4475,-1.4448,-1.4441,-1.4434,-1.4414,-1.4505,-1.4748,-1.5201,-1.4944,-1.4825,-1.528,-1.464,-1.3871,-1.3398,-1.3401,-1.3461,-1.3564,-1.3591,-1.3766,-1.4241,-1.4346,-1.4821,-1.5763,-1.5973,-1.6341,-1.6821,-1.6926,-1.6978,-1.6978,-1.6978,-1.6978,-1.6978,-1.6978,-1.6978,-1.6978,-1.6978,-1.6978,-1.6978,-1.6978,-1.6978,-1.6978,0.0,-1.6978,-1.6978,-1.6978,-1.6978,-1.6978,-1.6951,-1.6944,-1.6944,-1.6917,-1.691,-1.691,0.0,0.0,0.0,0.0,0.0,0.0,0.0,0.0,0.0,0.0,0.0,0.0,0.0,0.0,0.0,0.0,0.0,0.0,0.0,-0.6848,-0.7308,-0.7352,-0.8529,-0.958,-1.0445,-1.152,-1.2349,-1.2999,-1.3881,-1.4432,-1.4672,-1.463,-1.4387,-1.3946,-1.3573,-1.3363,-1.3288,-1.3248,-1.3227,-1.3186,0.0,0.0,0.0,0.0,0.0,0.0,0.0,0.0,0.0,0.0,-1.2318,-1.2501,-1.2501,0.0,0.0,0.0,0.0,0.0,-1.3016,-1.3322,-1.361,-1.3746,-1.4013,-1.4153,-1.3958,-1.3931,-1.3911,-1.3988,-1.4173,-1.4409,-1.4677,-1.4654,-1.4614,-1.4688,-1.4134,-1.3616,-1.3412,-1.3477,-1.3542,-1.3597,-1.3871,-1.4135,-1.4399,-1.4973,-1.5552,-1.6078,-1.64,-1.6715,-1.6978,-1.6978,-1.6978,-1.6978,-1.6978,-1.6978,-1.6978,-1.6978,-1.6978,-1.6978,-1.6978,-1.6978,-1.6978,-1.6978,-1.6978,-1.6978,0.0,-1.6978,-1.6978,-1.6978,-1.6978,-1.6978,-1.6978,-1.6978,-1.6978,-1.6978,-1.6978,-1.6978,0.0,0.0,0.0,0.0,0.0,0.0,0.0,0.0,0.0,0.0,0.0,0.0,0.0,0.0,0.0,0.0,0.0,0.0,0.0,-0.5742,-0.6225,-0.6363,-0.6933,-0.7812,-0.907,-1.0356,-1.1352,-1.2074,-1.3321,-1.414,-1.4536,-1.4539,-1.4387,-1.4098,-1.3675,-1.3464,-1.3397,-1.3275,-1.3295,-1.3376,0.0,0.0,0.0,0.0,0.0,0.0,0.0,0.0,0.0,0.0,0.0,0.0,0.0,0.0,0.0,-1.2501,-1.2501,-1.2576,-1.2962,-1.3227,-1.3432,-1.3406,-1.3713,-1.3962,-1.3582,-1.3574,-1.36,-1.3709,-1.394,-1.4164,-1.4298,-1.4446,-1.4389,-1.394,-1.3644,-1.3466,-1.3466,-1.3548,-1.3602,-1.3602,-1.4083,-1.4452,-1.461,-1.55,-1.6183,-1.6288,-1.6715,-1.6978,-1.6978,-1.6978,-1.6978,-1.6978,-1.6978,-1.6978,-1.6978,-1.6978,-1.6978,-1.6978,-1.6978,-1.6978,-1.6978,-1.6978,-1.6978,-1.6978,-1.6978,-1.6978,-1.6978,-1.6978,-1.6978,-1.6978,-1.6978,-1.6978,-1.6978,-1.6978,-1.6978,-1.6978,0.0,0.0,0.0,0.0,0.0,0.0,0.0,0.0,0.0,0.0,0.0,0.0,0.0,0.0,0.0,0.0,0.0,0.0,0.0,-0.4739,-0.5005,-0.5383,-0.602,-0.6886,-0.7918,-0.8986,-0.9949,-1.0715,-1.1889,-1.3096,-1.4401,-1.4599,-1.4489,-1.4105,-1.3885,-1.3612,-1.3403,-1.339,-1.339,-1.3376,-1.3118,0.0,0.0,0.0,0.0,0.0,0.0,0.0,0.0,0.0,0.0,0.0,0.0,0.0,-1.2501,-1.2501,-1.2501,-1.2596,-1.3077,-1.3376,-1.3501,-1.3108,-1.3632,-1.4141,-1.3928,-1.3994,-1.4134,-1.414,-1.4352,-1.4577,-1.4716,-1.4544,-1.4214,-1.3532,-1.351,-1.3591,-1.3591,-1.3597,-1.3602,-1.3602,-1.4083,-1.4604,-1.5184,-1.5763,-1.6341,-1.6873,-1.6978,-1.6978,-1.6978,-1.6978,-1.6978,-1.6978,-1.6978,-1.6978,-1.6978,-1.6978,-1.6978,-1.6978,-1.6978,-1.6978,-1.6978,-1.6978,-1.6978,-1.6978,-1.6978,-1.6978,-1.6978,-1.6978,-1.6978,-1.6978,-1.6978,-1.6978,-1.6978,-1.6978,-1.6978,-1.6978,0.0,0.0,0.0,0.0,0.0,0.0,0.0,0.0,0.0,0.0,0.0,-0.0227,-0.0808,-0.1126,-0.1602,0.0,0.0,0.0,-0.4075,-0.4391,-0.4809,-0.5289,-0.5564,-0.5988,-0.6482,-0.7929,-0.9043,-0.9789,-1.1577,-1.2828,-1.3602,-1.3761,-1.3598,-1.3234,-1.3044,-1.2997,-1.2941,-1.2941,-1.3106,-1.3376,-1.3118,-1.3003,0.0,0.0,0.0,0.0,0.0,0.0,0.0,0.0,-1.2295,-1.2501,-1.2501,-1.2501,-1.2501,-1.2501,-1.2569,-1.2718,-1.3118,-1.3458,-1.3647,-1.32,-1.3555,-1.3798,-1.3291,-1.3291,-1.3411,-1.3565,-1.3729,-1.3893,-1.4018,-1.3962,-1.3802,-1.3595,-1.3575,-1.3602,-1.3602,-1.3602,-1.3708,-1.4083,-1.4604,-1.5184,-1.5763,-1.6341,-1.6768,-1.6978,-1.6978,-1.6978,-1.6978,-1.6978,-1.6978,-1.6978,-1.6978,-1.6978,-1.6978,-1.6978,-1.6978,-1.6978,-1.6978,-1.6978,-1.6978,-1.6978,-1.6978,-1.6978,-1.6978,-1.6978,-1.6978,-1.6978,-1.6978,-1.6978,-1.6978,-1.6978,-1.6978,-1.6978,-1.6978,-1.6978,0.0,0.0,0.0,0.0,0.0,0.0,0.0,0.0,0.0,0.0,0.0,0.0,0.0,-0.1205,-0.1643,0.0,0.0,0.0,-0.3813,-0.4148,-0.4597,-0.5262,-0.5341,-0.5511,-0.569,-0.6829,-0.7774,-0.8557,-1.067,-1.1919,-1.2371,-1.265,-1.2626,-1.229,-1.2113,-1.2174,-1.2339,-1.2461,-1.2775,-1.3169,-1.3037,-1.3003,0.0,0.0,0.0,0.0,0.0,0.0,0.0,0.0,-1.2268,-1.244,-1.2488,-1.2535,-1.2576,-1.2576,-1.2712,-1.2882,-1.301,-1.3363,-1.352,-1.3105,-1.328,-1.3487,-1.2952,-1.2912,-1.3053,-1.3254,-1.3395,-1.3504,-1.3591,-1.3602,-1.3602,-1.3602,-1.3602,-1.3602,-1.3602,-1.376,-1.3977,-1.4346,-1.5078,-1.571,-1.6078,-1.6663,-1.6978,-1.6978,-1.6978,-1.6978,-1.6978,-1.6978,-1.6978,-1.6978,-1.6978,-1.6978,-1.6978,-1.6978,-1.6978,-1.6978,-1.6978,-1.6978,-1.6978,-1.6978,-1.6978,-1.6978,-1.6978,-1.6978,-1.6978,-1.6978,-1.6978,-1.6978,-1.6978,-1.6978,-1.6978,-1.6978,-1.6978,-1.6978,0.0,0.0,0.0,0.0,0.0,0.0,0.0,0.0,0.0,0.0,-0.0335,0.0,0.0,0.0,0.0,0.0,-0.2514,0.0,-0.3729,-0.385,-0.4297,-0.5158,-0.5319,-0.5509,-0.569,-0.5711,-0.6087,-0.691,-0.8984,-1.0224,-1.0687,-1.1449,-1.1632,-1.1349,-1.1156,-1.1239,-1.1503,-1.1915,-1.2318,-1.2707,-1.2916,-1.3003,-1.2969,0.0,0.0,0.0,0.0,0.0,0.0,0.0,-1.22,-1.2318,-1.2454,-1.2603,-1.2693,-1.2693,-1.2942,-1.3125,-1.2784,-1.3007,-1.3173,-1.2642,-1.2839,-1.3211,-1.3139,-1.3156,-1.3224,-1.3343,-1.352,-1.3602,-1.3602,-1.3602,-1.3602,-1.3602,-1.3602,-1.3602,-1.3602,-1.4083,-1.4399,-1.4399,-1.5394,-1.6078,-1.6131,-1.6663,-1.6978,-1.6978,-1.6978,-1.6978,-1.6978,-1.6978,-1.6978,-1.6978,-1.6978,-1.6978,-1.6978,-1.6978,-1.6978,-1.6978,-1.6978,-1.6978,-1.6978,-1.6978,-1.6978,-1.6978,-1.6978,-1.6978,-1.6978,-1.6978,-1.6978,-1.6978,-1.6978,-1.6978,-1.6978,-1.6978,-1.6978,-1.6978,0.0,0.0,0.0,0.0,0.0,0.0,0.0,0.0,0.0,0.0,-0.0335,0.0,0.0,0.0,0.0,0.0,0.0,-0.2867,-0.3729,-0.3819,-0.4221,-0.5158,-0.5237,-0.536,-0.5624,-0.573,-0.611,-0.6839,-0.8185,-0.8908,-0.8946,-0.9469,-0.9532,-0.929,-0.9513,-0.9783,-1.0133,-1.0776,-1.1429,-1.2061,-1.2275,-1.2523,-1.2779,0.0,0.0,0.0,0.0,0.0,0.0,0.0,0.0,0.0,-1.2338,-1.2528,-1.2693,-1.2693,-1.3017,-1.3307,-1.305,-1.3329,-1.3602,-1.3046,-1.3214,-1.345,-1.3225,-1.3281,-1.3401,-1.3526,-1.358,-1.3602,-1.3602,-1.3602,-1.3602,-1.3602,-1.3602,-1.3602,-1.3602,-1.4083,-1.4557,-1.4973,-1.5657,-1.6288,-1.6715,-1.6873,-1.6978,-1.6978,-1.6978,-1.6978,-1.6978,-1.6978,-1.6978,-1.6978,-1.6978,-1.6978,-1.6978,-1.6978,-1.6978,-1.6978,-1.6978,-1.6978,-1.6978,-1.6978,-1.6978,-1.6978,-1.6978,-1.6978,-1.6978,-1.6978,-1.6978,-1.6978,-1.6978,-1.6978,-1.6978,-1.6978,-1.6978,-1.6978,0.0,0.0,0.0,0.0,0.0,0.0,0.0,0.0,0.0,0.0,-0.0483,-0.0936,0.0,0.0,0.0,-0.2453,-0.2496,-0.2852,-0.3729,-0.3807,-0.4205,-0.5156,-0.5226,-0.5352,-0.5635,-0.5749,-0.5993,-0.6365,-0.7293,-0.7656,-0.7534,-0.7989,-0.8117,-0.7939,-0.8082,-0.8473,-0.9047,-0.9594,-1.0388,-1.1353,-1.1534,-1.1865,-1.22,0.0,0.0,0.0,0.0,0.0,0.0,0.0,0.0,0.0,-1.2271,-1.2447,-1.2664,-1.2786,-1.3139,-1.3385,-1.2993,-1.3299,-1.3576,-1.299,-1.3104,-1.3391,-1.3371,-1.3439,-1.3515,-1.3591,-1.3602,-1.3602,-1.3602,-1.3602,-1.3602,-1.3602,-1.3602,-1.3655,-1.3866,-1.4393,-1.4973,-1.5552,-1.6131,-1.661,-1.6978,-1.6978,-1.6978,-1.6978,-1.6978,-1.6978,-1.6978,-1.6978,-1.6978,-1.6978,-1.6978,-1.6978,-1.6978,-1.6978,-1.6978,-1.6978,-1.6978,-1.6978,-1.6978,-1.6978,-1.6978,-1.6978,-1.6978,-1.6978,-1.6978,-1.6978,-1.6978,-1.6978,-1.6978,-1.6978,-1.6978,-1.6978,-1.6978,-1.6978,0.0,0.0,0.0,0.0,0.0,0.0,0.0,0.0,0.0,0.0,-0.0706,-0.1194,0.0,0.0,0.0,-0.2498,-0.2506,-0.2867,-0.372,-0.3805,-0.4205,-0.5156,-0.5278,-0.5465,-0.569,-0.5763,-0.5751,-0.5696,-0.6312,-0.6568,-0.6456,-0.6913,-0.7106,-0.7077,-0.6882,-0.7288,-0.8133,-0.8361,-0.9216,-1.0422,-1.0634,-1.0978,-1.1354,-1.1221,0.0,0.0,0.0,0.0,0.0,0.0,0.0,0.0,-1.2223,-1.2379,-1.2562,-1.2894,-1.3268,-1.3441,-1.2786,-1.2993,-1.3279,-1.2595,-1.2782,-1.3178,-1.3526,-1.3602,-1.3602,-1.3602,-1.3602,-1.3602,-1.3602,-1.3602,-1.3602,-1.3602,-1.3655,-1.3819,-1.4346,-1.4973,-1.5552,-1.6026,-1.661,-1.6978,-1.6978,-1.6978,-1.6978,-1.6978,-1.6978,-1.6978,-1.6978,-1.6978,-1.6978,-1.6978,-1.6978,-1.6978,-1.6978,-1.6978,-1.6978,-1.6978,-1.6978,-1.6978,-1.6978,-1.6978,-1.6978,-1.6978,-1.6978,-1.6978,-1.6978,-1.6978,-1.6978,-1.6978,-1.6978,-1.6978,-1.6978,-1.6978,-1.6978,-1.6978,0.0,0.0,0.0,0.0,0.0,0.0,0.0,0.0,0.0,0.0,-0.0706,-0.1194,-0.1209,-0.1909,0.0,-0.2431,-0.2455,-0.2858,-0.3676,-0.3786,-0.4205,-0.5156,-0.5395,-0.5591,-0.5693,-0.5722,-0.571,-0.5696,-0.5906,-0.5956,-0.5895,-0.5985,-0.6024,-0.6049,-0.6273,-0.644,-0.659,-0.7192,-0.794,-0.8823,-0.913,-0.9667,-1.0319,-1.0229,-1.0089,0.0,0.0,0.0,0.0,0.0,0.0,0.0,-1.2026,-1.2329,-1.2535,-1.2725,-1.3146,-1.3461,-1.2904,-1.3132,-1.3376,-1.2674,-1.2852,-1.327,-1.3542,-1.3602,-1.3602,-1.3602,-1.3602,-1.3602,-1.3602,-1.3602,-1.3602,-1.3602,-1.3977,-1.4294,-1.4399,-1.5289,-1.5973,-1.6078,-1.661,-1.6978,-1.6978,-1.6978,-1.6978,-1.6978,-1.6978,-1.6978,-1.6978,-1.6978,-1.6978,-1.6978,-1.6978,-1.6978,-1.6978,-1.6978,-1.6978,-1.6978,-1.6978,-1.6978,-1.6978,-1.6978,-1.6978,-1.6978,-1.6978,-1.6978,-1.6978,-1.6978,-1.6978,-1.6978,-1.6978,-1.6978,-1.6978,-1.6978,-1.6978,-1.6978,0.0,0.0,0.0,0.0,0.0,0.0,0.0,0.0,-0.0075,-0.0263,-0.0825,-0.1278,-0.1476,-0.2011,0.0,0.0,-0.2606,-0.3008,-0.366,-0.3916,-0.4389,-0.5196,-0.5465,-0.5591,-0.5649,-0.5638,-0.5654,-0.5654,-0.5714,-0.5744,-0.5696,-0.5726,-0.5724,-0.5691,-0.5866,-0.6033,-0.6099,-0.6389,-0.6938,-0.7687,-0.7837,-0.8267,-0.8798,-0.8731,-0.8621,-0.8605,-0.9023,0.0,0.0,0.0,0.0,0.0,0.0,0.0,-1.2332,-1.2556,-1.2996,-1.3338,-1.3046,-1.3167,-1.3286,-1.283,-1.2971,-1.3235,-1.3477,-1.3564,-1.3602,-1.3602,-1.3602,-1.3602,-1.3602,-1.3602,-1.3602,-1.3602,-1.403,-1.4505,-1.4815,-1.5552,-1.6183,-1.6505,-1.6821,-1.6978,-1.6978,-1.6978,-1.6978,-1.6978,-1.6978,-1.6978,-1.6978,-1.6978,-1.6978,-1.6978,-1.6978,-1.6978,-1.6978,-1.6978,-1.6978,-1.6978,-1.6978,-1.6978,-1.6978,-1.6978,-1.6978,-1.6978,-1.6978,-1.6978,-1.6978,-1.6978,-1.6978,-1.6978,-1.6978,-1.6978,-1.6978,-1.6978,-1.6978,-1.6978,0.0,0.0,0.0,0.0,0.0,0.0,0.0,0.0,0.0,-0.0566,-0.1019,-0.1434,-0.1774,-0.2103,-0.2338,0.0,0.0,0.0,-0.3748,-0.4201,-0.4697,-0.5283,-0.5401,-0.5531,-0.5588,-0.5588,-0.5588,-0.5588,-0.5649,-0.567,-0.5696,-0.5759,-0.5764,-0.5724,-0.5698,-0.5818,-0.5986,-0.5793,-0.6106,-0.6774,-0.6698,-0.6943,-0.7279,-0.7192,-0.7151,-0.7163,-0.7545,-0.8117,-0.8696,-0.9171,0.0,0.0,0.0,0.0,-1.2043,-1.2379,-1.2766,-1.3118,-1.3082,-1.3173,-1.322,-1.3056,-1.3138,-1.3273,-1.3385,-1.3499,-1.358,-1.3602,-1.3602,-1.3602,-1.3602,-1.3602,-1.3607,-1.3708,-1.4188,-1.4762,-1.5336,-1.592,-1.6446,-1.6926,-1.6978,-1.6978,-1.6978,-1.6978,-1.6978,-1.6978,-1.6978,-1.6978,-1.6978,-1.6978,-1.6978,-1.6978,-1.6978,-1.6978,-1.6978,-1.6978,-1.6978,-1.6978,-1.6978,-1.6978,-1.6978,-1.6978,-1.6978,-1.6978,-1.6978,-1.6978,-1.6978,-1.6978,-1.6978,-1.6978,-1.6978,-1.6978,-1.6978,-1.6978,-1.6978,-1.6978,0.0,0.0,0.0,0.0,0.0,0.0,0.0,0.0,0.0,0.0,-0.1267,-0.175,-0.1787,-0.2113,-0.2452,-0.2811,-0.2887,-0.3271,-0.4064,0.0,0.0,-0.5286,-0.536,-0.5425,-0.5528,-0.5531,-0.5531,-0.5531,-0.5588,-0.563,-0.5696,-0.5759,-0.581,-0.5848,-0.5734,-0.5706,-0.5666,-0.5441,-0.5584,-0.5866,-0.5876,-0.6118,-0.646,-0.6309,-0.6274,-0.6305,-0.68,-0.7199,-0.7624,-0.8431,-0.9168,0.0,0.0,0.0,-1.1519,-1.2154,-1.2542,-1.2795,-1.2913,-1.3129,-1.338,-1.3473,-1.3513,-1.3525,-1.3398,-1.3433,-1.3477,-1.358,-1.3602,-1.3602,-1.3602,-1.3602,-1.376,-1.4241,-1.4815,-1.5394,-1.592,-1.6505,-1.6926,-1.6978,-1.6978,-1.6978,-1.6978,-1.6978,-1.6978,-1.6978,-1.6978,-1.6978,-1.6978,-1.6978,-1.6978,-1.6978,-1.6978,-1.6978,-1.6978,-1.6978,-1.6978,-1.6978,-1.6978,-1.6978,-1.6978,-1.6978,-1.6978,-1.6978,-1.6978,-1.6978,-1.6978,-1.6978,-1.6978,-1.6978,-1.6978,-1.6978,-1.6978,-1.6978,-1.6978,-1.6978,0.0,0.0,0.0,0.0,0.0,0.0,0.0,0.0,0.0,0.0,0.0,-0.1895,-0.2118,-0.2397,-0.2653,-0.2811,-0.3245,-0.3819,-0.449,-0.4844,-0.5057,-0.5136,-0.5232,-0.5294,-0.5322,-0.5322,-0.5338,-0.5373,-0.5509,-0.5608,-0.5748,-0.5842,-0.5948,-0.597,-0.5872,-0.5788,-0.5643,-0.5498,-0.5429,-0.5402,-0.5414,-0.5546,-0.573,-0.5627,-0.56,-0.5631,-0.5984,-0.633,-0.6755,-0.7549,-0.8244,-0.8929,-0.9702,0.0,0.0,0.0,-1.2152,-1.2654,-1.2952,-1.3293,-1.3585,-1.3753,-1.3923,-1.4072,-1.4231,-1.4307,-1.4394,-1.4522,-1.4551,-1.4341,-1.3708,-1.3871,-1.4135,-1.4346,-1.5184,-1.5815,-1.6078,-1.661,-1.6978,-1.6978,-1.6978,-1.6978,-1.6978,-1.6978,-1.6978,-1.6978,-1.6978,-1.6978,-1.6978,-1.6978,-1.6978,-1.6978,-1.6978,-1.6978,-1.6978,-1.6978,-1.6978,-1.6978,-1.6978,-1.6978,-1.6978,-1.6978,-1.6978,-1.6978,-1.6978,-1.6978,-1.6978,-1.6978,-1.6978,-1.6978,-1.6978,-1.6978,-1.6978,-1.6978,-1.6978,-1.6978,0.0,0.0,0.0,0.0,0.0,0.0,0.0,0.0,0.0,0.0,0.0,-0.2071,-0.2478,0.0,0.0,0.0,-0.3653,-0.423,-0.4747,-0.4894,-0.495,-0.498,-0.5123,-0.518,-0.518,-0.518,-0.521,-0.527,-0.5392,-0.5575,-0.5767,-0.5965,-0.6052,-0.6079,-0.6049,-0.5918,-0.5756,-0.5621,-0.5465,-0.5273,-0.5273,-0.5308,-0.5357,-0.5327,-0.5316,-0.5344,-0.552,-0.5777,-0.6144,-0.663,-0.7322,-0.8076,-0.8758,-0.9619,0.0,0.0,0.0,-1.2592,-1.3,-1.3437,-1.3784,-1.3915,-1.42,-1.4521,-1.4808,-1.4941,-1.5087,-1.5252,-1.5283,-1.502,-1.4182,-1.4341,-1.4657,-1.4821,-1.5552,-1.6131,-1.6288,-1.6715,-1.6978,-1.6978,-1.6978,-1.6978,-1.6978,-1.6978,-1.6978,-1.6978,-1.6978,-1.6978,-1.6978,-1.6978,-1.6978,-1.6978,-1.6978,-1.6978,-1.6978,-1.6978,-1.6978,-1.6978,-1.6978,-1.6978,-1.6978,-1.6978,-1.6978,-1.6978,-1.6978,-1.6978,-1.6978,-1.6978,-1.6978,-1.6978,-1.6978,-1.6978,-1.6978,-1.6978,-1.6978,-1.6978,0.0,0.0,0.0,0.0,0.0,0.0,-0.1213,-0.1536,0.0,0.0,0.0,-0.2445,-0.2846,-0.2883,-0.3198,-0.3962,-0.3997,-0.423,-0.4747,-0.4818,-0.4866,-0.4977,-0.5082,0.0,-0.5117,-0.5117,-0.5145,-0.5207,-0.533,-0.5512,-0.5705,-0.5984,-0.6155,-0.6262,-0.6145,-0.6025,-0.5897,-0.5761,-0.5616,-0.5503,-0.5503,-0.5539,-0.5594,-0.5649,-0.5671,-0.5662,-0.5597,-0.5716,-0.5909,-0.582,-0.6467,-0.7396,-0.7767,-0.8607,-0.9656,0.0,0.0,0.0,-1.3078,-1.349,-1.3881,-1.4114,-1.4367,-1.4629,-1.4674,-1.48,-1.4971,-1.5228,-1.5283,-1.5283,-1.523,-1.523,-1.5441,-1.592,-1.6078,-1.6288,-1.6873,-1.6978,-1.6978,-1.6978,-1.6978,-1.6978,-1.6978,-1.6978,-1.6978,-1.6978,-1.6978,-1.6978,-1.6978,-1.6978,-1.6978,-1.6978,-1.6978,-1.6978,-1.6978,-1.6978,-1.6978,-1.6978,-1.6978,-1.6978,-1.6978,-1.6978,-1.6978,-1.6978,-1.6978,-1.6978,-1.6978,-1.6978,-1.6978,-1.6978,-1.6978,-1.6978,-1.6978,-1.6978,-1.6978,-1.6978,0.0,0.0,0.0,0.0,0.0,0.0,-0.1996,-0.2176,-0.2349,0.0,0.0,0.0,0.0,-0.3555,-0.3769,-0.4078,-0.4317,-0.4558,-0.4786,-0.4848,-0.4885,-0.4926,-0.506,-0.5093,-0.5055,-0.509,-0.5142,-0.5202,-0.5286,-0.5469,-0.5699,-0.5907,-0.6068,-0.6221,-0.6215,-0.6147,-0.6025,-0.5886,-0.5755,-0.5649,-0.5689,-0.5763,-0.5858,-0.5916,-0.5962,-0.5984,-0.5886,-0.5847,-0.5876,-0.5966,-0.6202,-0.6548,-0.7366,-0.7948,-0.8584,-0.9965,-1.0865,-1.1555,-1.1975,-1.26,-1.3291,-1.3751,-1.4376,-1.4951,-1.5388,-1.5581,-1.5747,-1.6126,-1.6204,-1.623,-1.638,-1.6078,-1.5868,-1.6078,-1.6394,-1.6768,-1.6978,-1.6978,-1.6978,-1.6978,-1.6978,-1.6978,-1.6978,-1.6978,-1.6978,-1.6978,-1.6978,-1.6978,-1.6978,-1.6978,-1.6978,-1.6978,-1.6978,-1.6978,-1.6978,-1.6978,-1.6978,-1.6978,-1.6978,-1.6978,-1.6978,-1.6978,-1.6978,-1.6978,-1.6978,-1.6978,-1.6978,-1.6978,-1.6978,-1.6978,-1.6978,-1.6978,-1.6978,-1.6978,-1.6978,-1.6978,0.0,-0.152,-0.1645,-0.2069,0.0,-0.24,-0.2682,-0.2822,-0.2999,-0.328,0.0,0.0,0.0,0.0,-0.4255,-0.4347,-0.4607,-0.4763,-0.4785,-0.488,-0.4907,-0.4926,-0.506,-0.5104,-0.5082,-0.5123,-0.5172,-0.5234,-0.5294,-0.5455,-0.5714,-0.5834,-0.5978,-0.6131,-0.6172,-0.6155,-0.609,-0.5995,-0.5861,-0.5794,-0.5918,-0.6036,-0.6175,-0.6273,-0.6346,-0.6387,-0.6289,-0.6164,-0.6061,-0.6127,-0.6147,-0.6248,-0.7009,-0.7611,-0.8275,-0.9404,-1.0113,-1.062,-1.1077,-1.1736,-1.2499,-1.3313,-1.4079,-1.4831,-1.5567,-1.5908,-1.6117,-1.6466,-1.6628,-1.673,-1.6883,-1.663,-1.64,-1.64,-1.6715,-1.6978,-1.6978,-1.6978,-1.6978,-1.6978,-1.6978,-1.6978,-1.6978,-1.6978,-1.6978,-1.6978,-1.6978,-1.6978,-1.6978,-1.6978,-1.6978,-1.6978,-1.6978,-1.6978,-1.6978,-1.6978,-1.6978,-1.6978,-1.6978,-1.6978,-1.6978,-1.6978,-1.6978,-1.6985,-1.7032,-1.7026,-1.6978,-1.6978,-1.6978,-1.6978,-1.6978,-1.7012,-1.7053,-1.7053,-1.7087,-1.7127,-0.1909,-0.2037,-0.2159,-0.2564,-0.2942,-0.3186,-0.315,-0.3463,-0.3747,-0.3824,0.0,0.0,0.0,0.0,0.0,-0.4874,-0.4907,-0.488,-0.4823,-0.4872,-0.4931,-0.4985,-0.5087,-0.5147,-0.5204,-0.521,-0.524,-0.5297,-0.5357,-0.5517,-0.5693,-0.5769,-0.5845,-0.6006,-0.6008,-0.6041,-0.609,-0.6036,-0.6016,-0.6033,-0.615,-0.6308,-0.6541,-0.667,-0.6777,-0.6823,-0.6763,-0.663,-0.6495,-0.625,-0.6325,-0.6525,-0.6716,-0.7647,-0.8672,-0.8872,-0.9299,-0.9834,0.0,0.0,0.0,-1.2824,-1.3506,-1.4107,-1.5114,-1.5622,-1.592,-1.6239,-1.6479,-1.6682,-1.6689,-1.6863,-1.6971,-1.6971,-1.6978,-1.6978,-1.6978,-1.6978,-1.6978,-1.6978,-1.6978,-1.6978,-1.6978,-1.6978,-1.6978,-1.6978,-1.6978,-1.6978,-1.6978,-1.6978,-1.6978,-1.6978,-1.6978,-1.6978,-1.6978,-1.6978,-1.6978,-1.6978,-1.6978,-1.6985,-1.6985,-1.6985,-1.6992,-1.7005,-1.7141,-1.7121,-1.6992,-1.6992,-1.6992,-1.6992,-1.6992,-1.708,-1.7202,-1.7202,-1.729,-1.7419,-0.2346,-0.2736,-0.3043,-0.3168,-0.351,-0.3766,-0.3754,-0.3864,-0.4059,0.0,0.0,0.0,-0.5077,-0.5082,-0.5075,-0.5094,-0.5128,-0.5123,-0.5104,-0.512,-0.5136,-0.5153,-0.5254,-0.5297,-0.527,-0.5354,-0.5387,-0.536,-0.5376,-0.5433,-0.5569,-0.569,-0.5741,-0.5775,-0.5861,-0.5957,-0.5973,-0.6003,-0.6087,-0.6215,-0.6387,-0.6521,-0.6739,-0.6921,-0.7055,-0.7139,-0.7125,-0.7027,-0.6993,0.0,-0.6894,-0.6421,-0.6332,-0.6853,-0.7524,-0.7447,-0.7747,-0.826,-0.8721,0.0,0.0,0.0,0.0,0.0,-1.4172,-1.4685,-1.5129,-1.5986,-1.6212,-1.6334,-1.6493,-1.6619,-1.6686,-1.6743,-1.691,-1.6978,-1.6978,-1.6978,-1.6978,-1.6978,-1.6978,-1.6978,-1.6978,-1.6978,-1.6978,-1.6978,-1.6978,-1.6978,-1.6978,-1.6978,-1.6978,-1.6978,-1.6978,-1.6978,-1.6978,-1.6978,-1.6978,-1.6978,-1.6978,-1.7032,-1.7134,-1.7134,-1.7195,-1.7304,-1.7338,-1.7331,-1.7297,-1.7297,-1.7297,-1.7297,-1.7297,-1.7324,-1.7358,-1.7358,-1.7385,-1.7419,-0.2892,-0.3218,-0.3503,-0.3734,-0.4129,-0.44,-0.4422,-0.4576,-0.4781,0.0,0.0,0.0,-0.5559,-0.5553,-0.5493,-0.5433,-0.5382,-0.533,-0.5281,-0.5254,-0.5251,-0.5278,-0.5346,-0.539,-0.5403,-0.5517,-0.5536,-0.55,-0.55,-0.5531,-0.5594,-0.5662,-0.5684,-0.5699,-0.5769,-0.5815,-0.5845,-0.5978,-0.6117,-0.6294,-0.6466,-0.6695,-0.6957,-0.7188,-0.7349,-0.7455,-0.7482,-0.7588,-0.7744,-0.7876,-0.7601,-0.7067,-0.6791,-0.6862,-0.6969,-0.6813,-0.6926,-0.7218,-0.7706,-0.8139,-0.8775,-1.0013,0.0,0.0,-1.3017,-1.3585,-1.403,-1.4896,-1.5417,-1.5758,-1.594,-1.6236,-1.6483,-1.6581,-1.6727,-1.6836,-1.6965,-1.6978,-1.6978,-1.6978,-1.6978,-1.6978,-1.6978,-1.6978,-1.6978,-1.6978,-1.6978,-1.6978,-1.6978,-1.6978,-1.7005,-1.7066,-1.7066,-1.71,-1.7161,-1.7161,-1.7161,-1.7161,-1.7161,-1.7209,-1.729,-1.729,-1.7338,-1.7426,-1.7433,-1.746,-1.7467,-1.7582,-1.7534,-1.7419,-1.7419,-1.7406,-1.746,-1.746,-1.7555,-1.7602,0.0,-0.3556,-0.3768,-0.4299,-0.4753,-0.5044,-0.51,-0.5415,-0.5668,0.0,-0.5766,-0.581,-0.597,-0.5929,-0.5821,-0.5761,-0.5684,-0.5602,-0.5442,-0.5371,-0.5354,-0.5401,-0.5412,-0.5509,-0.5621,-0.5624,-0.5624,-0.5624,-0.5616,-0.5638,-0.5684,-0.569,-0.5679,-0.5686,-0.5694,-0.5729,-0.5794,-0.5962,-0.6125,-0.6322,-0.6559,-0.6839,-0.7139,-0.7439,-0.763,-0.7741,-0.7809,-0.8187,-0.8647,-0.8474,-0.8355,-0.82,-0.7734,-0.7296,-0.6894,-0.6698,-0.6557,-0.6619,-0.7081,-0.7255,-0.7664,-0.9121,-0.9598,0.0,-1.1799,-1.2386,-1.2783,-1.3463,-1.4299,-1.4943,-1.5153,-1.5688,-1.6179,-1.632,-1.6412,-1.6585,-1.691,-1.6958,-1.6958,-1.6978,-1.6978,-1.6978,-1.6978,-1.6978,-1.6978,-1.6978,-1.6978,-1.6978,-1.6978,-1.6992,-1.706,-1.7188,-1.7209,-1.7283,-1.7419,-1.7419,-1.7419,-1.7419,-1.7419,-1.7433,-1.7446,-1.7446,-1.7453,-1.748,-1.7561,-1.7615,-1.7629,-1.7812,-1.7704,-1.7473,-1.7473,-1.7555,-1.7615,-1.7615,-1.7758,-1.7915,-0.3456,-0.3919,-0.4397,-0.4935,-0.5364,-0.5663,-0.5724,-0.5813,-0.5891,-0.5997,-0.615,-0.6275,-0.6398,-0.6303,-0.624,-0.618,-0.6022,-0.5875,-0.5752,-0.564,-0.5608,-0.5569,-0.5616,-0.5676,-0.5659,-0.5661,-0.5661,-0.5661,-0.5701,-0.5657,-0.5621,-0.5671,-0.5701,-0.5715,-0.5719,-0.5729,-0.5794,-0.5962,-0.6172,-0.6497,-0.6687,-0.6962,-0.7264,-0.7567,-0.7755,-0.7875,-0.7987,-0.8408,-0.8971,-0.9127,-0.9359,-0.9326,-0.7949,0.0,0.0,-0.6328,-0.6059,-0.6058,-0.6547,-0.6608,0.0,0.0,0.0,0.0,-1.033,-1.0982,-1.1695,-1.2894,-1.3258,-1.3579,-1.4213,-1.4769,-1.5224,-1.5361,-1.5834,-1.6313,-1.6682,-1.6743,-1.6842,-1.6965,-1.6978,-1.6978,-1.6978,-1.6978,-1.6978,-1.6978,-1.6978,-1.6978,-1.6978,-1.7087,-1.7161,-1.7195,-1.7311,-1.7392,-1.7419,-1.7419,-1.7419,-1.7419,-1.7419,-1.7487,-1.7548,-1.7548,-1.767,-1.7772,-1.7812,-1.7826,-1.7826,-1.7902,-1.7881,-1.7772,-1.7772,-1.7847,-1.7826,-1.7826,-1.7846,-1.7915,-0.4204,-0.4549,-0.4914,-0.5482,-0.5779,-0.5995,-0.6087,-0.6153,-0.6234,-0.6352,-0.6553,-0.6695,-0.6728,-0.6703,-0.6646,-0.6556,-0.6384,-0.617,-0.6066,-0.5916,-0.5804,-0.5744,-0.5741,-0.5769,-0.5786,-0.5786,-0.5772,-0.5742,-0.5755,-0.5709,-0.5651,-0.5711,-0.5741,-0.5744,-0.5837,-0.5848,-0.5935,-0.6115,-0.6313,-0.6529,-0.6766,-0.7076,-0.7433,-0.7698,-0.7916,-0.8085,-0.8203,-0.8742,-0.9605,-1.0299,-1.0371,0.0,0.0,-0.8126,-0.7374,0.0,-0.6412,-0.6135,-0.6307,0.0,0.0,-0.7128,0.0,0.0,0.0,-0.9427,-0.994,-1.1063,-1.1517,-1.1995,-1.2938,-1.3549,-1.416,-1.478,-1.5221,-1.5664,-1.6209,-1.6497,-1.6666,-1.6741,-1.6754,-1.6754,-1.6754,-1.6822,-1.6897,-1.6978,-1.6978,-1.7012,-1.708,-1.7154,-1.7263,-1.7412,-1.744,-1.7568,-1.7636,-1.7636,-1.7636,-1.7636,-1.7636,-1.7684,-1.7758,-1.7758,-1.7792,-1.7915,-1.7915,-1.7915,-1.7915,-1.7915,-1.7915,-1.7915,-1.7915,-1.7915,-1.7915,-1.7915,-1.7915,-1.7915,-0.4949,-0.5132,-0.5289,-0.5915,-0.6076,-0.6155,-0.6278,-0.6401,-0.6545,-0.6733,-0.6959,-0.7112,-0.7134,-0.7125,-0.7068,-0.6951,-0.6721,-0.6589,-0.6395,-0.6215,-0.6079,-0.5995,-0.5932,-0.5918,-0.5957,-0.5946,-0.587,-0.5821,-0.581,-0.5778,-0.5732,-0.578,-0.581,-0.5826,-0.5981,-0.6044,-0.6079,-0.6308,-0.6488,-0.6589,-0.688,-0.7202,-0.7508,-0.7804,-0.8041,-0.8315,-0.859,-0.9289,-1.0224,-1.1349,-1.1287,-1.0557,-1.0109,-0.9135,0.0,0.0,0.0,0.0,0.0,0.0,0.0,0.0,0.0,-0.6936,0.0,0.0,0.0,-0.9166,-0.9677,-1.0305,-1.146,-1.222,-1.3034,-1.4023,-1.4466,-1.4951,-1.5555,-1.5954,-1.628,-1.6418,-1.6503,-1.6524,-1.6524,-1.6581,-1.6716,-1.6924,-1.6937,-1.7012,-1.7182,-1.7222,-1.7365,-1.7595,-1.7629,-1.7738,-1.7915,-1.7915,-1.7915,-1.7915,-1.7915,-1.7915,-1.7915,-1.7915,-1.7915,-1.7915,-1.7915,-1.7915,-1.7915,-1.7915,-1.7915,-1.7915,-1.7915,-1.7915,-1.7915,-1.7915,-1.7915,-1.7915,-0.5141,-0.5168,-0.5389,-0.5974,-0.6139,-0.6218,-0.639,-0.6463,-0.6698,-0.7139,-0.7357,-0.7518,-0.7621,-0.7586,-0.7451,-0.7327,-0.721,-0.7006,-0.6771,-0.6537,-0.6364,-0.6245,-0.618,-0.6125,-0.6079,-0.603,-0.6,-0.5992,-0.5937,-0.5861,-0.5856,-0.5864,-0.594,-0.5995,-0.606,-0.6147,-0.6262,-0.6402,-0.661,-0.6888,-0.7125,-0.7349,-0.7508,-0.7804,-0.8041,-0.8452,-0.9733,-1.0227,-1.0446,0.0,-1.1804,-1.1391,0.0,-1.0041,-0.9568,0.0,0.0,0.0,0.0,0.0,0.0,0.0,-0.6687,0.0,0.0,0.0,-0.765,-0.8225,0.0,-0.88,-0.9844,0.0,0.0,-1.2229,-1.3258,-1.4189,-1.4734,-1.4993,-1.5394,-1.6236,-1.6442,-1.6524,-1.6524,-1.6486,-1.656,-1.6709,-1.6723,-1.6844,-1.7175,-1.7317,-1.7473,-1.7595,-1.7772,-1.7902,-1.7915,-1.7915,-1.7915,-1.7915,-1.7915,-1.7915,-1.7915,-1.7915,-1.7915,-1.7915,-1.7915,-1.7915,-1.7915,-1.7915,-1.7915,-1.7915,-1.7915,-1.7915,-1.7915,-1.7915,-1.7915,-1.7915,-0.5582,-0.5598,-0.5737,-0.6075,-0.6229,-0.6346,-0.6502,-0.6783,-0.7124,-0.7482,-0.7747,-0.7924,-0.7973,-0.8392,-0.8603,-0.8378,-0.8634,-0.8714,-0.8438,-0.7855,-0.7417,-0.7222,-0.6721,-0.6403,-0.6311,-0.6251,-0.6169,-0.6063,-0.6036,-0.5989,-0.5924,-0.5992,-0.6057,-0.6123,-0.6289,-0.6428,-0.6551,-0.6733,-0.6929,-0.7134,-0.7343,-0.7572,-0.7809,-0.7951,-0.8401,-0.9151,-1.013,-1.0737,-1.1131,0.0,-1.2078,0.0,0.0,0.0,0.0,0.0,0.0,0.0,0.0,0.0,0.0,0.0,0.0,0.0,0.0,0.0,-0.6773,0.0,0.0,0.0,0.0,0.0,0.0,0.0,-1.2069,-1.2987,-1.3457,-1.3836,-1.4552,-1.5768,-1.5925,-1.6026,-1.6246,-1.6266,-1.6402,-1.6675,-1.6696,-1.6865,-1.7304,-1.7385,-1.7528,-1.7772,-1.7881,-1.7915,-1.7915,-1.7915,-1.7915,-1.7915,-1.7915,-1.7915,-1.7915,-1.7915,-1.7915,-1.7915,-1.7915,-1.7915,-1.7915,-1.7915,-1.797,-1.8002,-1.8002,-1.799,-1.7915,-1.7915,-1.7915,-1.7915,-0.5935,-0.5948,-0.5997,-0.6161,-0.6289,-0.6458,-0.6719,-0.711,-0.7492,-0.7782,-0.8252,-0.859,-0.8655,-0.9673,-1.0202,-1.0024,-1.0578,-1.0787,-1.0467,-0.9527,-0.8853,-0.8686,-0.7643,-0.6984,-0.6894,-0.6608,-0.6379,-0.6196,-0.618,-0.612,-0.6022,-0.6106,-0.6188,-0.6273,-0.6448,-0.6624,-0.6815,-0.7027,-0.7224,-0.7406,-0.7586,-0.7853,-0.8139,-0.8183,-0.8765,-0.9648,-1.0364,-1.1168,-1.1965,-1.251,-1.2749,0.0,-1.2437,0.0,0.0,0.0,0.0,0.0,-0.8803,0.0,0.0,0.0,0.0,0.0,0.0,0.0,0.0,0.0,0.0,0.0,0.0,0.0,-0.8923,-0.9759,0.0,-1.1569,-1.2034,-1.2656,-1.3594,-1.5077,-1.543,-1.5662,-1.5879,-1.5967,-1.6191,-1.6547,-1.6615,-1.6851,-1.7392,-1.7419,-1.7555,-1.7902,-1.7915,-1.7915,-1.7915,-1.7915,-1.7915,-1.7915,-1.7915,-1.7915,-1.7915,-1.7915,-1.7936,-1.7935,-1.7935,-1.8004,-1.7989,-1.7989,-1.8057,-1.8158,-1.8158,-1.8091,-1.7989,-1.7989,-1.7989,-1.7989,-0.6,-0.6011,-0.6049,-0.6166,-0.6289,-0.6529,-0.7006,-0.7335,-0.7665,-0.8022,-0.8921,-0.9638,-0.9906,-1.144,-1.2352,-1.2192,-1.2833,-1.3041,-1.2608,-1.1532,-1.0824,-1.0626,-0.905,-0.8066,-0.7865,-0.7094,-0.663,-0.65,-0.644,-0.6379,-0.6267,-0.6273,-0.6387,-0.6511,-0.664,-0.6823,-0.7014,-0.7251,-0.7478,-0.7714,-0.7894,-0.8188,-0.851,-0.851,-0.8977,-0.9653,-1.038,0.0,0.0,-1.3407,-1.3976,0.0,0.0,0.0,0.0,0.0,0.0,0.0,0.0,0.0,0.0,-0.8067,0.0,0.0,0.0,0.0,-0.6273,0.0,0.0,0.0,0.0,0.0,0.0,-0.8231,-0.919,0.0,0.0,-1.1382,-1.2552,-1.4136,-1.4959,-1.5418,-1.5432,-1.5738,-1.6037,-1.63,-1.6449,-1.6788,-1.7392,-1.7419,-1.7555,-1.7902,-1.7915,-1.7915,-1.7915,-1.7915,-1.7915,-1.7915,-1.7915,-1.7915,-1.7915,-1.7915,-1.7948,-1.8091,-1.8091,-1.8165,-1.8301,-1.8301,-1.8301,-1.8265,-1.8265,-1.8301,-1.8301,-1.8301,-1.8301,-1.8301,-0.6125,-0.6194,-0.6262,-0.6303,-0.6442,-0.6722,-0.7245,-0.7997,-0.8645,-0.9035,-1.049,-1.157,-1.1881,-1.3387,-1.4584,-1.5049,-1.5575,-1.5761,-1.534,-1.4346,-1.3299,-1.2447,0.0,-0.9798,0.0,-0.8258,-0.75,-0.7308,-0.678,-0.6474,-0.639,-0.6431,-0.6444,-0.6531,-0.6749,-0.6992,-0.7251,-0.751,-0.7747,-0.8041,-0.8745,-0.945,-1.0058,-0.9516,-0.9789,-1.0526,-1.1738,-1.274,0.0,-1.4209,-1.4575,-1.4665,-1.4527,-1.4455,-1.4305,-1.3909,-1.3297,0.0,0.0,0.0,-0.978,-0.9202,0.0,0.0,0.0,0.0,0.0,0.0,0.0,0.0,0.0,0.0,-0.7285,-0.738,-0.8141,-0.8732,0.0,-0.9921,-1.1085,-1.2305,-1.3636,-1.4579,-1.4763,-1.5247,-1.5771,-1.6273,-1.6442,-1.6781,-1.7392,-1.7419,-1.7555,-1.7902,-1.7915,-1.7915,-1.7915,-1.7968,-1.8023,-1.8023,-1.8111,-1.8158,-1.8158,-1.8158,-1.8199,-1.8247,-1.8247,-1.8267,-1.8321,-1.8321,-1.8375,-1.8407,-1.8407,-1.8511,-1.8586,-1.8389,-1.8321,-1.8321,-0.6286,-0.6584,-0.6713,-0.6489,-0.6862,-0.7425,-0.8112,-0.9111,-0.9995,-1.0496,-1.2439,-1.3945,-1.4356,-1.6102,-1.7525,-1.7969,-1.8484,-1.8688,-1.829,-1.6946,0.0,-1.4946,-1.2977,0.0,0.0,-0.9693,-0.8668,-0.7886,-0.7323,-0.6859,-0.6496,-0.6496,-0.6537,-0.6572,-0.6842,-0.7104,-0.7464,-0.7987,-0.8394,-0.874,-0.9995,-1.1003,-1.1771,0.0,-1.1574,-1.1792,0.0,-1.3797,-1.48,-1.5533,-1.5888,-1.6023,-1.6146,-1.6159,-1.614,-1.5988,-1.5438,-1.4798,-1.4351,-1.3146,0.0,-1.0646,-0.9505,0.0,-0.7433,0.0,0.0,0.0,0.0,0.0,0.0,0.0,0.0,-0.6731,-0.7215,-0.7653,0.0,-0.8898,-0.9798,-1.0604,-1.248,-1.384,-1.4301,-1.4925,-1.556,-1.6103,-1.6334,-1.6686,-1.7236,-1.7365,-1.7534,-1.7772,-1.7846,-1.7915,-1.7915,-1.8023,-1.8091,-1.8091,-1.8247,-1.8321,-1.8321,-1.8321,-1.8355,-1.8389,-1.8389,-1.8423,-1.8477,-1.8477,-1.8531,-1.862,-1.862,-1.8674,-1.8742,-1.8552,-1.8477,-1.8477,-0.6584,-0.7151,-0.7442,-0.6926,-0.7638,-0.8635,-0.9657,-1.0713,-1.1665,-1.2419,-1.4759,-1.6632,-1.7164,-1.9381,-2.0897,-2.0961,-2.1406,-2.1596,-2.1307,-1.94,0.0,0.0,-1.542,-1.3563,-1.2576,-1.1431,-1.0037,-0.8413,-0.8029,-0.7447,-0.6733,-0.6564,-0.6567,-0.6736,-0.6918,-0.7166,-0.7469,-0.8631,-0.9376,-0.9931,-1.17,-1.282,-1.3587,-1.4443,-1.4226,-1.3458,-1.3446,-1.4679,-1.656,-1.7302,-1.7813,-1.827,-1.8929,-1.9041,-1.8996,-1.8996,-1.8432,-1.7679,-1.7034,-1.5638,-1.4048,-1.2452,0.0,0.0,0.0,0.0,-0.7046,0.0,0.0,0.0,0.0,0.0,0.0,-0.6267,-0.6421,0.0,-0.7691,-0.8246,-0.8737,-0.9219,-1.1452,-1.3249,-1.3847,-1.4673,-1.5357,-1.5847,-1.6123,-1.6497,-1.6944,-1.7243,-1.7473,-1.7595,-1.7772,-1.786,-1.7915,-1.8023,-1.8111,-1.8111,-1.8267,-1.8335,-1.8335,-1.8335,-1.8409,-1.8488,-1.8488,-1.862,-1.882,-1.882,-1.882,-1.882,-1.882,-1.882,-1.882,-1.882,-1.882,-1.882,-0.8104,-0.8903,-0.9918,-1.1008,-1.0499,-1.0272,-1.1442,-1.2512,-1.3717,-1.4972,-1.7004,-1.8696,-1.9735,-2.1235,-2.2335,-2.2773,-2.2926,-2.2869,-2.2561,0.0,0.0,-1.998,-1.8474,-1.7037,-1.5811,-1.3741,0.0,-1.0107,-0.882,-0.7727,-0.6858,-0.6686,-0.6645,-0.6736,-0.6918,-0.7166,-0.7474,-0.8615,-1.0302,-1.2436,-1.4057,-1.5207,-1.5981,0.0,-1.7229,-1.7443,-1.6797,-1.7177,-1.8179,-1.8925,-1.9144,-1.9146,-1.9347,-1.9322,-1.9182,-1.9084,-1.8904,-1.8724,-1.8492,-1.7286,-1.5743,-1.4221,-1.2594,-1.1064,0.0,0.0,0.0,0.0,0.0,0.0,0.0,0.0,0.0,0.0,0.0,0.0,0.0,0.0,0.0,-0.8697,-1.0273,-1.1721,-1.2701,-1.383,-1.4785,-1.5499,-1.5906,-1.6341,-1.684,0.0,-1.7263,-1.7575,-1.7629,-1.7758,-1.7915,-1.8124,-1.8267,-1.8267,-1.8531,-1.8654,-1.8654,-1.8654,-1.8674,-1.8708,-1.8708,-1.8728,-1.882,-1.882,-1.882,-1.882,-1.882,-1.882,-1.882,-1.882,-1.882,-1.882,-0.9697,-1.0655,-1.2016,-1.3976,-1.3801,-1.348,-1.3934,-1.5185,-1.6518,-1.7636,-1.9522,-2.1027,-2.1817,-2.2981,-2.3906,-2.4222,-2.4157,-2.4095,-2.3921,0.0,0.0,-2.1622,-2.0495,-1.9231,-1.797,-1.593,0.0,-1.1831,-1.0106,-0.8569,-0.7365,-0.6943,-0.6766,-0.6774,-0.6929,-0.7166,-0.7541,-0.9444,-1.1916,-1.4688,-1.5992,-1.723,0.0,-1.8724,-1.9348,-1.9884,-1.9398,-1.9223,-1.9327,-2.0078,-2.0144,-2.0049,-2.0391,-2.0362,-2.0227,-2.0144,-2.0131,-2.0046,-1.9706,-1.8921,-1.7801,-1.5981,-1.4589,-1.3201,-1.1584,-1.0835,-1.0419,0.0,0.0,0.0,0.0,0.0,0.0,0.0,0.0,0.0,0.0,0.0,0.0,0.0,-0.966,-1.0825,-1.2044,-1.3325,-1.4382,-1.5147,-1.5574,-1.5954,-1.6391,0.0,-1.7053,-1.7439,-1.7527,-1.7703,-1.7968,-1.8199,-1.8355,-1.8409,-1.8654,-1.882,-1.882,-1.882,-1.882,-1.882,-1.882,-1.882,-1.882,-1.882,-1.882,-1.882,-1.882,-1.882,-1.882,-1.882,-1.882,-1.882,-1.1583,-1.2673,-1.4171,-1.6356,-1.718,-1.744,-1.7051,-1.8303,-1.9472,-2.0185,-2.1898,-2.3169,-2.3593,-2.4545,-2.5267,-2.5267,-2.5159,-2.5091,-2.507,-2.4053,-2.3326,-2.3053,-2.1959,-2.0823,-1.9599,-1.8076,0.0,0.0,-1.1478,-0.9647,-0.7996,-0.7188,-0.6828,-0.6834,-0.6957,-0.737,-0.8101,-1.0896,-1.3841,-1.6654,-1.7693,-1.8961,-2.0255,-2.033,-2.0809,-2.1362,-2.1362,-2.0871,-2.0276,-2.0981,-2.1005,-2.0913,-2.1498,-2.1597,-2.1455,-2.1441,-2.1375,-2.1236,-2.0705,-2.0349,-1.976,-1.7731,-1.6544,-1.5438,-1.3916,-1.2864,-1.2185,-1.2017,-1.1734,-1.1257,0.0,0.0,0.0,0.0,0.0,0.0,0.0,0.0,0.0,0.0,0.0,0.0,-1.1794,-1.297,-1.3984,-1.4862,-1.5174,-1.5493,-1.586,0.0,-1.6784,-1.7154,-1.7406,-1.7758,-1.8057,0.0,-1.8389,-1.8474,-1.8694,-1.882,-1.882,-1.882,-1.882,-1.882,-1.882,-1.882,-1.882,-1.882,-1.8841,-1.8854,-1.8854,-1.8854,-1.8875,-1.8875,-1.8875,-1.8875,-1.4936,-1.6206,-1.7377,-1.8635,-1.9916,-2.0822,-2.1123,-2.0735,-2.0926,-2.2147,-2.2916,-2.3689,-2.4599,-2.5155,-2.543,-2.543,-2.5518,0.0,0.0,0.0,0.0,-2.4491,-2.3782,-2.2822,-2.1719,-1.9638,-1.7252,0.0,-1.2028,-0.9858,-0.8244,-0.7328,-0.6894,-0.6899,-0.7022,-0.8385,-1.078,-1.3244,-1.5471,-1.7595,-1.958,-2.0676,-2.1079,-2.1646,-2.1985,-2.2129,-2.2129,-2.204,-2.1882,-2.202,-2.1968,-2.1814,-2.1882,-2.174,-2.1597,-2.1475,-2.1375,-2.1375,-2.1236,-2.0824,-2.011,-1.9036,-1.823,-1.7179,-1.5508,-1.4989,-1.4593,-1.3617,-1.3238,-1.2964,-1.2472,0.0,0.0,0.0,0.0,0.0,0.0,0.0,0.0,0.0,0.0,-1.134,-1.1849,-1.2491,-1.3337,-1.4363,-1.4808,-1.5228,-1.5655,0.0,-1.6585,0.0,-1.7304,0.0,0.0,0.0,-1.8389,-1.8474,-1.8694,-1.882,-1.882,-1.882,-1.882,-1.882,-1.882,-1.882,-1.882,-1.882,-1.8888,-1.8952,-1.8952,-1.9027,-1.9128,-1.9128,-1.9128,-1.9094,-1.75,-1.8308,-1.914,-2.0294,-2.131,-2.2245,-2.3041,-2.307,-2.3124,-2.3704,-2.4103,-2.4505,-2.5027,-2.5389,-2.5586,-2.5586,-2.5654,-2.5654,-2.5586,-2.5376,-2.5179,-2.5023,-2.4596,0.0,-2.3187,-2.0962,-1.8809,-1.6787,-1.3639,-1.1156,-0.9361,-0.8092,-0.7524,-0.75,-0.8504,-0.9927,-1.1866,-1.4398,-1.6467,-1.8269,-2.0251,-2.1314,-2.184,-2.2129,-2.2268,-2.2268,-2.2268,-2.2268,-2.2323,-2.2249,-2.216,-2.2079,-2.1937,-2.1828,-2.176,-2.1686,-2.1618,-2.1564,-2.1564,-2.1236,-2.0758,-2.0025,-1.9487,-1.8838,-1.7543,-1.7185,-1.6929,-1.6186,-1.5806,-1.5217,-1.3937,-1.2688,0.0,0.0,0.0,0.0,0.0,0.0,0.0,0.0,0.0,0.0,0.0,-1.2613,-1.3122,-1.4113,0.0,0.0,0.0,0.0,-1.6205,0.0,0.0,0.0,0.0,0.0,0.0,-1.8654,-1.8728,-1.882,-1.882,-1.882,-1.882,-1.882,-1.882,-1.8816,-1.8884,-1.8959,-1.9027,-1.9094,-1.9094,-1.9149,-1.9203,-1.9203,-1.9203,-1.9183,-1.959,-2.0138,-2.0713,-2.1751,-2.2474,-2.3172,-2.4168,-2.4826,-2.5091,-2.4758,-2.5036,-2.5287,-2.5321,-2.5552,-2.5708,-2.5728,-2.5742,-2.5742,-2.5742,-2.5606,-2.5464,-2.5335,-2.5023,-2.467,-2.4277,-2.2151,-2.0327,0.0,-1.5272,-1.2596,-1.0677,-0.9111,-0.8479,-0.8625,-1.036,-1.1779,0.0,0.0,-1.7468,-1.921,-2.0655,-2.1671,-2.2391,-2.2391,-2.2391,-2.2391,-2.2391,-2.2357,-2.2254,-2.216,-2.2127,-2.2127,-2.1991,-2.1937,-2.1916,-2.1903,-2.1781,-2.1672,-2.1672,-2.1564,-2.1236,-2.0705,-2.0554,-2.0232,-1.9347,-1.9,-1.8746,-1.823,-1.7739,-1.6881,-1.5236,-1.4181,0.0,0.0,0.0,0.0,0.0,0.0,0.0,0.0,0.0,0.0,-1.3131,0.0,0.0,0.0,0.0,0.0,-1.4989,0.0,0.0,0.0,0.0,-1.7467,-1.8036,0.0,-1.8464,0.0,-1.882,-1.882,-1.882,-1.8854,-1.8816,-1.8816,-1.885,-1.8918,-1.904,-1.9149,-1.9217,-1.9257,-1.9257,-1.9271,-1.9305,-1.9305,-1.9305,-1.9305,-2.1134,-2.2058,-2.2929,-2.3176,-2.3904,-2.4486,-2.488,-2.5443,-2.5654,-2.5233,-2.5321,-2.5498,-2.564,-2.5674,-2.5742,-2.5864,-2.5884,-2.5884,-2.5884,-2.5742,-2.5654,-2.5654,-2.5233,-2.4914,-2.4738,-2.3111,-2.1227,0.0,0.0,-1.3808,-1.1697,-1.0132,-0.9758,-1.0537,-1.2085,-1.378,0.0,-1.7316,-1.9061,-2.0842,-2.1689,-2.222,-2.2534,-2.2534,-2.2534,-2.2534,-2.2534,-2.2445,-2.2254,-2.216,-2.2201,-2.2289,-2.2147,-2.2093,-2.2059,-2.1916,-2.1781,-2.1672,-2.1672,-2.1564,-2.1375,-2.1302,-2.1302,-2.1016,-2.0084,-1.9863,-1.9497,-1.8329,-1.7599,-1.7043,-1.6649,-1.5309,-1.4211,0.0,0.0,0.0,0.0,0.0,0.0,-1.3448,0.0,0.0,0.0,-1.3555,0.0,0.0,-1.4132,-1.4397,-1.4983,0.0,0.0,-1.6313,0.0,-1.7412,-1.7936,-1.8179,-1.8464,-1.882,-1.882,-1.882,-1.882,-1.8905,-1.8972,-1.8972,-1.9094,-1.9169,-1.9183,-1.9203,-1.9291,-1.9353,-1.9353,-1.9501,-1.9624,-1.9624,-1.9624,-1.9624,-2.2603,-2.325,-2.3734,-2.4066,-2.4507,-2.4969,-2.5355,-2.5776,-2.6006,-2.5918,-2.5884,-2.585,-2.5817,-2.5817,-2.583,-2.5905,-2.5905,-2.5905,-2.5905,-2.585,-2.5817,-2.5817,-2.5566,-2.5301,-2.5057,-2.3591,-2.2309,0.0,0.0,0.0,-1.4308,-1.2635,-1.225,-1.3084,-1.4578,-1.6083,-1.7499,-1.9147,-2.0366,-2.1222,-2.2054,-2.25,-2.2696,-2.2696,-2.2642,-2.2624,-2.2624,-2.2466,-2.2323,-2.2269,-2.2289,-2.2303,-2.216,-2.2181,-2.2235,-2.2181,-2.1991,-2.1794,-2.1794,-2.1618,-2.1375,-2.1375,-2.1375,-2.1235,-2.0736,-2.0597,-2.0373,-1.9469,-1.8782,-1.8196,-1.7568,-1.685,-1.6115,0.0,0.0,0.0,0.0,0.0,0.0,0.0,0.0,-1.416,0.0,0.0,0.0,0.0,0.0,-1.4434,-1.4989,0.0,0.0,-1.6422,0.0,-1.7548,-1.8002,-1.8301,-1.8552,-1.882,-1.8909,-1.8905,-1.8905,-1.9047,-1.9115,-1.9128,-1.9271,-1.9345,-1.9345,-1.9434,-1.9522,-1.9569,-1.9569,-1.961,-1.9725,-1.9725,-1.9725,-1.9657,-2.3816,-2.4087,-2.4331,-2.4704,-2.5023,-2.5355,-2.5762,-2.604,-2.6257,-2.6482,-2.6291,-2.6149,-2.5993,-2.5939,-2.5905,-2.5905,-2.5905,-2.5905,-2.5905,-2.5905,-2.5905,-2.5905,-2.5762,0.0,-2.5376,-2.4242,-2.3251,-2.2472,-1.9952,0.0,-1.688,-1.5546,-1.5198,-1.5889,-1.7141,-1.8279,-1.9352,-2.0536,-2.1334,-2.1784,-2.2441,-2.271,-2.2852,-2.2852,-2.2744,-2.2692,-2.2692,-2.25,-2.2268,-2.2268,-2.2268,-2.2254,-2.2215,-2.2249,-2.2268,-2.2268,-2.2127,-2.1882,-2.1882,-2.1672,-2.1375,-2.1375,-2.1375,-2.1367,-2.1123,-2.1034,-2.0824,-2.0227,-1.9698,-1.9131,-1.8411,-1.7981,-1.7435,-1.6609,0.0,0.0,0.0,0.0,0.0,0.0,-1.4852,-1.4405,-1.4225,-1.4011,0.0,0.0,0.0,-1.4699,-1.5064,0.0,0.0,0.0,0.0,0.0,0.0,-1.8389,-1.864,-1.883,-1.8938,-1.9006,-1.9061,-1.9203,-1.9291,-1.9345,-1.9447,-1.9501,-1.9501,-1.9671,-1.9725,-1.9725,-1.9725,-1.9725,-1.9725,-1.9725,-1.9725,-1.9597,-2.4528,-2.4792,-2.5057,-2.5199,-2.5477,-2.5776,-2.6081,-2.6257,-2.6413,-2.6556,-2.6447,-2.6305,-2.6149,-2.5993,-2.5905,-2.5905,-2.5905,-2.5905,-2.5905,-2.5905,-2.5905,0.0,0.0,-2.5694,-2.5688,-2.5091,-2.4264,-2.3063,0.0,0.0,-1.9068,-1.8603,-1.8497,-1.8687,-1.9431,-2.032,-2.1287,-2.1442,-2.2005,-2.2784,-2.2784,-2.2873,-2.3008,-2.3008,-2.2907,-2.2784,-2.2784,-2.2588,-2.2268,-2.2268,-2.2268,-2.2268,-2.2268,-2.2268,-2.2268,-2.2268,-2.2127,-2.1882,-2.1882,-2.1672,-2.1375,-2.1375,-2.1375,-2.1341,-2.1245,-2.1109,-2.0824,-2.0227,-1.9854,-1.9616,-1.9257,-1.8489,-1.7781,-1.744,0.0,0.0,0.0,0.0,0.0,0.0,-1.4596,-1.4306,-1.4029,-1.3997,0.0,0.0,0.0,-1.5174,-1.5181,0.0,0.0,-1.6503,-1.7107,0.0,-1.8091,-1.8389,-1.8687,-1.8993,-1.8993,-1.9061,-1.9203,-1.9359,-1.9522,-1.9664,-1.9725,-1.9725,-1.9725,-1.9725,-1.9725,-1.9725,-1.9725,-1.9725,-1.9725,-1.9725,-1.9725,-1.9597,-2.4982,-2.5179,-2.5376,-2.5511,-2.562,-2.583,-2.6224,-2.6325,-2.6447,-2.6698,-2.6522,-2.6346,-2.6291,-2.6061,-2.5905,0.0,-2.5905,-2.5905,0.0,-2.5905,-2.5905,-2.5905,-2.5864,-2.5796,-2.5694,-2.541,-2.4959,-2.4285,0.0,0.0,0.0,-2.013,-2.0335,-2.0896,-2.1043,-2.1628,-2.2439,-2.2385,-2.258,-2.294,-2.294,-2.3029,-2.3151,-2.3151,-2.3063,-2.292,-2.2818,-2.2656,-2.2466,-2.2378,-2.2268,-2.2268,-2.2268,-2.2268,-2.2268,-2.2268,-2.2201,-2.2025,-2.1916,-2.174,-2.1564,-2.1455,-2.1375,-2.1341,-2.1245,-2.0946,-2.0573,-2.0187,-1.9875,-1.9576,-1.9257,-1.8922,-1.8499,-1.8098,-1.7751,0.0,0.0,0.0,0.0,0.0,0.0,-1.5059,0.0,-1.4866,0.0,0.0,0.0,0.0,0.0,0.0,0.0,0.0,-1.7561,0.0,-1.8247,-1.8531,-1.8796,-1.8993,-1.9094,-1.9271,-1.9522,-1.9576,-1.9671,-1.9725,-1.9725,-1.9725,-1.9725,-1.9725,-1.9725,-1.9725,-1.9725,-1.9725,-1.9725,-1.9725,-1.9408,-1.8927,-2.5355,-2.5477,-2.5606,-2.5742,-2.5776,-2.5905,-2.6312,-2.6359,-2.6447,-2.6678,-2.6502,-2.6346,-2.6271,-2.6047,0.0,-2.5905,-2.5905,-2.5905,-2.5905,-2.5905,-2.5905,-2.5905,-2.5905,-2.5864,-2.5776,0.0,0.0,-2.5036,-2.4159,-2.3231,-2.2239,-2.2008,-2.2166,-2.2677,-2.2539,-2.2741,-2.3259,-2.3151,-2.3137,-2.3171,-2.3171,-2.3185,-2.3219,-2.3219,-2.313,-2.2995,-2.2832,-2.2676,-2.2534,-2.2391,-2.2268,-2.2268,-2.2268,-2.2268,-2.2268,-2.2268,-2.2235,-2.2093,-2.1991,-2.1828,-2.1652,-2.155,-2.1475,-2.1321,-2.1177,-2.0912,-2.0594,-2.0187,-1.9963,-1.9698,-1.9271,-1.9128,-1.8905,-1.8409,-1.8057,-1.7758,0.0,0.0,0.0,0.0,0.0,0.0,0.0,-1.5285,0.0,0.0,0.0,0.0,0.0,0.0,0.0,-1.7263,-1.7806,0.0,-1.8389,-1.864,-1.8871,-1.9081,-1.9271,-1.9528,-1.9725,-1.9725,-1.9725,-1.9725,-1.9725,-1.9725,-1.9725,-1.9773,-1.9773,-1.9725,-1.9773,-1.9712,-1.9725,-1.9725,-1.9286,-1.861,-2.564,-2.5708,-2.5742,-2.5884,-2.5905,-2.6006,-2.6312,-2.6346,-2.64,-2.6536,-2.6434,-2.6291,-2.6149,-2.5993,-2.5905,-2.5905,0.0,0.0,0.0,-2.5905,-2.5905,-2.5905,-2.5905,-2.5905,-2.5905,-2.5776,-2.564,-2.5477,-2.4957,-2.446,-2.4175,-2.4019,-2.3931,-2.391,-2.3768,-2.37,-2.37,-2.368,-2.3592,-2.3377,-2.3377,-2.3289,-2.3219,-2.3219,-2.313,-2.3008,-2.2852,-2.2767,-2.2554,-2.2411,-2.2337,-2.2268,-2.2268,-2.2337,-2.2288,-2.2268,-2.2235,-2.2127,-2.2113,-2.1916,-2.1692,-2.1672,-2.155,-2.1301,-2.1068,-2.1001,-2.0824,-2.0227,-2.0098,-1.9922,-1.9305,-1.9203,-1.9006,-1.8409,-1.8077,-1.7772,-1.746,0.0,0.0,0.0,0.0,0.0,0.0,-1.5438,-1.5588,0.0,0.0,0.0,0.0,0.0,-1.6433,-1.7385,-1.788,-1.8247,-1.8474,-1.8694,-1.8918,-1.9217,-1.9522,-1.9725,-1.9725,-1.9739,-1.9739,-1.9739,-1.9739,-1.9759,-1.9759,-1.9841,-1.9861,-1.9759,-1.9902,-1.98,-1.9739,-1.9678,-1.9238,-1.8549,0.0,0.0,-2.5864,-2.5905,-2.5905,-2.5973,-2.6149,-2.6183,-2.6237,-2.64,-2.6271,-2.6169,-2.6129,-2.5993,-2.5905,-2.5905,-2.5905,-2.5905,-2.5905,-2.5905,-2.5905,-2.5905,-2.5905,-2.5905,-2.5905,-2.5864,-2.5783,-2.564,-2.5145,-2.488,-2.4806,-2.4528,-2.4351,-2.4229,-2.4087,-2.3944,-2.3843,-2.3734,-2.3592,-2.3377,-2.3377,-2.3289,-2.3219,-2.3219,-2.3205,-2.3151,-2.3008,-2.2852,-2.271,-2.2554,-2.2432,-2.2268,-2.2268,-2.2411,-2.2479,-2.2378,-2.2254,-2.2249,-2.2147,-2.2059,-2.195,-2.1726,-2.155,-2.1301,-2.1068,-2.1001,-2.0824,-2.0227,-2.0098,-1.9922,-1.9305,-1.9203,-1.9006,-1.8409,-1.8158,-1.7894,-1.748,-1.7229,0.0,0.0,-1.6686,-1.6653,-1.6612,-1.6612,-1.6508,0.0,0.0,0.0,0.0,-1.6723,-1.7049,-1.7758,-1.8199,-1.8464,-1.8474,-1.8796,-1.9081,-1.9379,-1.9576,-1.9725,-1.9725,-1.9827,-1.982,-1.9841,-1.9942,-1.9997,-1.9997,-2.0031,-2.0031,-1.9997,-2.0031,-1.9963,-1.982,-1.9268,-1.8591,-1.7831,-2.585,-2.5905,-2.5905,-2.5905,-2.5905,-2.5952,-2.6115,-2.6129,-2.6169,-2.6237,-2.6183,-2.6095,-2.6027,-2.5952,-2.5905,-2.5905,-2.5905,-2.5905,-2.5905,-2.5905,-2.5905,-2.5905,-2.5905,-2.5905,-2.5905,-2.5905,-2.583,-2.5694,-2.5376,-2.5179,-2.5111,-2.4813,-2.4582,-2.444,-2.4297,-2.4141,-2.3999,-2.391,-2.3788,-2.3646,-2.3571,-2.347,-2.3255,-2.3187,-2.3219,-2.3205,-2.3063,-2.2961,-2.2873,-2.271,-2.2608,-2.2534,-2.2534,-2.2588,-2.2642,-2.2567,-2.2534,-2.2513,-2.2357,-2.2269,-2.2127,-2.176,-2.1597,-2.1462,-2.1157,-2.1055,-2.0858,-2.0404,-2.0187,-1.9942,-1.9413,-1.9257,-1.9006,-1.8409,-1.8199,-1.7948,-1.7527,-1.7453,0.0,-1.7297,-1.7344,-1.7385,-1.7385,-1.7385,-1.7278,-1.7002,0.0,0.0,-1.7286,-1.7563,-1.7795,-1.807,-1.8375,-1.8542,-1.8742,-1.904,-1.9271,-1.9374,-1.9657,-1.9814,-1.9827,-1.9908,-1.9976,-1.9976,-1.9761,-1.9801,-2.0098,-1.9868,-1.9854,-2.0098,-2.0173,-2.0119,-1.9914,-1.9234,-1.8516,-1.7769,-2.585,-2.5905,-2.5905,-2.5905,-2.5905,-2.5939,-2.6081,-2.6095,-2.6095,-2.6095,-2.6095,-2.604,-2.5918,-2.5905,-2.5905,-2.5905,-2.5905,-2.5905,-2.5905,-2.5905,-2.5905,-2.5905,-2.5905,-2.5905,-2.5905,-2.5905,-2.585,-2.5728,-2.5552,-2.5389,-2.5267,-2.4969,-2.4738,-2.4562,-2.444,-2.4277,-2.4121,-2.4121,-2.4033,-2.3877,-2.3734,-2.3592,-2.3363,-2.3273,-2.3219,-2.3205,-2.3083,-2.3029,-2.2995,-2.2852,-2.2798,-2.2784,-2.2784,-2.2798,-2.2818,-2.2818,-2.2832,-2.2818,-2.2642,-2.2466,-2.2249,-2.1862,-2.1726,-2.1597,-2.1319,-2.1123,-2.0912,-2.055,-2.0315,-1.9976,-1.9535,-1.9325,-1.9027,-1.8477,-1.8247,-1.8057,-1.7703,0.0,-1.7697,-1.7697,-1.788,-1.8024,-1.8002,-1.8058,-1.8058,-1.8058,-1.8124,-1.8199,0.0,-1.8464,-1.8552,-1.8464,-1.8552,-1.8742,-1.9061,-1.9185,-1.926,-1.9314,-1.9515,-1.9635,-1.9607,-1.9747,-1.9814,-1.9772,-1.9223,-1.9355,-1.9805,-1.9359,-1.9452,-1.9868,-1.9988,-1.9954,-1.9765,-1.9079,-1.8374,-1.7607,-2.585,-2.5905,-2.5905,-2.5905,-2.5905,-2.5905,-2.5939,-2.5939,-2.5939,-2.5939,-2.5939,-2.5939,-2.5905,-2.5905,-2.5905,-2.5905,-2.5905,-2.5905,-2.5905,-2.5905,-2.5905,-2.5905,-2.5905,-2.5905,-2.5905,-2.5905,-2.5884,-2.5864,-2.5606,-2.5443,-2.543,-2.5125,-2.4826,-2.4562,-2.4548,-2.4385,-2.4121,-2.4121,-2.4033,-2.3877,-2.3734,-2.3592,-2.3363,-2.3273,-2.3219,-2.3219,-2.3205,-2.3117,-2.3008,-2.2974,-2.2886,-2.2784,-2.2784,-2.2873,-2.2974,-2.2974,-2.3063,-2.3097,-2.2818,-2.2554,-2.2323,-2.2249,-2.195,-2.1618,-2.1441,-2.1197,-2.0912,-2.055,-2.0315,-1.9997,-1.9739,-1.9393,-1.9094,-1.8742,-1.8565,-1.8355,-1.8057,0.0,-1.8213,-1.8213,-1.8335,-1.8477,-1.8664,-1.8677,-1.8677,-1.8677,-1.8698,-1.8766,-1.885,-1.8905,-1.8972,-1.9061,-1.8972,-1.9061,-1.9359,-1.8859,-1.8762,-1.8955,-1.8434,-1.8262,-1.8393,-1.8536,-1.8598,-1.8598,-1.8583,-1.8633,-1.876,-1.8645,-1.8645,-1.876,-1.8778,-1.871,-1.8472,-1.7824,-1.7075,-1.6296,-2.585,-2.5905,-2.5905,-2.5905,-2.5905,-2.5905,-2.5905,-2.5905,-2.5905,-2.5905,-2.5905,-2.5905,-2.5905,-2.5905,-2.5905,-2.5905,-2.5905,-2.5905,-2.5905,-2.5905,-2.5905,-2.5905,-2.5905,-2.5905,-2.5905,-2.5905,-2.5905,-2.5905,-2.5606,-2.5464,-2.5464,-2.5159,-2.486,-2.4562,-2.4562,-2.4406,-2.4121,-2.4121,-2.4087,-2.3999,-2.3856,-2.3754,-2.366,-2.3436,-2.3347,-2.3327,-2.3259,-2.3185,-2.3117,-2.3117,-2.3083,-2.3008,-2.3008,-2.3063,-2.313,-2.3219,-2.3185,-2.3083,-2.294,-2.2744,-2.2534,-2.2378,-2.2181,-2.195,-2.1638,-2.1387,-2.1157,-2.0858,-2.0539,-2.0227,-1.9902,-1.959,-1.9325,-1.8997,-1.883,0.0,0.0,-1.8586,-1.8674,-1.8674,-1.8816,-1.8918,-1.8993,-1.8993,-1.8993,-1.8993,-1.8993,-1.9027,-1.9094,-1.9094,-1.9169,-1.9325,-1.9257,-1.9325,-1.9556,-1.9016,-1.8622,-1.8455,-1.7832,-1.7398,-1.7075,-1.727,-1.7333,-1.7333,-1.695,-1.7031,-1.7419,-1.6967,-1.7031,-1.7419,-1.7419,-1.7373,-1.7264,-1.6565,-1.6019,-1.5544,-2.585,-2.5905,-2.5905,-2.5905,-2.5905,-2.5905,-2.5905,-2.5905,-2.5905,-2.5905,-2.5905,-2.5905,-2.5905,-2.5905,-2.5905,-2.5905,-2.5905,-2.5905,-2.5905,-2.5905,-2.5905,-2.5905,-2.5905,-2.5905,-2.5905,-2.5905,-2.5905,-2.5905,-2.5606,-2.5464,-2.5464,-2.5125,-2.4826,-2.4562,-2.4528,-2.4372,-2.4121,-2.4121,-2.4121,-2.41,-2.3965,-2.389,-2.3856,-2.3612,-2.3411,-2.3363,-2.3307,-2.3259,-2.3219,-2.3219,-2.3219,-2.3219,-2.3259,-2.3273,-2.3307,-2.3449,-2.3347,-2.3151,-2.3117,-2.2974,-2.2764,-2.2513,-2.2391,-2.2235,-2.1862,-2.1597,-2.1367,-2.1143,-2.0824,-2.0471,-2.0098,-1.9888,-1.9644,-1.9257,0.0,0.0,0.0,-1.9027,-1.9115,-1.9149,-1.9271,-1.9379,-1.9413,-1.9413,-1.9413,-1.9413,-1.9413,-1.9413,-1.9413,-1.9413,-1.9468,-1.959,-1.9556,-1.9543,-1.9576,-1.902,-1.8386,-1.7655,-1.6926,-1.6224,-1.5555,-1.552,-1.5562,-1.5498,-1.4922,-1.505,-1.5492,-1.4922,-1.505,-1.5562,-1.5562,-1.5562,-1.5492,-1.4922,-1.4612,-1.4218,-2.585,-2.5905,-2.5905,-2.5905,-2.5905,-2.5905,-2.5905,-2.5905,-2.5905,-2.5905,-2.5905,-2.5905,-2.5905,-2.5905,-2.5905,-2.5905,-2.5905,-2.5905,-2.5905,-2.5905,-2.5905,-2.5905,-2.5905,-2.5905,-2.5905,-2.5905,-2.5905,-2.5905,-2.5606,-2.5464,-2.5522,-2.5023,-2.4724,-2.4562,-2.4419,-2.4202,-2.4121,-2.4121,-2.4121,-2.41,-2.3965,-2.389,-2.3877,-2.3714,-2.3571,-2.3377,-2.3363,-2.3347,-2.3219,-2.3219,-2.3219,-2.3239,-2.3381,-2.3363,-2.3397,-2.3612,-2.3646,-2.3592,-2.3449,-2.3205,-2.2961,-2.2784,-2.2534,-2.2289,-2.2113,-2.174,-2.1375,-2.1341,-2.1055,-2.0702,-2.0526,-2.0261,-2.001,-1.9841,0.0,0.0,-1.9379,-1.9333,-1.9447,-1.965,-1.9793,-1.9875,-2.001,-2.0031,-2.0031,-2.0031,-2.0031,-2.0031,-2.0031,-2.0031,-2.0051,-2.0051,-1.9908,-1.9607,-1.9139,-1.8517,-1.7524,-1.634,-1.5012,-1.411,-1.3573,-1.2997,-1.2684,-1.2684,-1.262,-1.262,-1.2684,-1.262,-1.262,-1.2684,-1.2684,-1.2684,-1.2684,-1.262,-1.2167,-1.1594,-2.585,-2.5905,-2.5905,-2.5905,-2.5905,-2.5905,-2.5905,-2.5905,-2.5905,-2.5905,-2.5905,-2.5905,-2.5905,-2.5905,-2.5905,-2.5905,-2.5905,-2.5905,-2.5905,-2.5905,-2.5905,-2.5905,-2.5905,-2.5905,-2.5905,-2.5905,-2.5905,-2.5905,-2.5606,-2.5464,-2.5522,-2.5003,-2.4704,-2.4562,-2.4419,-2.4263,-2.4121,-2.4121,-2.4121,-2.4121,-2.4053,-2.4033,-2.4012,-2.3877,-2.3768,-2.3714,-2.3626,-2.3558,-2.3503,-2.3503,-2.3503,-2.3524,-2.3571,-2.3592,-2.3626,-2.3768,-2.3802,-2.3802,-2.3734,-2.3503,-2.3239,-2.3097,-2.2907,-2.2676,-2.2323,-2.2058,-2.1828,-2.1509,-2.1299,-2.1089,-2.0756,-2.0594,-2.0438,-2.0187,0.0,-1.9956,-1.9854,-1.9854,-1.9875,-1.9922,-1.9976,-2.0031,-2.0098,-2.0098,-2.0098,-2.0098,-2.0098,-2.0098,-2.0098,-2.0098,-2.0139,-2.0241,-2.0187,-2.0062,-1.9872,-1.8793,-1.7602,-1.6385,-1.4549,-1.3129,-1.2118,-1.1476,-1.1179,-1.1226,-1.1226,-1.1226,-1.1226,-1.1226,-1.1226,-1.1226,-1.1168,-1.1149,-1.1149,-1.1102,-1.0891,-1.063,-2.585,-2.5905,-2.5905,-2.5905,-2.5905,-2.5905,-2.5905,-2.5905,-2.5905,-2.5905,-2.5905,-2.5905,-2.5905,-2.5905,-2.5905,-2.5905,-2.5905,-2.5905,-2.5905,-2.5905,-2.5905,-2.5905,-2.5905,-2.5905,-2.5905,-2.5905,-2.5905,-2.5905,-2.5606,-2.5464,-2.5522,-2.4948,-2.467,-2.4562,-2.4365,-2.4229,-2.4121,-2.4121,-2.4121,-2.4121,-2.4121,-2.4121,-2.41,-2.3999,-2.3931,-2.3877,-2.3788,-2.3714,-2.368,-2.368,-2.368,-2.368,-2.3734,-2.3788,-2.3843,-2.3999,-2.3999,-2.3978,-2.4012,-2.3822,-2.3524,-2.3273,-2.3151,-2.2974,-2.2567,-2.2411,-2.2146,-2.174,-2.1652,-2.1475,-2.1123,-2.1021,-2.0892,-2.0648,-2.0526,-2.0438,-2.0329,-2.0315,-2.0315,-2.0315,-2.0349,-2.0383,-2.0383,-2.0383,-2.0383,-2.0383,-2.0383,-2.0383,-2.0383,-2.0383,-2.0438,-2.0539,-2.0539,-2.0539,-2.0539,-1.9153,-1.7732,-1.6254,-1.4123,-1.2409,-1.1103,-1.0191,-0.9767,-0.9814,-0.9814,-0.9814,-0.9814,-0.9814,-0.9814,-0.9808,-0.9757,-0.9741,-0.9797,-0.9694,-0.9733,-0.9668,-2.585,-2.5905,-2.5905,-2.5905,-2.5905,-2.5905,-2.5905,-2.5905,-2.5905,-2.5905,-2.5905,-2.5905,-2.5905,-2.5905,-2.5905,-2.5905,-2.5905,-2.5905,-2.5905,-2.5905,-2.5905,-2.5905,-2.5905,-2.5905,-2.5905,-2.5905,-2.5905,-2.5905,-2.5606,-2.5464,-2.5443,-2.4847,-2.4562,-2.4624,-2.4263,-2.4121,-2.4121,-2.4121,-2.4121,-2.4121,-2.4121,-2.4121,-2.4121,-2.4121,-2.4033,-2.389,-2.389,-2.3802,-2.368,-2.368,-2.368,-2.3714,-2.3856,-2.3999,-2.4155,-2.4235,-2.4243,-2.4155,-2.4235,-2.4121,-2.3788,-2.3347,-2.3219,-2.3151,-2.2852,-2.2554,-2.2268,-2.2268,-2.2093,-2.1848,-2.1706,-2.155,-2.1387,-2.1245,-2.0967,-2.077,-2.077,-2.077,-2.077,-2.077,-2.0912,-2.1001,-2.1001,-2.1001,-2.1001,-2.1001,-2.1001,-2.1001,-2.1001,-2.1001,-2.1001,-2.1001,-2.1001,-2.1001,-2.1001,-1.9483,-1.7737,-1.577,-1.3616,-1.185,-1.0468,-0.902,-0.8433,-0.8433,-0.8433,-0.8433,-0.8433,-0.8433,-0.8433,-0.8433,-0.8433,-0.8433,-0.8433,-0.8368,-0.8368,-0.8368,-2.5864,-2.5905,-2.5905,-2.5905,-2.5905,-2.5905,-2.5905,-2.5905,-2.5905,-2.5905,-2.5905,-2.5905,-2.5905,-2.5905,-2.5905,-2.5905,-2.5905,-2.5905,-2.5905,-2.5905,-2.5905,-2.5905,-2.5905,-2.5905,-2.5905,-2.5905,-2.585,-2.5762,-2.5552,-2.541,-2.5287,-2.4901,-2.467,-2.4562,-2.4473,-2.4372,-2.4277,-2.4385,-2.4372,-2.4202,-2.4202,-2.4209,-2.4121,-2.4121,-2.4087,-2.4053,-2.4053,-2.4033,-2.3999,-2.3999,-2.3999,-2.4012,-2.4175,-2.4317,-2.444,-2.4494,-2.4473,-2.4419,-2.4365,-2.4202,-2.4121,-2.3788,-2.3537,-2.3255,-2.313,-2.294,-2.273,-2.2342,-2.2269,-2.2127,-2.1862,-2.1774,-2.1672,-2.1408,-2.1299,-2.1177,-2.0967,-2.0933,-2.0933,-2.0933,-2.0967,-2.1001,-2.1001,-2.1001,-2.1001,-2.1001,-2.1001,-2.1001,-2.1001,-2.1001,-2.1001,-2.1001,-2.1001,-2.1055,-2.1143,-1.9629,-1.8078,-1.6489,-1.3869,-1.1877,-1.0546,-0.9095,-0.8518,-0.8559,-0.8559,-0.8559,-0.8559,-0.8559,-0.8559,-0.8559,-0.8518,-0.8496,-0.8488,-0.8447,-0.8368,-0.8368,-2.5864,-2.5905,-2.5905,-2.5905,-2.5905,-2.5905,-2.5905,-2.5905,-2.5905,-2.5905,-2.5905,-2.5905,-2.5905,-2.5905,-2.5905,-2.5905,-2.5905,-2.5905,-2.5905,-2.5905,-2.5905,-2.5905,-2.5905,-2.5905,-2.5905,-2.5905,-2.583,-2.5694,-2.5532,-2.5389,-2.5155,-2.4935,-2.4738,-2.465,-2.4596,-2.4507,-2.444,-2.4528,-2.4507,-2.444,-2.444,-2.4351,-2.4209,-2.4209,-2.4175,-2.4121,-2.4189,-2.4209,-2.4229,-2.4277,-2.4297,-2.4317,-2.4406,-2.4494,-2.4582,-2.4636,-2.4616,-2.4548,-2.4453,-2.4385,-2.4222,-2.4053,-2.3802,-2.3571,-2.3361,-2.3205,-2.2995,-2.2676,-2.2554,-2.2445,-2.2201,-2.2093,-2.1984,-2.174,-2.1597,-2.1475,-2.1285,-2.1211,-2.1177,-2.1177,-2.1177,-2.1177,-2.1177,-2.1177,-2.1177,-2.1177,-2.1177,-2.1177,-2.1177,-2.1177,-2.1177,-2.1177,-2.1177,-2.1211,-2.1299,-2.0146,-1.8845,-1.7351,-1.4777,-1.2702,-1.102,-0.9893,-0.9247,-0.9019,-0.9349,-0.9486,-0.9419,-0.9148,-0.9019,-0.9013,-0.8639,-0.8559,-0.8559,-0.8518,-0.8504,-0.8504,-2.5884,-2.5905,-2.5905,-2.5905,-2.5905,-2.5905,-2.5905,-2.5905,-2.5905,-2.5905,-2.5905,-2.5905,-2.5905,-2.5905,-2.5905,-2.5905,-2.5905,-2.5905,-2.5905,-2.5905,-2.5905,-2.5905,-2.5905,-2.5905,-2.5905,-2.5905,-2.583,-2.5674,-2.5532,-2.5376,-2.5213,-2.4935,-2.4806,-2.4792,-2.467,-2.4596,-2.4658,-2.4596,-2.4596,-2.4658,-2.4658,-2.4494,-2.4365,-2.4365,-2.4277,-2.4175,-2.4317,-2.4365,-2.4385,-2.4528,-2.4582,-2.4658,-2.4658,-2.4596,-2.4636,-2.4772,-2.4724,-2.4596,-2.4658,-2.4473,-2.4256,-2.4175,-2.4033,-2.3836,-2.3558,-2.3309,-2.3219,-2.3063,-2.292,-2.2764,-2.2608,-2.2466,-2.2303,-2.216,-2.1903,-2.1706,-2.1692,-2.1564,-2.1455,-2.1455,-2.1441,-2.1375,-2.1375,-2.1375,-2.1375,-2.1375,-2.1375,-2.1375,-2.1375,-2.1375,-2.1375,-2.1375,-2.1389,-2.1455,-2.1455,-2.0929,-1.9865,-1.8196,-1.6142,-1.3991,-1.1913,-1.1253,-1.0574,-0.9975,-1.0644,-1.0913,-1.0839,-1.0103,-0.9764,-0.9621,-0.8885,-0.8616,-0.8616,-0.8616,-0.8616,-0.8616,-2.5905,-2.5905,-2.5905,-2.5905,-2.5905,-2.5905,-2.5905,-2.5905,-2.5905,-2.5905,-2.5905,-2.5905,-2.5905,-2.5905,-2.5905,-2.5905,-2.5905,-2.5905,-2.5905,-2.5905,-2.5905,-2.5905,-2.5905,-2.5905,-2.5905,-2.5905,-2.5776,-2.5518,-2.5477,-2.5321,-2.507,-2.5003,-2.4914,-2.4792,-2.488,-2.486,-2.4758,-2.486,-2.4847,-2.4738,-2.4738,-2.465,-2.4507,-2.4507,-2.4494,-2.4473,-2.4507,-2.4507,-2.4528,-2.4624,-2.465,-2.4738,-2.4738,-2.4826,-2.4935,-2.4969,-2.4948,-2.4894,-2.4772,-2.4636,-2.4473,-2.4331,-2.4189,-2.4012,-2.3836,-2.368,-2.3503,-2.3239,-2.3151,-2.3049,-2.2784,-2.2608,-2.2466,-2.2323,-2.2127,-2.1971,-2.1848,-2.1706,-2.1618,-2.1618,-2.1509,-2.1375,-2.1375,-2.1375,-2.1375,-2.1375,-2.1375,-2.1375,-2.1375,-2.1375,-2.1375,-2.1375,-2.1564,-2.1618,-2.1618,-2.1619,-2.0541,-1.8328,-1.6877,-1.501,-1.2843,-1.2154,-1.1753,-1.1613,-1.1753,-1.1781,-1.1658,-1.0908,-1.027,-0.9621,-0.8885,-0.8616,-0.8616,-0.8616,-0.8616,-0.8616,-2.5905,-2.5905,-2.5905,-2.5905,-2.5905,-2.5905,-2.5905,-2.5905,-2.5905,-2.5905,-2.5905,-2.5905,-2.5905,-2.5905,-2.5905,-2.5905,-2.5905,-2.5905,-2.5905,-2.5905,-2.5905,-2.5905,-2.5905,-2.5905,-2.5905,-2.5905,-2.5762,-2.5464,-2.5464,-2.5301,-2.5023,-2.5023,-2.4982,-2.4894,-2.4982,-2.4969,-2.4914,-2.4982,-2.4969,-2.4894,-2.4894,-2.4813,-2.467,-2.467,-2.4636,-2.4582,-2.465,-2.4724,-2.4772,-2.4772,-2.4826,-2.4894,-2.4894,-2.4948,-2.5023,-2.5023,-2.5023,-2.4982,-2.4826,-2.4738,-2.4636,-2.4494,-2.4385,-2.4263,-2.3965,-2.3843,-2.3714,-2.349,-2.3436,-2.3347,-2.3049,-2.292,-2.2784,-2.2479,-2.2323,-2.216,-2.2004,-2.1862,-2.1774,-2.1774,-2.1638,-2.153,-2.1441,-2.1375,-2.1375,-2.1375,-2.1509,-2.155,-2.155,-2.1618,-2.1652,-2.1652,-2.1726,-2.1774,-2.1774,-2.1916,-2.1203,-1.9633,-1.8207,-1.6511,-1.4739,-1.3988,-1.3446,-1.3168,-1.3514,-1.348,-1.3027,-1.1939,-1.1037,-1.0183,-0.9071,-0.8657,-0.8649,-0.8621,-0.8616,-0.8616,-2.5905,-2.5905,-2.5905,-2.5905,-2.5905,-2.5905,-2.5905,-2.5905,-2.5905,-2.5905,-2.5905,-2.5905,-2.5905,-2.5905,-2.5905,-2.5905,-2.5905,-2.5905,-2.5905,-2.5905,-2.5905,-2.5905,-2.5905,-2.5905,-2.5905,-2.5884,-2.5728,-2.5464,-2.5464,-2.5301,-2.5023,-2.5023,-2.5023,-2.5023,-2.5023,-2.5023,-2.5023,-2.5023,-2.5023,-2.5023,-2.5023,-2.4948,-2.4826,-2.4826,-2.4758,-2.465,-2.4792,-2.4935,-2.5057,-2.5057,-2.507,-2.5091,-2.507,-2.5057,-2.5057,-2.5023,-2.5023,-2.4982,-2.486,-2.4813,-2.4758,-2.4636,-2.4658,-2.4536,-2.4087,-2.3978,-2.3924,-2.3754,-2.3714,-2.3626,-2.3347,-2.3259,-2.3097,-2.273,-2.252,-2.2357,-2.2201,-2.2059,-2.195,-2.1916,-2.1794,-2.1652,-2.153,-2.1509,-2.1509,-2.1509,-2.1638,-2.1706,-2.1706,-2.1815,-2.1882,-2.1882,-2.1903,-2.1916,-2.1916,-2.2079,-2.1811,-2.1194,-1.9761,-1.828,-1.6915,-1.6299,-1.5688,-1.5131,-1.562,-1.5395,-1.4566,-1.2983,-1.1815,-1.0833,-0.9281,-0.8714,-0.8706,-0.8649,-0.8621,-0.8616,-2.5905,-2.5905,-2.5905,-2.5905,-2.5905,-2.5905,-2.5905,-2.5905,-2.5905,-2.5905,-2.5905,-2.5905,-2.5905,-2.5905,-2.5905,-2.5905,-2.5905,-2.5905,-2.5905,-2.5905,-2.5905,-2.5905,-2.5905,-2.5905,-2.5905,-2.5783,-2.564,-2.5464,-2.5464,-2.5301,-2.5023,-2.5023,-2.5023,-2.5023,-2.5023,-2.5023,-2.5023,-2.5023,-2.5023,-2.5023,-2.5023,-2.5003,-2.4982,-2.4982,-2.4982,-2.4969,-2.4982,-2.507,-2.5199,-2.5199,-2.5287,-2.5376,-2.5247,-2.5199,-2.5179,-2.5057,-2.5023,-2.5023,-2.5003,-2.4894,-2.4792,-2.4772,-2.467,-2.4548,-2.4494,-2.4372,-2.4134,-2.3924,-2.3856,-2.3822,-2.3646,-2.3402,-2.3205,-2.3137,-2.2907,-2.2676,-2.252,-2.2378,-2.2235,-2.2093,-2.195,-2.1848,-2.1828,-2.1828,-2.1828,-2.1828,-2.1848,-2.1848,-2.1848,-2.1862,-2.1882,-2.1882,-2.2004,-2.2079,-2.2079,-2.2235,-2.2234,-2.2109,-2.1241,-2.0049,-1.8667,-1.8529,-1.8454,-1.8316,-1.7779,-1.7087,-1.611,-1.404,-1.2272,-1.0843,-0.9396,-0.8777,-0.8769,-0.8714,-0.8657,-0.8616,-2.5884,-2.5905,-2.5905,-2.5905,-2.5905,-2.5905,-2.5905,-2.5905,-2.5905,-2.5905,-2.5905,-2.5905,-2.5905,-2.583,-2.5742,-2.5654,-2.5654,-2.5694,-2.5776,-2.5783,-2.5783,-2.5783,-2.5783,-2.5742,-2.5654,-2.5606,-2.5477,-2.5335,-2.5335,-2.5233,-2.5023,-2.5023,-2.5023,-2.5023,-2.5023,-2.5023,-2.5023,-2.5023,-2.5023,-2.5023,-2.5023,-2.5023,-2.5023,-2.5023,-2.5023,-2.5036,-2.5111,-2.5179,-2.5247,-2.5335,-2.541,-2.543,-2.5287,-2.5233,-2.5199,-2.5057,-2.5023,-2.5023,-2.5023,-2.4969,-2.4914,-2.4914,-2.486,-2.4792,-2.4704,-2.465,-2.4507,-2.4209,-2.4155,-2.4066,-2.3843,-2.368,-2.3524,-2.3259,-2.3117,-2.292,-2.2608,-2.25,-2.2378,-2.2147,-2.2059,-2.1971,-2.1882,-2.1882,-2.1882,-2.1882,-2.1971,-2.2004,-2.2004,-2.2093,-2.2147,-2.2147,-2.2201,-2.2235,-2.2235,-2.2303,-2.2268,-2.2268,-2.1985,-2.1287,-2.0243,-1.9827,-1.9619,-1.9562,-1.8799,-1.8072,-1.7118,-1.4972,-1.3148,-1.159,-1.0096,-0.9164,-0.879,-0.8763,-0.8733,-0.8706]},{"header":{"parameterUnit":"m.s-1","parameterCategory":1,"la1":30.6,"la2":28.766,"lo1":-90.7593,"lo2":-88.6598,"dy":0.0162,"dx":0.0183,"nx":116,"ny":114,"refTime":"2024-06-16T06:00:00:Z","depth":0,"parameterNumber":3,"parameterNumberName":"V-component_of_WINDS"},"data":[0.0,0.0,0.0,0.0,0.0,0.0,0.0,0.0,0.0,0.0,0.0,0.0,0.0,0.0,0.0,0.0,0.0,0.0,0.0,0.0,0.0,0.0,0.0,0.0,0.0,0.0,0.0,0.0,0.0,0.0,0.0,0.0,0.0,0.0,0.0,0.0,0.0,0.0,0.0,0.0,0.0,0.0,0.0,0.0,0.0,0.0,0.0,0.0,0.0,0.0,0.0,0.0,0.0,0.0,0.0,0.0,0.0,0.0,0.0,0.0,0.0,0.0,0.0,0.0,0.0,0.0,0.0,0.0,0.0,0.0,0.0,0.0,0.0,0.0,0.0,0.0,0.0,0.0,0.0,0.0,0.0,0.0,0.0,0.0,0.0,0.0,0.0,0.0,0.0,0.0,0.0,0.0,0.0,0.0,0.0,0.0,0.0,0.0,0.0,0.0,0.0,0.0,0.0,0.0,0.0,0.0,0.0,0.0,0.0,0.0,0.0,0.0,0.0,0.0,0.0,0.0,0.0,0.0,0.0,0.0,0.0,0.0,0.0,0.0,0.0,0.0,0.0,0.0,0.0,0.0,0.0,0.0,0.0,0.0,0.0,0.0,0.0,0.0,0.0,0.0,0.0,0.0,0.0,0.0,0.0,0.0,0.0,0.0,0.0,0.0,0.0,0.0,0.0,0.0,0.0,0.0,0.0,0.0,0.0,0.0,0.0,0.0,0.0,0.0,0.0,0.0,0.0,0.0,0.0,0.0,0.0,0.0,0.0,0.0,0.0,0.0,0.0,0.0,0.0,0.0,0.0,0.0,0.0,0.0,0.0,0.0,0.0,0.0,0.0,0.0,0.0,0.0,0.0,0.0,0.0,0.0,0.0,0.0,0.0,0.0,0.0,0.0,0.0,0.0,0.0,0.0,0.0,0.0,0.0,0.0,0.0,0.0,0.0,0.0,0.0,0.0,0.0,0.0,0.0,0.0,0.0,0.0,0.0,0.0,0.0,0.0,0.0,0.0,0.0,0.0,0.0,0.0,0.0,0.0,0.0,0.0,0.0,0.0,0.0,0.0,0.0,0.0,0.0,0.0,0.0,0.0,0.0,0.0,0.0,0.0,0.0,0.0,0.0,0.0,0.0,0.0,0.0,0.0,0.0,0.0,0.0,0.0,0.0,0.0,0.0,0.0,0.0,0.0,0.0,0.0,0.0,0.0,0.0,0.0,0.0,0.0,0.0,0.0,0.0,0.0,0.0,0.0,0.0,0.0,0.0,0.0,0.0,0.0,0.0,0.0,0.0,0.0,0.0,0.0,0.0,0.0,0.0,0.0,0.0,0.0,0.0,0.0,0.0,0.0,0.0,0.0,0.0,0.0,0.0,0.0,0.0,0.0,0.0,0.0,0.0,0.0,0.0,0.0,0.0,0.0,0.0,0.0,0.0,0.0,0.0,0.0,0.0,0.0,0.0,0.0,0.0,0.0,0.0,0.0,0.0,0.0,0.0,0.0,0.0,0.0,0.0,0.0,0.0,0.0,0.0,0.0,0.0,0.0,0.0,0.0,0.0,0.0,0.0,0.0,0.0,0.0,0.0,0.0,0.0,0.0,0.0,0.0,0.0,0.0,0.0,0.0,0.0,0.0,0.0,0.0,0.0,0.0,0.0,0.0,0.0,0.0,0.0,0.0,0.0,0.0,0.0,0.0,0.0,0.0,0.0,0.0,0.0,0.0,0.0,0.0,0.0,0.0,0.0,0.0,0.0,0.0,0.0,0.0,0.0,0.0,0.0,0.0,0.0,0.0,0.0,0.0,0.0,0.0,0.0,0.0,0.0,0.0,0.0,0.0,0.0,0.0,0.0,0.0,0.0,0.0,0.0,0.0,0.0,0.0,0.0,0.0,0.0,0.0,0.0,0.0,0.0,0.0,0.0,0.0,0.0,0.0,0.0,0.0,0.0,0.0,0.0,0.0,0.0,0.0,0.0,0.0,0.0,0.0,0.0,0.0,0.0,0.0,0.0,0.0,0.0,0.0,0.0,0.0,0.0,0.0,0.0,0.0,0.0,0.0,0.0,0.0,0.0,0.0,0.0,0.0,0.0,0.0,0.0,0.0,0.0,0.0,0.0,0.0,0.0,0.0,0.0,0.0,0.0,0.0,0.0,0.0,0.0,0.0,0.0,0.0,0.0,0.0,0.0,0.0,0.0,0.0,0.0,0.0,0.0,0.0,0.0,0.0,0.0,0.0,0.0,0.0,0.0,0.0,0.0,0.0,0.0,0.0,0.0,0.0,0.0,0.0,0.0,0.0,0.0,0.0,0.0,0.0,0.0,0.0,0.0,0.0,0.0,0.0,0.0,0.0,0.0,0.0,0.0,0.0,0.0,0.0,0.0,0.0,0.0,0.0,0.0,0.0,0.0,0.0,0.0,0.0,0.0,0.0,0.0,0.0,0.0,0.0,0.0,0.0,0.0,0.0,0.0,0.0,0.0,0.0,0.0,0.0,0.0,0.0,0.0,0.0,0.0,0.0,0.0,0.0,0.0,0.0,0.0,0.0,0.0,0.0,0.0,0.0,0.0,0.0,0.0,0.0,0.0,0.0,0.0,0.0,0.0,0.0,0.0,0.0,0.0,0.0,0.0,0.0,0.0,0.0,0.0,0.0,0.0,0.0,0.0,0.0,0.0,0.0,0.0,0.0,0.0,0.0,0.0,0.0,0.0,0.0,0.0,0.0,0.0,0.0,0.0,0.0,0.0,0.0,0.0,0.0,0.0,0.0,0.0,0.0,0.0,0.0,0.0,0.0,0.0,0.0,0.0,0.0,0.0,0.0,0.0,0.0,0.0,0.0,0.0,0.0,0.0,0.0,0.0,0.0,0.0,0.0,0.0,0.0,0.0,0.0,0.0,0.0,0.0,0.0,0.0,0.0,0.0,0.0,0.0,0.0,0.0,0.0,0.0,0.0,0.0,0.0,0.0,0.0,0.0,0.0,0.0,0.0,0.0,0.0,0.0,0.0,0.0,0.0,0.0,0.0,0.0,0.0,0.0,0.0,0.0,0.0,0.0,0.0,0.0,0.0,0.0,0.0,0.0,0.0,0.0,0.0,0.0,0.0,0.0,0.0,0.0,0.0,0.0,0.0,0.0,0.0,0.0,0.0,0.0,0.0,0.0,0.0,0.0,0.0,0.0,0.0,0.0,0.0,0.0,0.0,0.0,0.0,0.0,0.0,0.0,0.0,0.0,0.0,0.0,0.0,0.0,0.0,0.0,0.0,0.0,0.0,0.0,0.0,0.0,0.0,0.0,0.0,0.0,0.0,0.0,0.0,0.0,0.0,0.0,0.0,0.0,0.0,0.0,0.0,0.0,0.0,0.0,0.0,0.0,0.0,0.0,0.0,0.0,0.0,0.0,0.0,0.0,0.0,0.0,0.0,0.0,0.0,0.0,0.0,0.0,0.0,0.0,0.0,0.0,0.0,0.0,0.0,0.0,0.0,0.0,0.0,0.0,0.0,0.0,0.0,0.0,0.0,0.0,0.0,0.0,0.0,0.0,0.0,0.0,0.0,0.0,0.0,0.0,0.0,0.0,0.0,0.0,0.0,0.0,0.0,0.0,0.0,0.0,0.0,0.0,0.0,0.0,0.0,0.0,0.0,0.0,0.0,0.0,0.0,0.0,0.0,0.0,0.0,0.0,0.0,0.0,0.0,0.0,0.0,0.0,0.0,0.0,0.0,0.0,0.0,0.0,0.0,0.0,0.0,0.0,0.0,0.0,0.0,0.0,0.0,0.0,0.0,0.0,0.0,0.0,0.0,0.0,0.0,0.0,0.0,0.0,0.0,0.0,0.0,0.0,0.0,0.0,0.0,0.0,0.0,0.0,0.0,0.0,0.0,0.0,0.0,0.0,0.0,0.0,0.0,0.0,0.0,0.0,0.0,0.0,0.0,0.0,0.0,0.0,0.0,0.0,0.0,0.0,0.0,0.0,0.0,0.0,0.0,0.0,0.0,0.0,0.0,0.0,0.0,0.0,0.0,0.0,0.0,0.0,0.0,0.0,0.0,0.0,0.0,0.0,0.0,0.0,0.0,0.0,0.0,0.0,0.0,0.0,0.0,0.0,0.0,0.0,0.0,0.0,0.0,0.0,0.0,0.0,0.0,0.0,0.0,0.0,0.0,0.0,0.0,0.0,0.0,0.0,0.0,0.0,0.0,0.0,0.0,0.0,0.0,0.0,0.0,0.0,0.0,0.0,0.0,0.0,0.0,0.0,0.0,0.0,0.0,0.0,0.0,0.0,0.0,0.0,0.0,0.0,0.0,0.0,0.0,0.0,0.0,0.0,0.0,0.0,0.0,0.0,0.0,0.0,0.0,0.0,0.0,0.0,0.0,0.0,0.0,0.0,0.0,0.0,0.0,0.0,0.0,0.0,0.0,0.0,0.0,0.0,0.0,0.0,0.0,0.0,0.0,0.0,0.0,0.0,0.0,0.0,0.0,0.0,0.0,0.0,0.0,0.0,0.0,0.0,0.0,0.0,0.0,0.0,0.0,0.0,0.0,0.0,0.0,0.0,0.0,0.0,0.0,0.0,0.0,0.0,0.0,0.0,0.0,0.0,0.0,0.0,0.0,0.0,0.0,0.0,0.0,0.0,0.0,0.0,0.0,0.0,0.0,0.0,0.0,0.0,0.0,0.0,0.0,0.0,0.0,0.0,0.0,0.0,0.0,0.0,0.0,0.0,0.0,0.0,0.0,0.0,0.0,0.0,0.0,0.0,0.0,0.0,0.0,0.0,0.0,0.0,0.0,0.0,0.0,0.0,0.0,0.0,0.0,0.0,0.0,0.0,0.0,0.0,0.0,0.0,0.0,0.0,0.0,0.0,0.0,0.0,0.0,0.0,0.0,0.0,0.0,0.0,0.0,0.0,0.0,0.0,0.0,0.0,0.0,0.0,0.0,0.0,0.0,0.0,0.0,0.0,0.0,0.0,0.0,0.0,0.0,0.0,0.0,0.0,0.0,0.0,0.0,0.0,0.0,0.0,0.0,0.0,0.0,0.0,0.0,0.0,0.0,0.0,0.0,0.0,0.0,0.0,0.0,0.0,0.0,0.0,0.0,0.0,0.0,0.0,0.0,0.0,0.0,0.0,0.0,0.0,0.0,0.0,0.0,0.0,0.0,0.0,0.0,0.0,0.0,0.0,0.0,0.0,0.0,0.0,0.0,0.0,0.0,0.0,0.0,0.0,0.0,0.0,0.0,0.0,0.0,0.0,0.0,0.0,0.0,0.0,0.0,0.0,0.0,0.0,0.0,0.0,0.0,0.0,0.0,0.0,0.0,0.0,0.0,0.0,0.0,0.0,0.0,0.0,0.0,0.0,0.0,0.0,0.0,0.0,0.0,0.0,0.0,0.0,0.0,0.0,0.0,0.0,0.0,0.0,0.0,0.0,0.0,0.0,0.0,0.0,0.0,0.0,0.0,0.0,0.0,0.0,0.0,0.0,0.0,0.0,0.0,0.0,0.0,0.0,0.0,0.0,0.0,0.0,0.0,0.0,0.0,0.0,0.0,0.0,0.0,0.0,0.0,0.0,0.0,0.0,0.0,0.0,0.0,0.0,0.0,0.0,0.0,0.0,0.0,0.0,0.0,0.0,0.0,0.0,0.0,0.0,0.0,0.0,0.0,0.0,0.0,0.0,0.0,0.0,0.0,0.0,0.0,0.0,0.0,0.0,0.0,0.0,0.0,0.0,0.0,0.0,0.0,0.0,0.0,0.0,0.0,0.0,0.0,0.0,0.0,0.0,0.0,0.0,0.0,0.0,0.0,0.0,0.0,0.0,0.0,0.0,0.0,0.0,0.0,0.0,0.0,0.0,0.0,0.0,0.0,0.0,0.0,0.0,0.0,0.0,0.0,0.0,0.0,0.0,0.0,0.0,0.0,0.0,0.0,0.0,0.0,0.0,0.0,0.0,0.0,0.0,0.0,0.0,0.0,0.0,0.0,0.0,0.0,0.0,0.0,0.0,0.0,0.0,0.0,0.0,0.0,0.0,0.0,0.0,0.0,0.0,0.0,0.0,0.0,0.0,0.0,0.0,0.0,0.0,0.0,0.0,0.0,0.0,0.0,5.5874,0.0,0.0,0.0,0.0,0.0,0.0,0.0,0.0,0.0,0.0,0.0,0.0,0.0,0.0,0.0,0.0,0.0,0.0,0.0,0.0,0.0,0.0,0.0,0.0,5.4556,5.6104,5.7351,5.8308,5.8825,5.8869,5.7989,5.728,5.6851,5.5654,5.5032,5.5063,5.4733,5.5172,5.6449,5.695,5.8035,5.9666,5.7891,5.5247,5.2008,0.0,0.0,0.0,0.0,0.0,0.0,0.0,0.0,0.0,0.0,0.0,0.0,0.0,0.0,0.0,0.0,0.0,0.0,0.0,0.0,0.0,0.0,0.0,0.0,0.0,0.0,0.0,0.0,0.0,0.0,0.0,0.0,0.0,0.0,0.0,0.0,0.0,0.0,0.0,0.0,0.0,0.0,0.0,0.0,0.0,0.0,0.0,0.0,0.0,0.0,0.0,0.0,0.0,0.0,0.0,0.0,0.0,0.0,0.0,0.0,0.0,0.0,0.0,0.0,0.0,0.0,0.0,0.0,0.0,0.0,0.0,5.8868,0.0,0.0,0.0,0.0,0.0,0.0,0.0,0.0,0.0,0.0,0.0,0.0,0.0,0.0,0.0,0.0,0.0,0.0,0.0,0.0,0.0,5.1193,5.4507,5.6566,5.839,6.0123,6.0981,6.1201,6.0622,6.0117,5.9512,5.8818,5.786,5.7402,5.7557,5.7072,5.7661,5.9399,6.0615,6.2425,6.467,6.467,6.2026,5.7199,5.5575,0.0,0.0,0.0,0.0,0.0,0.0,0.0,0.0,0.0,0.0,0.0,0.0,0.0,0.0,0.0,0.0,0.0,0.0,0.0,0.0,0.0,0.0,0.0,0.0,0.0,0.0,0.0,0.0,0.0,0.0,0.0,0.0,0.0,0.0,0.0,0.0,0.0,0.0,0.0,0.0,0.0,0.0,0.0,0.0,0.0,0.0,0.0,0.0,0.0,0.0,0.0,0.0,0.0,0.0,0.0,0.0,0.0,0.0,0.0,0.0,0.0,0.0,0.0,7.1536,7.1919,7.1864,7.1862,7.1806,7.1472,6.7194,6.4397,6.2802,6.1789,0.0,0.0,0.0,0.0,0.0,0.0,0.0,0.0,0.0,0.0,0.0,0.0,0.0,0.0,0.0,0.0,0.0,0.0,0.0,5.3778,5.6442,5.8994,6.1146,6.2849,6.3086,6.3439,6.4095,6.2044,6.0766,6.065,5.9147,5.867,5.9442,6.007,6.1259,6.3009,6.5334,6.7067,6.8128,6.8128,6.7788,6.6933,6.2323,5.899,5.6707,0.0,0.0,0.0,0.0,0.0,0.0,0.0,0.0,0.0,0.0,0.0,0.0,0.0,0.0,0.0,0.0,0.0,0.0,0.0,0.0,0.0,0.0,0.0,0.0,0.0,0.0,0.0,0.0,0.0,0.0,0.0,0.0,0.0,0.0,0.0,0.0,0.0,0.0,0.0,0.0,0.0,6.0097,6.1781,0.0,0.0,0.0,0.0,0.0,0.0,0.0,0.0,0.0,0.0,0.0,0.0,0.0,7.162,7.3269,7.4313,7.5234,7.6079,7.694,7.7362,7.7346,7.7297,7.7248,7.7163,7.5753,0.0,6.7838,6.623,0.0,0.0,0.0,0.0,0.0,0.0,0.0,0.0,0.0,0.0,0.0,0.0,0.0,0.0,0.0,0.0,0.0,0.0,0.0,0.0,0.0,6.0928,6.3348,6.5577,6.6195,6.6234,6.5615,6.4533,6.3495,6.2568,6.1814,6.1829,6.2713,6.3545,6.5543,6.8751,7.0333,7.1831,7.3199,7.3199,7.3219,7.3147,6.9889,6.5963,6.167,5.9004,0.0,0.0,0.0,0.0,0.0,0.0,0.0,0.0,0.0,0.0,0.0,0.0,0.0,0.0,0.0,0.0,0.0,0.0,0.0,0.0,0.0,0.0,0.0,0.0,0.0,0.0,0.0,0.0,0.0,0.0,0.0,0.0,0.0,0.0,0.0,0.0,0.0,0.0,0.0,6.1486,6.4135,6.5778,6.6023,6.5777,0.0,0.0,0.0,0.0,0.0,0.0,0.0,0.0,0.0,7.4221,7.5611,7.6947,7.8246,7.9592,8.0746,8.1592,8.2478,8.2902,8.2902,8.2778,8.2207,8.1274,8.0841,7.8713,7.534,7.2201,7.0089,6.8771,0.0,0.0,0.0,0.0,6.4851,6.3708,0.0,0.0,0.0,0.0,0.0,0.0,0.0,0.0,0.0,0.0,0.0,0.0,6.037,6.308,6.5647,6.823,6.8854,6.8661,6.7578,6.6688,6.5644,6.4372,6.414,6.4527,6.561,6.7307,7.0075,7.3983,7.4796,7.609,7.7838,7.7838,7.7844,7.7782,7.6072,7.2129,6.6586,6.3173,6.0222,5.7582,0.0,0.0,0.0,0.0,0.0,0.0,0.0,0.0,0.0,0.0,0.0,0.0,0.0,0.0,0.0,0.0,0.0,0.0,0.0,0.0,0.0,0.0,0.0,0.0,0.0,0.0,0.0,0.0,0.0,0.0,0.0,0.0,0.0,0.0,0.0,0.0,0.0,6.6134,6.8155,6.9789,7.0445,7.046,0.0,0.0,0.0,0.0,0.0,0.0,7.4323,7.6346,7.7885,7.8784,8.0353,8.1684,8.2815,8.411,8.5181,8.6112,8.6768,8.7084,8.7077,8.6925,8.6169,8.4951,8.4656,8.3783,8.2172,7.758,7.4905,7.3691,7.3403,7.2533,7.1358,7.132,7.0633,6.9603,0.0,0.0,0.0,0.0,0.0,0.0,0.0,0.0,0.0,0.0,0.0,5.9648,6.3134,6.5799,6.8346,7.0905,7.0407,7.0252,7.0987,6.8003,6.6147,6.6069,6.5339,6.5687,6.7346,7.1407,7.4811,7.7448,7.8338,7.9614,8.1233,8.1233,8.1308,8.1285,7.9542,7.5929,7.0947,6.754,6.4589,6.1914,5.8544,0.0,0.0,0.0,0.0,0.0,0.0,0.0,0.0,0.0,0.0,0.0,0.0,0.0,0.0,0.0,0.0,0.0,0.0,0.0,0.0,0.0,0.0,0.0,0.0,0.0,0.0,0.0,0.0,0.0,0.0,0.0,0.0,0.0,0.0,0.0,0.0,0.0,0.0,7.4379,7.4497,0.0,0.0,0.0,0.0,7.422,7.6385,7.7878,7.82,8.06,8.244,8.3445,8.4339,8.5612,8.7279,8.75,8.8,8.8811,8.8849,8.8849,8.8888,8.8814,8.8706,8.8583,8.7734,8.7341,8.6855,8.1458,7.9207,7.9045,7.827,7.7916,7.784,7.784,7.6804,7.5386,0.0,0.0,0.0,4.5649,4.6992,4.8025,4.8334,5.0267,5.2472,5.4482,5.7477,6.0929,6.4875,6.7583,7.0131,7.2761,7.2684,7.2181,7.133,7.017,6.9009,6.7926,6.8081,6.9512,7.233,7.5546,7.8177,8.0143,8.1581,8.2857,8.394,8.394,8.3947,8.3895,8.2192,7.9844,7.6803,7.2346,6.8655,6.551,6.2693,6.0526,0.0,0.0,0.0,0.0,0.0,0.0,0.0,0.0,0.0,0.0,0.0,0.0,0.0,0.0,0.0,0.0,0.0,0.0,0.0,0.0,0.0,0.0,0.0,0.0,0.0,0.0,0.0,0.0,0.0,0.0,0.0,0.0,0.0,0.0,0.0,0.0,0.0,7.7904,7.8206,0.0,7.8784,7.8769,7.8683,7.8555,7.9934,8.1098,8.1762,8.3841,8.541,8.6349,8.7248,8.8281,8.9395,8.9462,9.0165,9.1557,9.1557,9.1828,9.2337,9.2316,9.1692,9.0643,9.0913,9.0342,8.917,8.7788,8.5859,8.3771,8.3502,8.3008,8.2468,8.2468,8.1422,7.9915,0.0,0.0,0.0,4.561,4.7235,4.8392,4.8392,5.1064,5.3691,5.5432,5.8874,6.2709,6.665,6.9357,7.1794,7.411,7.4303,7.3806,7.2645,7.2065,7.1253,7.0131,7.1407,7.3496,7.6353,7.895,8.1117,8.2774,8.425,8.5526,8.661,8.661,8.661,8.6532,8.483,8.3283,8.1658,7.744,7.3367,6.9532,6.7256,6.5169,6.3115,0.0,0.0,0.0,0.0,0.0,0.0,0.0,0.0,0.0,0.0,0.0,0.0,0.0,0.0,0.0,0.0,0.0,0.0,0.0,0.0,0.0,0.0,0.0,0.0,0.0,0.0,0.0,0.0,0.0,0.0,0.0,0.0,0.0,0.0,7.5562,7.7849,8.068,8.1234,8.1546,8.2015,8.2285,8.2378,8.2268,8.3402,8.4366,8.4974,8.6505,8.7751,8.8668,8.9297,9.0014,9.0826,9.1135,9.187,9.2985,9.3263,9.3688,9.4199,9.4199,9.3551,9.2502,9.3081,9.2665,9.157,9.2149,9.1006,8.883,8.8236,8.7603,8.7024,8.6716,8.5714,8.4273,0.0,0.0,0.0,4.5494,4.7235,4.8392,4.8392,5.2028,5.5393,5.7091,6.1041,6.503,6.8462,7.1098,7.3303,7.4999,7.5154,7.5115,7.5115,7.3612,7.2723,7.28,7.5204,7.7365,7.9105,8.162,8.3708,8.5372,8.6293,8.7577,8.9247,8.9247,8.9247,8.9169,8.7461,8.6184,8.5178,8.2696,7.8751,7.4005,7.2269,7.0044,6.761,0.0,0.0,0.0,0.0,0.0,0.0,0.0,0.0,0.0,0.0,0.0,0.0,0.0,0.0,0.0,0.0,0.0,0.0,0.0,0.0,0.0,0.0,0.0,0.0,0.0,0.0,0.0,0.0,0.0,0.0,0.0,0.0,0.0,7.6635,7.868,8.0923,8.2709,8.354,8.3996,8.4034,8.4744,8.5203,8.5241,8.6708,8.7702,8.7852,8.8625,8.9472,9.04,9.0439,9.0865,9.1677,9.2567,9.3024,9.307,9.3843,9.4237,9.4276,9.4276,9.4276,9.4237,9.4276,9.4276,9.4237,9.4276,9.4276,9.4107,9.2296,9.1577,9.15,9.0651,8.9764,8.846,0.0,0.0,4.4559,4.561,4.7235,4.8392,4.8392,5.2028,5.5393,5.7091,6.1582,6.592,6.9285,7.1988,7.4231,7.5895,7.6049,7.5779,7.5154,7.5276,7.5933,7.7171,7.8486,8.0266,8.2664,8.4559,8.6107,8.7183,8.866,8.9588,9.0052,9.0052,9.0052,9.0014,8.8969,8.7654,8.6177,8.5481,8.3322,8.004,7.6454,7.3867,7.1971,0.0,0.0,0.0,0.0,0.0,0.0,0.0,0.0,0.0,0.0,0.0,0.0,0.0,0.0,0.0,0.0,0.0,0.0,0.0,0.0,0.0,0.0,0.0,0.0,0.0,0.0,0.0,0.0,0.0,0.0,0.0,7.8099,7.9415,7.9183,8.0846,8.2935,8.5294,8.5739,8.6331,8.7473,8.7799,8.7917,8.7865,8.8335,8.8912,8.9591,8.9873,9.0418,9.1329,9.1329,9.1445,9.1716,9.2567,9.3302,9.3882,9.4733,9.5468,9.6087,9.6087,9.5739,9.5166,9.5816,9.5739,9.5204,9.5816,9.6087,9.5893,9.4155,9.3475,9.3437,9.3205,9.2132,9.0457,0.0,4.4249,4.4868,4.5649,4.7235,4.8392,4.8392,5.2337,5.5896,5.7637,6.2317,6.6655,6.9672,7.2026,7.4038,7.5701,7.5856,7.5817,7.5662,7.6784,7.8254,7.9956,8.1536,8.3206,8.5101,8.6803,8.8118,8.8962,8.9936,9.0594,9.0942,9.0942,9.0942,9.0903,9.0052,8.9124,8.8118,8.7028,8.5759,8.4095,8.0923,7.8177,7.5856,7.4115,7.2297,7.0474,6.8893,6.7699,6.6616,6.4909,0.0,0.0,0.0,0.0,0.0,0.0,0.0,0.0,0.0,0.0,0.0,0.0,0.0,0.0,0.0,0.0,0.0,0.0,0.0,0.0,0.0,0.0,0.0,0.0,8.1774,8.3006,8.3354,8.3979,8.5217,8.7422,8.7693,8.8066,8.8991,8.9409,8.9736,9.0047,9.047,9.1033,9.1883,9.1965,9.2218,9.2721,9.276,9.276,9.276,9.3611,9.4269,9.4779,9.5623,9.6319,9.6783,9.6783,9.6512,9.6087,9.659,9.6512,9.6087,9.659,9.6783,0.0,0.0,0.0,0.0,0.0,9.3667,9.1922,0.0,4.4752,4.51,4.5803,4.7389,4.8546,4.8546,5.272,5.6476,5.8221,6.282,6.6882,6.944,7.133,7.3109,7.469,7.4999,7.5579,7.6751,7.837,8.0111,8.2,8.425,8.5952,8.6996,8.8544,8.9743,9.0555,9.0555,9.0942,9.1716,9.1716,9.1716,9.1677,9.0903,9.0478,9.0246,8.7886,8.6835,8.6603,8.4908,8.2238,7.9105,7.7558,7.632,7.5115,7.2839,7.1955,7.164,7.0048,0.0,0.0,0.0,0.0,0.0,0.0,0.0,0.0,0.0,0.0,0.0,0.0,0.0,0.0,0.0,0.0,0.0,0.0,0.0,0.0,0.0,0.0,0.0,0.0,8.572,8.7067,8.8034,8.7531,8.7615,8.9169,8.9324,8.9402,8.9595,9.0284,9.1058,9.1909,9.2683,9.3456,9.416,9.4199,0.0,0.0,0.0,9.4199,9.4199,9.505,9.5506,9.5506,9.6396,9.6783,9.6783,9.6783,9.6783,9.6783,9.6783,9.6822,9.6768,9.6768,9.6768,9.6761,9.6776,9.6783,9.6706,9.5816,9.4578,9.3133,0.0,4.5684,4.6654,4.6809,4.8275,4.9436,4.9436,5.2647,5.5625,5.7323,6.1427,6.5146,6.7694,7.0131,7.1949,7.2993,7.4303,7.6353,7.926,8.0453,8.2387,8.5481,8.61,8.7383,8.9627,9.0014,9.0594,9.1445,9.1445,9.1522,9.1716,9.1716,9.1716,9.1677,9.1522,9.1058,9.0323,8.9163,8.8273,8.7493,8.5759,8.3438,8.0994,8.0646,7.9144,7.7132,7.663,7.6016,7.5243,7.4226,7.322,7.2181,7.075,6.8932,0.0,0.0,0.0,0.0,0.0,0.0,0.0,0.0,0.0,0.0,0.0,0.0,0.0,0.0,0.0,0.0,0.0,0.0,0.0,8.5797,8.699,8.8189,8.9704,8.9782,8.9782,9.013,9.0168,9.071,9.2141,9.2412,9.2837,9.365,9.3882,9.4044,9.4199,9.4199,9.4199,9.4199,9.4199,9.4199,9.4199,9.505,9.5506,9.5506,0.0,0.0,9.6783,9.6783,9.6783,9.6783,9.6783,9.6784,9.6731,9.6731,9.6645,9.6558,9.673,9.6783,9.6706,9.5816,9.5274,9.4888,4.6496,4.7192,4.7734,4.7734,4.8817,4.9703,4.9703,5.2608,5.5393,5.7091,6.0654,6.4019,6.6572,6.8352,7.0092,7.1794,7.427,7.7016,7.9989,8.1852,8.394,8.6487,8.7809,8.9085,9.0362,9.0826,9.1484,9.2335,9.2335,9.2567,9.2953,9.2953,9.2721,9.2335,9.2335,9.187,9.0981,9.0168,8.9549,8.9008,8.7306,8.5559,8.3973,8.3128,8.1736,8.0188,7.9763,7.9028,7.8177,7.7326,7.6475,7.5662,7.4773,7.3032,7.1175,0.0,0.0,0.0,0.0,0.0,0.0,0.0,0.0,0.0,0.0,0.0,0.0,0.0,0.0,8.1426,8.3089,0.0,8.6571,8.8234,8.8892,8.9588,9.0865,9.1445,9.1716,9.1716,9.1716,9.2218,9.3495,9.3611,9.3959,9.4779,9.4856,9.505,9.5468,9.5506,9.5506,9.5506,9.5506,9.5506,9.5506,9.5932,9.6164,9.6164,9.659,9.6783,9.6783,9.6783,9.6783,9.6783,9.6746,9.6746,9.6707,9.6621,9.6572,9.6501,9.6629,9.6684,9.6692,9.6304,9.5855,9.5429,4.8275,4.8662,4.8856,4.8662,4.9359,4.9935,4.9935,5.2414,5.489,5.6588,5.9643,6.2588,6.4948,6.6301,6.8081,7.0794,7.416,7.7287,8.0027,8.278,8.514,8.7035,8.9201,9.0555,9.0903,9.16,9.2373,9.3224,9.3224,9.3572,9.4199,9.4199,9.3843,9.3224,9.3062,9.2605,9.187,9.0826,9.04,9.0246,8.8576,8.7493,8.668,8.4985,8.367,8.2709,8.1813,8.0956,8.0066,7.926,7.8525,7.7945,7.7945,7.6436,7.4657,7.4657,7.3032,0.0,0.0,0.0,0.0,0.0,0.0,0.0,0.0,7.9995,8.1117,8.1575,8.336,8.5101,8.5913,8.7338,8.8808,9.0168,9.0671,9.1135,9.187,9.2683,9.3302,9.3456,9.334,9.3534,9.4353,9.4469,9.4817,9.57,9.5739,9.6048,9.6744,9.6783,9.6783,9.6783,9.6783,9.6783,9.6783,9.6783,9.6783,9.6783,9.6783,9.6783,9.6783,9.6783,9.6776,9.6792,9.6661,9.6659,9.6613,9.6514,9.6472,9.648,9.6497,9.6564,9.6653,9.673,9.635,9.5739,0.0,4.9587,5.0399,4.9664,5.0244,5.0782,5.0782,5.1757,5.3115,5.4851,5.7366,5.9691,6.1466,6.3826,6.6577,6.9865,7.3264,7.6662,7.9989,8.3322,8.63,8.8821,8.9859,9.1135,9.2683,9.2792,9.3263,9.4082,9.4082,9.4121,9.4199,9.4199,9.416,9.4037,9.334,9.2946,9.276,9.1097,9.04,9.0246,8.8576,8.7841,8.757,8.5836,8.4173,8.2709,8.1813,8.0956,8.0066,7.926,7.895,7.8834,7.8834,7.8138,7.7248,7.7248,7.6519,7.5668,7.5668,7.6249,7.7094,7.8177,7.9105,8.042,0.0,8.3515,8.4327,8.6564,8.726,8.7725,8.8582,8.9511,9.0168,9.0362,9.1716,9.2753,9.283,9.3534,9.4353,9.512,9.4547,9.4431,9.5274,9.5352,9.57,9.659,9.6667,9.6706,9.6783,9.6783,9.6783,9.6783,9.6783,9.6783,9.6783,9.6783,9.6783,9.6783,9.6783,9.6783,9.6783,9.6783,9.6784,9.6715,9.6506,9.6429,9.642,9.6361,9.6315,9.6325,9.6376,9.6472,9.6556,9.6645,9.6684,9.6667,0.0,5.009,5.0782,5.0476,5.067,5.0898,5.0898,5.1641,5.2844,5.4581,5.6128,5.8101,6.0809,6.3864,6.665,6.9087,7.2446,7.5856,7.9299,8.2703,8.5759,8.835,8.9704,9.0981,9.2218,9.2753,9.3379,9.4199,9.4701,9.5236,9.57,9.57,9.5429,9.4934,9.4075,9.3456,9.2908,9.1677,9.1174,9.1019,8.9317,8.835,8.7725,8.5952,8.394,8.2006,8.1613,8.0298,0.0,7.895,7.8641,7.8332,7.8834,7.8733,7.8393,7.8393,7.8438,7.8606,7.9153,7.9964,8.0891,8.1736,8.2935,8.4321,8.5952,8.6687,8.7383,8.8428,8.9047,8.9472,8.982,9.0594,9.1329,9.1832,9.2521,9.3147,9.3611,9.4423,9.5081,9.5468,9.5623,9.5855,9.6203,9.6241,9.6396,9.6783,9.6783,9.6783,9.6783,9.6783,9.6783,9.6783,9.6783,9.6783,9.6783,9.6783,9.6783,9.6783,9.6783,9.6783,9.6783,9.6777,9.6645,9.6514,9.6437,9.6367,9.6343,9.6306,9.6288,9.6288,9.6334,9.6367,9.6472,9.6651,9.6754,9.6783,0.0,5.0012,5.0631,5.0859,5.0898,5.0898,5.0898,5.1447,5.2453,5.4194,5.5161,5.6975,6.0383,6.34,6.5837,6.7617,7.0866,7.4386,7.8022,8.1703,8.4869,8.7415,8.9395,9.0826,9.1677,9.2567,9.3379,9.4199,9.5088,9.5816,9.6435,9.6706,9.6474,9.5816,9.4701,9.3882,9.3263,9.218,9.1561,9.1213,8.9788,8.8544,8.7338,8.5352,8.2986,8.0776,8.0776,7.9274,7.7341,7.7477,7.7278,7.7084,7.7935,7.8516,7.8979,7.9436,8.0459,8.1565,8.2276,8.3308,8.4366,8.4985,8.6223,8.7538,8.8382,8.9085,8.9588,8.9827,9.0362,9.0826,9.1058,9.1638,9.2335,9.3186,9.3534,9.3882,9.4469,9.5313,9.5855,9.5855,9.6435,9.6783,9.6783,9.6783,9.6783,9.6783,9.6783,9.6783,9.6783,9.6783,9.6783,9.6783,9.6783,9.6783,9.6783,9.6783,9.6783,9.6783,9.6783,9.6776,9.6792,9.6645,9.6523,9.6394,9.6367,9.6352,9.6288,9.6288,9.6288,9.6288,9.6288,9.6352,9.642,9.6548,9.6668,9.6792,0.0,0.0,4.9974,5.0743,5.0898,5.0898,5.0898,5.0937,5.1559,5.3304,5.431,5.6128,5.9571,6.1466,6.3207,6.4952,6.8163,7.1916,7.621,8.0465,8.3979,8.6526,8.9047,9.0826,9.1677,9.2567,9.3379,9.4199,9.5088,9.5506,9.5545,9.6396,9.6783,9.6706,9.4972,9.4199,9.4044,9.2412,9.1213,9.0362,8.9511,8.8157,8.6364,8.3752,8.1182,7.8986,7.8986,7.7859,7.6101,7.4423,7.4366,7.5131,7.6025,7.7446,7.9106,8.0751,8.3045,8.5032,8.5078,8.6401,8.7763,8.7763,8.8466,8.9317,9.013,9.0323,9.0594,9.1445,9.1638,9.1909,9.276,9.2946,9.3224,9.4037,9.4849,9.5429,9.5468,9.6203,9.6744,9.6744,9.6783,9.6783,9.6783,9.6783,9.6783,9.6783,9.6783,9.6783,9.6783,9.6783,9.6783,9.6783,9.6783,9.6783,9.6783,9.6783,9.6783,9.6783,9.6783,9.6784,9.6707,9.6489,9.6403,9.6394,9.6334,9.6288,9.6288,9.6288,9.6288,9.6288,9.6288,9.6352,9.6403,9.6403,9.6523,9.6723,0.0,0.0,0.0,5.0859,5.0898,5.0898,5.0898,5.0898,5.1521,5.3265,5.5745,0.0,0.0,0.0,0.0,0.0,6.7552,7.0717,7.4502,7.8216,8.1426,8.3979,8.5952,8.7693,8.9156,9.0014,9.1174,9.2528,9.3418,9.4114,9.4624,9.4934,9.5059,9.4968,9.3808,9.2967,9.2342,9.1176,8.9863,8.848,8.7669,8.597,8.3807,8.2312,7.9834,7.701,0.0,7.4732,7.2956,7.3517,7.3125,7.2732,7.4707,7.6519,7.863,8.26,8.4826,8.625,8.742,8.8218,8.8892,8.9433,8.9782,9.0207,9.1058,9.1251,9.1367,9.1638,9.1716,9.1793,9.2064,9.2605,9.3263,9.4082,9.4934,9.57,9.628,9.6628,9.6783,9.6783,9.6783,9.6783,9.6783,9.6783,9.6783,9.6783,9.6783,9.6783,9.6783,9.6783,9.6783,9.6783,9.6783,9.6783,9.6783,9.6783,9.6783,9.6783,9.673,9.6661,9.6572,9.6455,9.6358,9.6334,9.6297,9.6288,9.6288,9.6288,9.5942,9.5451,9.5451,9.5084,9.462,9.472,9.478,9.501,0.0,0.0,0.0,0.0,0.0,0.0,0.0,0.0,0.0,0.0,0.0,0.0,0.0,0.0,0.0,0.0,0.0,6.8916,7.266,7.552,7.8386,8.1247,8.2986,8.4532,8.5955,8.716,8.8243,8.9318,9.0825,9.1791,9.2301,9.2958,9.3199,9.3114,9.1948,9.1107,9.0489,8.9324,8.7858,8.6206,8.5666,8.3929,8.153,8.0351,7.8177,0.0,7.4311,7.2462,7.0812,7.2238,7.2161,7.1891,7.412,7.6836,7.9936,8.3873,8.6115,8.764,8.9074,8.9764,9.0207,9.0749,9.0865,9.1019,9.1561,9.1716,9.1716,9.1716,9.1694,9.175,9.206,9.2794,9.3645,9.4503,9.5376,9.6164,9.6706,9.6783,9.6783,9.6783,9.6783,9.6783,9.6783,9.6783,9.6783,9.6783,9.6783,9.6783,9.6783,9.6783,9.6783,9.6783,9.6783,9.6783,9.6783,9.6783,9.6807,9.6746,9.6661,9.6572,9.6442,9.6385,9.6352,9.6288,9.6288,9.6134,9.5826,9.5826,9.5326,9.4527,9.4527,9.4181,9.3719,9.3782,9.3846,9.4026,0.0,0.0,0.0,0.0,0.0,0.0,0.0,0.0,0.0,0.0,0.0,0.0,0.0,0.0,0.0,0.0,0.0,0.0,7.0687,7.2661,7.5092,7.8411,8.0154,8.1467,8.2308,8.3929,8.4817,8.4894,8.7364,8.8637,8.8753,9.0412,9.1184,9.1099,8.944,8.866,8.8467,8.6886,8.5188,8.3606,8.3568,8.2024,7.9625,7.7891,7.6167,7.4458,7.278,7.1129,6.9898,7.0706,7.1591,7.2675,7.4322,7.8305,8.2755,8.4543,8.6932,8.9204,9.0139,9.1001,9.1716,9.1716,9.1716,9.1716,9.1716,9.1677,9.1638,9.1631,9.1535,9.1716,9.2442,9.3338,9.4273,9.5123,9.6081,9.6744,9.6783,9.6783,9.6783,9.6783,9.6783,9.6783,9.6783,9.6783,9.6783,9.6783,9.6783,9.6783,9.6783,9.6783,9.6783,9.6783,9.6783,9.6783,9.6783,9.6783,9.6784,9.6707,9.6572,9.6442,9.6394,9.6334,9.6288,9.6288,9.6249,9.5749,9.4989,9.4951,9.4412,9.3633,9.3633,9.3595,9.3557,9.3557,9.3557,9.3592,0.0,0.0,0.0,0.0,0.0,0.0,0.0,0.0,0.0,0.0,0.0,0.0,0.0,0.0,0.0,0.0,0.0,0.0,6.9028,7.1427,7.3395,7.4938,7.6597,7.7909,7.8797,7.9877,8.1035,8.2277,8.3582,8.4855,8.609,8.6515,8.6709,8.6647,8.6185,8.5267,8.3934,8.351,8.2355,8.0769,8.0122,7.8698,7.6888,7.5782,7.435,7.2818,7.2374,7.1514,7.0706,7.1598,7.329,7.5221,7.6356,7.9312,8.2893,8.5372,8.7476,8.9335,9.0938,9.1508,9.1716,9.1716,9.1716,9.1716,9.1716,9.1213,9.0735,9.0678,9.0146,8.9731,8.9871,9.1183,9.2534,9.3392,9.4843,9.6048,9.6706,9.6783,9.6783,9.6783,9.6783,9.6783,9.6783,9.6783,9.6783,9.6783,9.6783,9.6783,9.6783,9.6783,9.6783,9.6783,9.6783,9.6783,9.6783,9.6783,9.6784,9.6707,9.6572,9.6442,9.6394,9.6334,9.6288,9.6249,9.5595,9.522,9.4951,9.4296,9.3557,9.2826,9.2826,9.2402,9.1825,9.1825,9.1825,9.1834,0.0,0.0,0.0,0.0,0.0,0.0,0.0,0.0,0.0,0.0,0.0,0.0,0.0,0.0,0.0,0.0,0.0,0.0,0.0,6.9296,7.0799,7.2411,7.3375,7.4454,7.5726,7.6573,7.7467,7.8399,7.9664,8.0743,8.1668,8.2053,8.2177,8.2132,8.1785,8.1062,8.0092,7.9708,7.8784,0.0,0.0,7.6053,7.4822,7.3937,7.3014,7.2136,7.179,7.1822,7.2129,7.2629,7.4459,7.685,7.8086,8.061,8.3575,8.6286,8.8035,8.9462,9.1237,9.1716,9.1716,9.1716,9.1716,9.16,9.1213,9.0721,9.0144,8.9366,8.8728,8.8321,8.8275,8.9733,9.1246,9.2134,9.4056,9.5624,9.6164,9.6551,9.6783,9.6783,9.6783,9.6783,9.6783,9.6783,9.6783,9.6783,9.6783,9.6783,9.6783,9.6783,9.6783,9.6783,9.6783,9.6783,9.6783,9.6753,9.6692,9.6605,9.6514,9.642,9.637,9.6306,9.6095,9.5711,0.0,9.4566,9.3873,9.3364,9.2672,9.1941,9.1941,9.1633,9.121,9.121,9.121,9.121,0.0,0.0,0.0,0.0,0.0,0.0,0.0,0.0,0.0,0.0,0.0,5.9152,5.9956,6.074,0.0,0.0,0.0,0.0,0.0,0.0,6.8097,7.0283,7.0514,7.1321,7.2969,7.3776,7.4238,7.4361,7.6015,7.6861,7.6984,7.7676,7.7984,7.7984,7.7292,7.6899,7.6753,7.5976,7.5245,7.4546,7.4399,7.3937,7.3238,0.0,7.2021,7.1944,7.1168,7.2007,7.3507,7.3507,7.5295,7.7831,7.9425,8.1761,8.4421,8.7055,8.8457,8.9556,9.1251,9.1716,9.1716,9.1716,9.16,9.1329,9.0541,9.0066,8.939,8.7908,8.7295,8.6993,8.6985,8.8419,8.9923,9.0975,9.3261,9.4999,9.5306,9.5971,9.6512,9.659,9.6628,9.6667,9.6783,9.6783,9.6783,9.6783,9.6783,9.6783,9.6783,9.6783,9.6783,9.6783,9.6783,9.6822,9.6807,9.6738,9.6613,9.6476,9.6437,9.6349,9.6288,9.6288,9.5826,9.4989,9.4874,9.395,9.2479,9.2364,9.1864,9.121,9.121,9.121,9.121,9.121,9.121,9.121,0.0,0.0,0.0,0.0,0.0,0.0,0.0,0.0,0.0,0.0,6.0906,6.0887,0.0,0.0,0.0,0.0,0.0,0.0,0.0,0.0,0.0,6.775,6.8436,6.9314,7.036,7.1168,7.1898,7.2629,7.3668,7.4507,7.5168,7.5284,7.5361,7.5361,7.5207,7.4776,7.4161,7.4007,7.3853,7.3661,7.2937,7.2559,7.2322,7.1475,7.1129,0.0,7.0937,7.2007,7.3507,7.3507,7.568,7.8577,7.9643,8.1803,8.4428,8.7111,8.8498,8.9556,9.1251,9.1716,9.1716,9.1716,9.1174,9.058,9.0361,8.8671,8.7044,8.6647,8.5398,8.4358,8.4287,8.5759,8.7495,8.9085,9.0983,9.2757,9.4223,9.4547,9.4934,9.5623,9.5739,9.6009,9.6744,9.6783,9.6783,9.6783,9.6783,9.6783,9.6783,9.6783,9.6783,9.6783,9.6783,9.6753,9.6731,9.6715,9.6589,9.642,9.6403,9.6349,9.6288,9.6288,9.5826,9.4951,9.4258,0.0,9.2441,9.171,9.1325,9.121,9.121,9.121,9.121,9.121,9.121,9.121,0.0,0.0,0.0,0.0,0.0,0.0,0.0,5.8986,6.1113,6.41,6.441,6.4117,6.3626,6.385,6.4164,0.0,0.0,0.0,0.0,0.0,0.0,6.7096,6.7513,6.8359,6.9667,7.009,7.0706,7.1514,0.0,7.236,7.2706,7.2706,7.2706,7.2706,7.2706,7.2514,7.2168,7.2168,7.2168,7.2129,7.1706,7.1514,7.1475,7.1052,7.0898,0.0,7.0898,7.1745,7.2899,7.3353,7.5488,7.8269,8.012,8.2473,8.5091,8.7788,8.9163,9.0091,9.1367,9.1716,9.1716,9.1716,9.1058,9.0147,8.9226,8.7669,8.5919,8.4026,8.3303,8.2833,8.237,8.4095,8.5998,8.7318,8.9795,9.1848,9.2734,9.3628,9.4353,9.4779,9.5236,9.5661,9.6087,9.6512,9.6783,9.6783,9.6783,9.6783,9.6783,9.6783,9.6783,9.6783,9.6783,9.6784,9.6707,9.6621,9.6531,9.6403,9.6349,9.6334,9.6288,9.6288,9.5826,9.4951,9.4066,0.0,9.2441,9.1556,9.121,9.121,9.121,9.121,9.121,9.121,9.121,9.121,0.0,0.0,0.0,0.0,0.0,0.0,0.0,6.0895,6.3283,6.6205,6.724,6.7233,6.6047,6.5664,6.5394,0.0,0.0,0.0,0.0,0.0,0.0,0.0,6.7096,6.7936,6.9667,0.0,0.0,7.0898,7.0898,0.0,0.0,0.0,0.0,0.0,7.0898,7.0898,7.0898,7.0898,7.0898,0.0,0.0,7.0898,7.0898,0.0,0.0,0.0,0.0,7.1745,7.2591,7.3469,7.5365,7.7785,8.0215,8.2793,8.545,8.8309,8.9606,9.0341,9.1399,9.1716,9.1716,9.1716,9.0889,8.9701,8.8123,8.6621,8.4727,8.1792,8.1339,8.1362,8.09,8.2631,8.4502,8.5791,8.8622,9.0821,9.1252,9.2678,9.3727,9.3921,9.4701,9.5274,9.5468,9.628,9.6783,9.6783,9.6783,9.6783,9.6783,9.6783,9.6783,9.6783,9.6807,9.6723,9.6675,9.6548,9.6455,9.6367,9.6325,9.6288,9.6288,9.6288,9.5826,9.4951,9.4066,0.0,0.0,9.1556,9.121,9.121,9.121,9.121,9.121,9.121,9.121,9.121,0.0,0.0,0.0,0.0,0.0,0.0,0.0,6.0882,6.2925,6.6953,6.8176,6.8881,6.9474,6.8702,6.7827,0.0,0.0,0.0,0.0,0.0,0.0,0.0,0.0,0.0,0.0,0.0,0.0,7.0898,7.0898,0.0,0.0,0.0,0.0,0.0,0.0,7.0898,7.0898,7.0898,0.0,0.0,0.0,0.0,0.0,0.0,0.0,0.0,0.0,7.2629,7.3507,7.4315,7.5791,7.7622,7.9442,8.1827,8.4592,8.8031,8.9057,8.9504,9.123,9.1716,9.1716,9.1716,9.039,8.8849,8.7849,8.5105,8.2432,8.1354,7.9908,7.9054,7.9785,8.0746,8.224,8.4712,8.6724,8.8544,9.0201,9.1279,9.2218,9.3031,9.3843,9.4624,9.5429,9.628,9.6783,9.6783,9.6783,9.6783,9.6783,9.6783,9.6783,9.6783,9.6754,9.6637,9.6501,9.6455,9.6358,9.6297,9.6288,9.6288,9.6288,9.6288,9.5826,9.4951,9.4066,0.0,0.0,9.1556,9.121,9.121,9.121,9.121,9.121,9.121,9.121,9.121,0.0,0.0,0.0,0.0,0.0,0.0,5.9633,6.1749,6.4061,6.7311,6.8805,6.9869,7.0689,7.0337,6.9501,6.8052,0.0,0.0,0.0,0.0,0.0,0.0,0.0,0.0,0.0,0.0,7.036,7.1668,7.1668,0.0,0.0,0.0,0.0,0.0,0.0,7.0898,7.0898,7.0898,0.0,0.0,0.0,0.0,0.0,0.0,0.0,0.0,0.0,0.0,7.3623,7.443,7.5515,7.6791,7.8522,8.0476,8.2871,8.6406,8.8557,8.9946,9.067,9.1255,9.1547,9.1001,8.9922,8.848,8.6501,8.4165,8.1847,7.9923,7.8984,7.86,7.8938,8.0169,8.1762,8.3833,8.5645,8.7426,8.9208,9.0286,9.1202,9.2095,9.3379,9.4353,9.4663,9.5971,9.6783,9.6783,9.6783,9.6783,9.6783,9.6783,9.6761,9.6754,9.6723,9.6605,9.6455,9.642,9.6388,9.6288,9.6288,9.6288,9.6288,9.6288,9.6095,9.5711,9.4864,0.0,0.0,9.2326,9.1672,9.121,9.121,9.121,9.121,9.121,9.121,9.121,0.0,0.0,0.0,0.0,0.0,5.5971,5.9345,6.154,6.3933,6.7044,6.8606,6.9823,7.0842,7.1081,7.0667,6.9392,6.8418,0.0,0.0,0.0,0.0,0.0,0.0,0.0,0.0,0.0,7.1014,7.2213,7.2476,7.2591,0.0,0.0,7.1867,7.1283,0.0,0.0,0.0,0.0,0.0,0.0,0.0,0.0,0.0,0.0,0.0,0.0,0.0,0.0,0.0,0.0,0.0,7.5861,7.733,7.8784,8.0777,8.4812,8.7479,8.9223,8.9747,9.0371,9.0709,9.004,8.9037,8.7641,8.5483,8.3241,8.1046,7.8915,7.8099,7.7907,7.8407,7.9485,8.1054,8.3255,8.4928,8.664,8.8629,8.9723,9.0692,9.1593,9.3186,9.4199,9.4199,9.5777,9.6783,9.6783,9.6783,9.6776,9.6753,9.6792,9.6761,9.6707,9.6659,9.6531,9.6403,9.6367,9.6361,9.6288,9.6288,9.6288,9.6288,9.6288,9.6288,9.6249,9.5374,0.0,0.0,9.2826,9.1979,9.121,9.121,9.121,9.121,9.121,9.121,9.121,0.0,0.0,0.0,0.0,0.0,0.0,5.8508,5.9757,6.185,6.6069,6.7323,6.8445,7.006,7.0852,7.1241,7.1073,7.0208,0.0,0.0,0.0,0.0,0.0,0.0,0.0,0.0,0.0,7.2175,7.2213,7.3053,7.3507,7.3469,7.2591,7.2213,7.2136,0.0,0.0,0.0,0.0,0.0,0.0,0.0,0.0,7.0898,0.0,0.0,0.0,0.0,0.0,0.0,0.0,0.0,0.0,0.0,7.663,7.8345,8.3511,8.5653,8.6716,8.846,8.8907,8.8946,8.8907,8.7611,8.6076,8.519,8.2309,7.9554,7.8677,7.7169,7.6515,7.8176,7.8523,7.9638,8.3062,8.4435,8.6006,8.856,8.9767,9.071,9.16,9.3186,9.4199,9.4199,9.5777,9.6783,9.6783,9.6783,9.6753,9.6715,9.6707,9.6707,9.6707,9.6497,9.6403,9.6403,9.6334,9.6288,9.6288,9.6288,9.6288,9.6288,9.6288,9.6288,9.6249,0.0,0.0,0.0,9.2826,9.1979,9.121,9.121,9.121,9.121,9.121,9.121,9.121,0.0,0.0,0.0,0.0,0.0,0.0,0.0,5.9388,6.1417,6.4486,6.6124,6.7828,7.0046,7.0385,7.0683,7.1145,7.0317,0.0,0.0,0.0,0.0,0.0,0.0,0.0,0.0,7.2059,7.306,7.4784,7.5053,7.5207,7.5207,7.4938,7.386,7.2175,7.1898,7.1475,0.0,0.0,0.0,0.0,0.0,7.0898,7.0898,0.0,0.0,0.0,0.0,0.0,0.0,0.0,0.0,0.0,0.0,0.0,0.0,7.9091,8.1993,8.4774,8.5915,8.6701,8.704,8.6401,8.5822,8.5021,8.3495,8.1416,7.9554,7.8677,7.7169,7.6515,7.8176,7.8977,8.0323,8.3139,8.4928,8.6601,8.8629,8.9723,9.0885,9.2405,9.4075,9.5313,9.5932,9.6474,9.6783,9.6783,9.6783,9.6753,9.6715,9.6605,9.6548,9.6489,9.6429,9.6367,9.6334,9.6306,9.6288,9.6288,9.6288,9.6288,9.6288,9.6288,9.6288,0.0,0.0,0.0,0.0,9.3681,9.2826,9.2018,9.1441,9.121,9.121,9.121,9.121,9.121,0.0,0.0,0.0,0.0,0.0,0.0,0.0,5.876,6.0764,6.335,6.5126,6.7082,6.9614,7.0084,7.0501,7.1209,7.0697,0.0,0.0,0.0,0.0,0.0,0.0,0.0,7.2175,7.3137,7.4399,7.6015,7.663,7.6938,7.6938,7.6284,7.513,7.3591,7.2636,7.1905,0.0,0.0,0.0,0.0,7.0898,7.0898,7.0898,0.0,0.0,0.0,0.0,0.0,0.0,0.0,0.0,0.0,0.0,0.0,0.0,0.0,7.8445,8.1261,8.341,8.4412,8.4789,8.4543,8.4219,8.3626,8.2185,8.0516,7.9054,7.8215,7.7215,7.6899,7.8253,7.9477,8.1016,8.3255,8.5128,8.6956,8.8668,8.9723,9.1124,9.3217,9.4655,9.5855,9.6706,9.6783,9.6783,9.6783,9.6792,9.6707,9.6621,9.6531,9.6437,9.6349,9.634,9.6352,9.6288,9.6288,9.6288,9.6288,9.6288,9.6288,9.6288,9.6288,9.6288,0.0,0.0,0.0,0.0,9.4412,9.371,9.2864,9.2018,9.171,9.1633,9.1325,9.121,9.121,0.0,0.0,0.0,0.0,0.0,0.0,0.0,5.8076,6.0054,6.2658,6.4348,6.6291,6.8903,6.9879,7.0622,7.1334,0.0,0.0,0.0,0.0,0.0,0.0,0.0,0.0,7.2367,7.4745,7.6053,7.6169,7.7869,7.8638,7.8561,7.7053,7.6245,7.5899,7.3521,7.2367,0.0,0.0,0.0,0.0,7.0975,7.0975,0.0,0.0,0.0,0.0,0.0,0.0,0.0,0.0,0.0,0.0,0.0,0.0,0.0,0.0,0.0,0.0,0.0,8.1977,8.2324,8.3139,8.2755,8.2016,8.1208,7.9715,0.0,7.7561,7.733,7.7599,7.8523,8.0054,8.1747,8.3486,8.5368,8.7132,8.8753,8.996,9.1561,9.4005,9.505,9.5893,9.6706,9.6783,9.6783,9.6776,9.6746,9.6629,9.6484,9.6446,9.6349,9.6288,9.6288,9.6288,9.6288,9.6288,9.6288,9.6288,9.6288,9.6288,9.6288,9.6288,9.6288,0.0,0.0,0.0,0.0,9.5027,9.4527,9.371,9.2903,9.2595,9.2479,9.1672,9.1364,9.1364,0.0,0.0,0.0,0.0,0.0,0.0,0.0,0.0,0.0,0.0,6.3871,6.5714,6.8945,6.9418,7.0021,0.0,0.0,0.0,0.0,0.0,0.0,0.0,0.0,0.0,7.4091,7.5361,7.663,7.7907,7.9631,8.0131,7.9515,7.9785,7.8515,7.5976,7.5361,7.4014,0.0,0.0,0.0,0.0,7.1636,7.1514,0.0,0.0,0.0,0.0,6.9975,7.0129,0.0,0.0,0.0,0.0,0.0,0.0,0.0,0.0,7.3822,7.5361,7.7015,0.0,8.0439,8.0631,8.1054,8.117,0.0,7.9285,7.8446,7.8253,7.7715,7.7946,8.0092,8.1323,8.2785,8.5132,8.7094,8.8668,8.9741,9.1854,9.3773,9.505,9.5971,9.6551,9.6783,9.6783,9.6799,9.6738,9.6715,9.6605,9.6437,9.6411,9.6349,9.6288,9.6288,9.6288,9.6288,9.6288,9.6288,9.6288,9.6288,9.6288,9.6288,9.6288,9.6288,0.0,0.0,0.0,9.5942,9.5258,9.4874,9.4604,9.3749,9.3403,9.3403,9.3172,9.3095,9.3095,0.0,0.0,0.0,0.0,0.0,0.0,0.0,0.0,0.0,0.0,0.0,0.0,0.0,0.0,0.0,0.0,0.0,0.0,0.0,0.0,0.0,0.0,0.0,7.3835,7.4718,7.6335,7.7821,7.9092,8.0823,8.1593,8.1554,8.1246,7.99,7.7669,7.5707,7.4091,0.0,0.0,0.0,7.2091,7.2168,0.0,0.0,0.0,0.0,0.0,6.9244,6.9353,0.0,7.0206,7.0591,7.0898,0.0,0.0,0.0,0.0,7.2514,7.3745,7.463,7.6976,7.9285,7.97,8.0477,8.0862,8.0008,7.9438,7.8977,7.86,7.8792,7.9592,8.1323,8.2978,8.4648,8.6459,8.8274,8.9964,9.1307,9.3406,9.4972,9.5429,9.628,9.6783,9.6783,9.6753,9.6754,9.6707,9.6597,9.6506,9.6403,9.6358,9.6343,9.6288,9.6288,9.6288,9.6288,9.6288,9.6288,9.6288,9.6288,9.6288,9.6288,9.6288,9.6288,0.0,0.0,0.0,9.6249,9.5788,9.5595,9.5518,9.4643,9.4296,9.4258,9.3835,9.371,9.371,0.0,0.0,0.0,0.0,0.0,0.0,0.0,0.0,0.0,0.0,0.0,0.0,0.0,0.0,0.0,0.0,0.0,0.0,0.0,0.0,0.0,0.0,7.4629,7.4996,7.5206,7.7575,7.922,7.9992,8.1847,8.3032,8.3563,8.2131,8.0823,7.9431,7.5584,7.3815,7.3623,7.2899,7.2937,7.343,7.2706,0.0,0.0,0.0,0.0,0.0,0.0,0.0,0.0,6.9667,7.0244,7.0898,7.0898,0.0,0.0,0.0,0.0,0.0,7.3392,7.6053,7.8715,7.9592,8.0554,8.1093,8.0362,8.0169,7.9977,7.9215,8.0362,8.1823,8.2862,8.4832,8.675,8.8064,8.9701,9.14,9.3125,9.4617,9.5545,9.5661,9.6358,9.6822,9.6807,9.6746,9.6699,9.6668,9.6489,9.6394,9.6376,9.6334,9.6288,9.6288,9.6288,9.6288,9.6288,9.6288,9.6288,9.6288,9.6288,9.6288,9.6288,9.6288,9.6288,9.6288,0.0,0.0,9.6288,9.6288,9.6288,9.6249,9.5489,9.522,9.5104,9.4364,9.4095,9.4095,0.0,0.0,0.0,0.0,0.0,0.0,0.0,0.0,0.0,0.0,0.0,0.0,0.0,0.0,0.0,0.0,0.0,0.0,0.0,0.0,0.0,7.623,7.5426,7.5664,7.7119,7.8874,8.0193,8.0999,8.3395,8.425,8.3601,8.3332,8.1601,7.86,7.6553,7.5207,7.4507,7.4353,7.4007,7.3507,7.3353,0.0,0.0,0.0,0.0,0.0,0.0,0.0,0.0,6.9436,7.0244,7.0898,7.0898,0.0,0.0,0.0,0.0,0.0,7.4091,7.6476,7.8715,7.9592,8.0977,8.2093,8.1939,8.19,8.1862,8.1747,8.2524,8.3909,8.6209,8.6967,8.8295,9.1308,9.2758,9.3863,9.4958,9.5352,9.5777,9.6512,9.6706,9.6799,9.6731,9.6715,9.6643,9.6455,9.642,9.6358,9.6315,9.6297,9.6288,9.6288,9.6288,9.6288,9.6288,9.6288,9.6288,9.6288,9.6288,9.6288,9.6288,9.6288,9.6288,9.6288,0.0,9.6288,9.6288,9.6288,9.6288,9.6288,9.6134,9.6095,9.6095,9.5942,9.5903,9.5903,0.0,0.0,0.0,0.0,0.0,0.0,0.0,0.0,0.0,0.0,0.0,0.0,0.0,0.0,0.0,0.0,0.0,0.0,0.0,7.5432,7.633,7.6797,7.6715,7.6984,7.7699,7.9758,8.1412,8.2656,8.465,8.5668,8.5666,8.3771,8.1593,7.9092,7.6976,7.5784,7.5361,7.4892,7.4776,7.4784,0.0,0.0,0.0,0.0,0.0,0.0,0.0,0.0,0.0,0.0,6.986,7.0898,7.0898,0.0,0.0,0.0,0.0,0.0,7.3584,7.5553,7.7684,7.9999,8.1816,8.3179,8.3688,8.3811,8.3973,8.4435,8.5553,8.6978,8.8597,8.967,9.0982,9.3067,9.4219,9.5006,9.5429,9.5893,9.6358,9.6744,9.6784,9.6746,9.6707,9.658,9.6489,9.6403,9.6388,9.6334,9.6288,9.6288,9.6288,9.6288,9.6288,9.6288,9.6288,9.6288,9.6288,9.6288,9.6288,9.6288,9.6288,9.6288,9.6288,9.6288,0.0,9.6288,9.6288,9.6288,9.6288,9.6288,9.6288,9.6288,9.6288,9.6288,9.6288,9.6288,0.0,0.0,0.0,0.0,0.0,0.0,0.0,0.0,0.0,0.0,0.0,0.0,0.0,0.0,0.0,0.0,0.0,0.0,0.0,7.5054,7.5917,7.6572,7.7777,7.844,7.8462,8.0705,8.274,8.4572,8.5926,8.6825,8.7155,8.4064,8.1593,7.97,7.7553,7.6361,7.5976,7.5284,7.5399,7.5861,0.0,0.0,0.0,0.0,0.0,0.0,0.0,0.0,0.0,0.0,0.0,0.0,0.0,0.0,0.0,7.0898,7.0898,7.1321,7.3276,7.5014,7.716,8.0651,8.2778,8.4281,8.5451,8.6006,8.6476,8.7171,8.8637,9.0065,9.0914,9.2512,9.3825,9.4327,9.5199,9.5816,9.5816,9.6396,9.6783,9.6783,9.6754,9.6699,9.6675,9.6497,9.6385,9.6367,9.6334,9.6288,9.6288,9.6288,9.6288,9.6288,9.6288,9.6288,9.6288,9.6288,9.6288,9.6288,9.6288,9.6288,9.6288,9.6288,9.6288,9.6288,9.6288,9.6288,9.6288,9.6288,9.6288,9.6288,9.6288,9.6288,9.6288,9.6288,9.6288,9.6288,0.0,0.0,0.0,0.0,0.0,0.0,0.0,0.0,0.0,0.0,0.0,0.0,0.0,0.0,0.0,0.0,0.0,0.0,0.0,7.4811,7.5733,7.5785,7.8128,7.9703,8.0392,8.2048,8.4061,8.6487,8.7359,8.7304,8.6346,8.4411,8.217,7.9738,7.8746,7.7445,7.6015,7.5938,7.5938,7.5861,7.4161,0.0,0.0,0.0,0.0,0.0,0.0,0.0,0.0,0.0,0.0,0.0,0.0,0.0,7.0898,7.0898,7.0898,7.1437,7.393,7.5861,7.806,8.161,8.3702,8.536,8.7017,8.8668,8.9872,8.991,9.1261,9.2689,9.3576,9.5184,9.6182,9.553,9.6125,9.6706,9.6706,9.6744,9.6783,9.6783,9.6754,9.6637,9.6548,9.6455,9.6358,9.6306,9.6288,9.6288,9.6288,9.6288,9.6288,9.6288,9.6288,9.6288,9.6288,9.6288,9.6288,9.6288,9.6288,9.6288,9.6288,9.6288,9.6288,9.6288,9.6288,9.6288,9.6288,9.6288,9.6288,9.6288,9.6288,9.6288,9.6288,9.6288,9.6288,9.6288,0.0,0.0,0.0,0.0,0.0,0.0,0.0,0.0,0.0,0.0,0.0,6.9453,7.0581,7.1163,7.1623,0.0,0.0,0.0,7.3168,7.3776,7.4611,7.5635,7.7143,7.8835,8.0677,8.2824,8.5146,8.7619,8.8307,8.8134,8.7108,8.4789,8.2361,7.9888,7.9008,7.767,7.6055,7.6055,7.6027,7.5861,7.4161,7.3507,0.0,0.0,0.0,0.0,0.0,0.0,0.0,0.0,6.9507,7.0898,7.0898,7.0898,7.0898,7.0898,7.1283,7.2129,7.4161,7.6322,7.8906,8.2466,8.498,8.7117,8.8934,9.0277,9.1443,9.2487,9.3608,9.4729,9.5579,9.6297,9.6676,9.635,9.659,9.6783,9.6783,9.6783,9.6768,9.6754,9.6637,9.6548,9.6455,9.6358,9.6325,9.6288,9.6288,9.6288,9.6288,9.6288,9.6288,9.6288,9.6288,9.6288,9.6288,9.6288,9.6288,9.6288,9.6288,9.6288,9.6288,9.6288,9.6288,9.6288,9.6288,9.6288,9.6288,9.6288,9.6288,9.6288,9.6288,9.6288,9.6288,9.6288,9.6288,9.6288,0.0,0.0,0.0,0.0,0.0,0.0,0.0,0.0,0.0,0.0,0.0,0.0,0.0,7.124,7.17,0.0,0.0,0.0,7.2752,7.3046,7.3841,7.5246,7.6376,7.8204,8.0737,8.2726,8.5114,8.7865,8.8499,8.8301,8.7331,8.4962,8.2634,8.0433,7.9275,7.7961,7.6551,7.6254,7.6083,7.5897,7.4175,7.3507,0.0,0.0,0.0,0.0,0.0,0.0,0.0,0.0,6.9353,7.0552,7.0821,7.1091,7.1321,7.1321,7.2091,7.329,7.4735,7.7013,7.9721,8.3035,8.5972,8.8588,9.0721,9.187,9.2876,9.4307,9.5313,9.6087,9.6706,9.6783,9.6783,9.6783,9.6783,9.6783,9.6783,9.6761,9.6769,9.6715,9.6564,9.6463,9.6403,9.6343,9.6288,9.6288,9.6288,9.6288,9.6288,9.6288,9.6288,9.6288,9.6288,9.6288,9.6288,9.6288,9.6288,9.6288,9.6288,9.6288,9.6288,9.6288,9.6288,9.6288,9.6288,9.6288,9.6288,9.6288,9.6288,9.6288,9.6288,9.6288,9.6288,9.6288,9.6288,9.6288,0.0,0.0,0.0,0.0,0.0,0.0,0.0,0.0,6.7226,6.8086,6.8202,0.0,0.0,0.0,0.0,0.0,7.1987,0.0,7.1895,7.271,7.3546,7.4352,7.6064,7.8165,8.0737,8.1675,8.3763,8.7187,8.7783,8.7608,8.6648,8.4817,8.3096,8.14,7.9692,7.8417,7.755,7.6578,7.6159,7.5936,7.4197,7.3507,7.3315,0.0,0.0,0.0,0.0,0.0,0.0,0.0,6.8968,6.986,7.0629,7.1475,7.2213,7.2213,7.3399,7.4913,7.5884,7.7985,8.061,8.3343,8.6553,8.9736,9.2391,9.3611,9.4469,9.532,9.6203,9.6783,9.6783,9.6783,9.6783,9.6783,9.6783,9.6783,9.6783,9.6754,9.6707,9.6707,9.6514,9.6403,9.6394,9.6343,9.6288,9.6288,9.6288,9.6288,9.6288,9.6288,9.6288,9.6288,9.6288,9.6288,9.6288,9.6288,9.6288,9.6288,9.6288,9.6288,9.6288,9.6288,9.6288,9.6288,9.6288,9.6288,9.6288,9.6288,9.6288,9.6288,9.6288,9.6288,9.6288,9.6288,9.6288,9.6288,0.0,0.0,0.0,0.0,0.0,0.0,0.0,0.0,6.7226,6.8086,6.8202,0.0,0.0,0.0,0.0,0.0,0.0,7.1974,7.1895,7.2125,7.2925,7.4352,7.4895,7.6649,7.9802,8.1948,8.4075,8.6292,8.6998,8.6574,8.5117,8.392,8.2459,8.0756,7.9629,7.8612,7.7622,7.6076,7.5349,7.5092,7.3355,7.2639,7.2476,0.0,0.0,0.0,0.0,0.0,0.0,0.0,0.0,0.0,6.9975,7.1052,7.2213,7.2213,7.3822,7.5952,7.7463,8.0189,8.3232,8.6008,8.8748,9.1359,9.3365,9.4501,9.5352,9.6241,9.6628,9.6783,9.6783,9.6783,9.6783,9.6783,9.6783,9.6783,9.6783,9.6754,9.6683,9.658,9.6472,9.6367,9.6334,9.6306,9.6288,9.6288,9.6288,9.6288,9.6288,9.6288,9.6288,9.6288,9.6288,9.6288,9.6288,9.6288,9.6288,9.6288,9.6288,9.6288,9.6288,9.6288,9.6288,9.6288,9.6288,9.6288,9.6288,9.6288,9.6288,9.6288,9.6288,9.6288,9.6288,9.6288,9.6288,9.6288,0.0,0.0,0.0,0.0,0.0,0.0,6.668,6.7187,6.7617,6.8125,6.8162,6.8665,0.0,0.0,0.0,7.1364,7.148,7.1584,7.1895,7.1891,7.2652,7.4313,7.4739,7.6532,7.9958,8.2221,8.3731,8.4409,8.551,8.536,8.3999,8.3446,8.2414,8.1057,7.9826,7.8961,7.8268,7.6077,7.5105,7.4847,7.308,7.2354,7.2179,0.0,0.0,0.0,0.0,0.0,0.0,0.0,0.0,0.0,6.959,7.0591,7.1822,7.2514,7.4514,7.689,7.87,8.1658,8.4819,8.7241,9.0028,9.271,9.4764,9.5623,9.6164,9.6706,9.6783,9.6783,9.6783,9.6783,9.6783,9.6783,9.6783,9.6776,9.6746,9.6668,9.658,9.6489,9.6394,9.6352,9.6288,9.6288,9.6288,9.6288,9.6288,9.6288,9.6288,9.6288,9.6288,9.6288,9.6288,9.6288,9.6288,9.6288,9.6288,9.6288,9.6288,9.6288,9.6288,9.6288,9.6288,9.6288,9.6288,9.6288,9.6288,9.6288,9.6288,9.6288,9.6288,9.6288,9.6288,9.6288,9.6288,9.6288,0.0,0.0,6.2461,6.414,0.0,6.5898,6.6758,6.7656,6.8203,6.8203,6.8121,6.8427,0.0,0.0,0.0,7.0424,7.0659,7.0997,7.1739,7.1852,7.2652,7.4313,7.548,7.7542,8.0737,8.2416,8.2887,8.2107,8.3707,8.404,8.3187,8.319,8.2781,8.1921,8.0174,7.9314,7.9036,7.634,7.5061,7.4746,7.3058,7.2375,7.2198,7.1349,0.0,0.0,0.0,0.0,0.0,0.0,0.0,0.0,6.9321,7.0206,7.1245,7.2892,7.5245,7.7713,7.9604,8.2617,8.5656,8.7536,9.0587,9.3766,9.6241,9.6783,9.6783,9.6783,9.6783,9.6783,9.6783,9.6783,9.6783,9.6783,9.6776,9.6792,9.6715,9.658,9.6489,9.6411,9.6352,9.6288,9.6288,9.6288,9.6288,9.6288,9.6288,9.6288,9.6288,9.6288,9.6288,9.6288,9.6288,9.6288,9.6288,9.6288,9.6288,9.6288,9.6288,9.6288,9.6288,9.6288,9.6288,9.6288,9.6288,9.6288,9.6288,9.6288,9.6288,9.6288,9.6288,9.6288,9.6288,9.6288,9.6288,9.6288,0.0,0.0,6.4062,6.5156,0.0,0.0,6.6758,6.7656,6.8203,6.8203,6.8121,6.8427,6.9286,6.8606,0.0,6.9606,7.0309,7.0762,7.0881,7.1501,7.2652,7.4313,7.7155,7.9334,8.0776,8.1831,8.2302,8.2107,8.315,8.3224,8.2367,8.2361,8.228,8.2004,8.0263,7.9074,7.8278,7.5557,7.3989,7.3181,7.208,7.1616,7.1446,7.0551,6.9585,0.0,0.0,0.0,0.0,0.0,0.0,0.0,6.8642,6.9699,7.1091,7.2168,7.4791,7.7829,8.0337,8.3505,8.659,8.8432,9.1445,9.4423,9.6358,9.6783,9.6783,9.6783,9.6783,9.6783,9.6783,9.6783,9.6783,9.6783,9.6769,9.6723,9.6707,9.6531,9.642,9.6403,9.6352,9.6288,9.6288,9.6288,9.6288,9.6288,9.6288,9.6288,9.6288,9.6288,9.6288,9.6288,9.6288,9.6288,9.6288,9.6288,9.6288,9.6288,9.6288,9.6288,9.6288,9.6288,9.6288,9.6288,9.6288,9.6288,9.6288,9.6288,9.6288,9.6288,9.6288,9.6288,9.6288,9.6288,9.6288,9.6288,0.0,0.0,0.0,0.0,0.0,0.0,0.0,0.0,6.8828,6.8788,6.8745,6.8894,6.9359,6.8251,0.0,0.0,6.9209,6.9779,7.0569,7.1025,7.2406,7.4898,7.7542,7.9334,8.0153,8.0623,8.0857,8.0857,8.1714,8.2143,8.2107,8.2536,8.2497,8.2029,8.0724,7.9419,7.8043,7.5394,7.3737,7.2759,7.1918,7.1516,7.1334,7.0477,6.9585,6.8839,6.8825,0.0,0.0,0.0,0.0,0.0,0.0,0.0,6.9937,7.1206,7.3707,7.6621,7.9285,8.255,8.6011,8.9515,9.2296,9.4547,9.5893,9.6512,9.6783,9.6783,9.6783,9.6783,9.6783,9.6783,9.6783,9.6783,9.6761,9.6691,9.6605,9.6489,9.6385,9.637,9.6315,9.6288,9.6288,9.6288,9.6288,9.6288,9.6288,9.6288,9.6288,9.6288,9.6288,9.6288,9.6288,9.6288,9.6288,9.6288,9.6288,9.6288,9.6288,9.6288,9.6288,9.6288,9.6288,9.6288,9.6288,9.6288,9.6288,9.6288,9.6288,9.6288,9.6288,9.6288,9.6288,9.6288,9.6288,9.6288,0.0,0.0,0.0,0.0,0.0,0.0,0.0,0.0,0.0,6.9216,6.9172,6.9165,6.9196,6.7623,6.6951,0.0,0.0,0.0,7.0056,7.0578,7.2269,7.5558,7.7233,7.8477,7.9295,7.9295,7.9295,7.9295,8.0153,8.1091,8.2107,8.3003,8.3081,8.2497,8.1481,8.0062,7.8248,7.5716,7.3967,7.285,7.2033,7.1696,7.1505,7.065,6.9869,6.924,6.9238,6.8584,6.7764,6.7938,0.0,0.0,0.0,0.0,6.852,7.0206,7.2399,7.4875,7.7656,8.1164,8.527,9.039,9.2746,9.4068,9.5236,9.6048,9.6628,9.6783,9.6783,9.6783,9.6783,9.6783,9.6822,9.6768,9.6738,9.6613,9.6484,9.6429,9.634,9.6297,9.6288,9.6288,9.6288,9.6288,9.6288,9.6288,9.6288,9.6288,9.6288,9.6288,9.6288,9.6288,9.6288,9.6288,9.6288,9.6288,9.6288,9.6288,9.6288,9.6288,9.6288,9.6288,9.6288,9.6288,9.6288,9.6288,9.6288,9.6288,9.6288,9.6288,9.6288,9.6288,9.6288,9.6288,9.6288,9.6288,0.0,0.0,0.0,0.0,0.0,0.0,0.0,0.0,0.0,0.0,6.8308,6.8259,6.8258,6.6763,6.6087,6.6894,6.6969,6.7342,6.8277,0.0,0.0,7.5596,7.6649,7.7584,7.8438,7.8477,7.8477,7.8477,7.9295,8.0506,8.2107,8.3003,8.3744,8.4289,8.2653,8.0971,7.9172,7.6604,7.4596,7.3007,7.2144,7.1732,7.1584,7.0774,7.0385,7.0304,7.0218,6.9589,6.8915,6.9608,6.8766,0.0,0.0,0.0,6.7699,6.9373,7.1129,7.3266,7.6654,8.1172,8.5996,9.0487,9.1784,9.2572,9.4958,9.5584,9.5893,9.6628,9.6783,9.6783,9.6783,9.6783,9.6761,9.6731,9.6605,9.6514,9.6429,9.637,9.6297,9.6288,9.6288,9.6288,9.6288,9.6288,9.6288,9.6288,9.6288,9.6288,9.6288,9.6288,9.6288,9.6288,9.6288,9.6288,9.6288,9.6288,9.6288,9.6288,9.6288,9.6288,9.6288,9.6288,9.6288,9.6288,9.6288,9.6288,9.6288,9.6288,9.6288,9.6288,9.6288,9.6288,9.6288,9.6288,9.6288,9.6288,0.0,0.0,0.0,0.0,0.0,0.0,0.0,0.0,0.0,0.0,0.0,6.8098,6.8092,6.6558,6.5688,6.6034,6.6053,6.6609,6.7938,7.038,7.2323,7.3453,7.4817,7.5713,7.6103,7.6103,7.6337,7.6843,7.8165,8.0195,8.2848,8.4211,8.5066,8.5377,8.464,8.2766,8.0075,7.8009,7.586,7.3787,7.3394,7.3541,7.384,7.3026,7.2675,7.2555,7.1547,7.0576,6.9752,6.9631,6.8687,6.7537,6.743,0.0,0.0,0.0,6.9809,7.2458,7.6885,8.0788,8.458,8.8389,9.0458,9.2095,9.4165,9.5022,9.5602,9.6452,9.6645,9.6676,9.6768,9.6784,9.6746,9.6715,9.6548,9.6446,9.6403,9.6352,9.6288,9.6288,9.6288,9.6288,9.6288,9.6288,9.6288,9.6288,9.6288,9.6288,9.6288,9.6288,9.6288,9.6288,9.6288,9.6288,9.6288,9.6288,9.6288,9.6288,9.6288,9.6288,9.6288,9.6288,9.6288,9.6288,9.6288,9.6288,9.6288,9.6288,9.6288,9.6288,9.6288,9.6288,9.6288,9.6288,9.6288,9.6288,0.0,0.0,0.0,0.0,0.0,0.0,0.0,0.0,0.0,0.0,0.0,6.7781,6.7767,0.0,0.0,0.0,6.5601,6.6193,6.7881,6.9985,7.1352,7.178,7.3258,7.4077,7.4077,7.4077,7.4505,7.5363,7.7116,7.9727,8.312,8.5299,8.6546,8.6936,8.6507,8.4637,8.1672,7.9763,7.7542,7.5402,7.5402,7.5908,7.661,7.6181,7.6025,7.5827,7.4287,7.2896,7.1573,7.047,6.9302,6.8235,6.7953,6.764,0.0,0.0,0.0,7.1874,7.6402,7.9497,8.237,8.603,8.8714,9.1037,9.3166,9.4332,9.5258,9.6299,9.6492,9.6534,9.67,9.6676,9.6629,9.6643,9.6489,9.6394,9.6367,9.6334,9.6288,9.6288,9.6288,9.6288,9.6288,9.6288,9.6288,9.6288,9.6288,9.6288,9.6288,9.6288,9.6288,9.6288,9.6288,9.6288,9.6288,9.6288,9.6288,9.6288,9.6288,9.6288,9.6288,9.6288,9.6288,9.6288,9.6288,9.6288,9.6288,9.6288,9.6288,9.6288,9.6288,9.6288,9.6288,9.6288,9.6288,9.6288,0.0,0.0,0.0,0.0,0.0,0.0,6.9481,6.8655,0.0,0.0,0.0,6.6869,6.6853,6.6031,6.5821,6.6562,6.5934,6.6193,6.7881,6.8894,7.0144,7.1741,7.2674,0.0,7.3181,7.3181,7.357,7.4466,7.622,7.8831,8.2224,8.5572,8.8027,8.9547,8.7871,8.6157,8.4325,8.175,7.9685,7.8087,7.8087,7.8594,7.9373,8.0153,8.0464,8.0347,7.9412,7.7485,7.508,7.3441,7.1662,7.0001,6.9175,6.8248,6.7634,0.0,0.0,0.0,7.4168,7.6753,7.9738,8.4058,8.6431,8.8605,9.2001,9.3444,9.4525,9.6145,9.6492,9.6492,9.6501,9.6501,9.6467,9.6429,9.6403,9.6367,9.6306,9.6288,9.6288,9.6288,9.6288,9.6288,9.6288,9.6288,9.6288,9.6288,9.6288,9.6288,9.6288,9.6288,9.6288,9.6288,9.6288,9.6288,9.6288,9.6288,9.6288,9.6288,9.6288,9.6288,9.6288,9.6288,9.6288,9.6288,9.6288,9.6288,9.6288,9.6288,9.6288,9.6288,9.6288,9.6288,9.6288,9.6288,9.6288,9.6288,0.0,0.0,0.0,0.0,0.0,0.0,7.0362,6.9966,6.9452,0.0,0.0,0.0,0.0,6.7132,6.6377,6.6672,6.6422,6.6758,6.7917,6.9323,7.0417,7.1001,7.2362,7.283,7.2284,7.2791,7.3531,7.4388,7.5596,7.8207,8.2146,8.4481,8.678,8.8962,8.8884,8.791,8.6157,8.4169,8.2299,8.0779,8.1364,8.2416,8.378,8.4598,8.526,8.5572,8.4169,8.2331,8.0254,7.7975,7.5644,7.3459,7.1968,7.0098,6.8369,6.7945,6.8598,6.999,7.2534,7.5043,7.7858,8.1623,8.4211,8.6728,9.0141,9.1574,9.2854,9.5087,9.555,9.5704,9.6272,9.6403,9.6437,9.6403,9.6349,9.6325,9.6288,9.6288,9.6288,9.6288,9.6288,9.6288,9.6288,9.6288,9.6288,9.6288,9.6288,9.6288,9.6288,9.6288,9.6288,9.6288,9.6288,9.6288,9.6288,9.6288,9.6288,9.6288,9.6288,9.6288,9.6288,9.6288,9.6288,9.6288,9.6288,9.6288,9.6288,9.6288,9.6288,9.6288,9.6288,9.6288,9.6288,9.6288,9.6288,9.6288,0.0,7.3343,7.3536,7.2939,0.0,7.2108,7.1238,7.0842,7.0444,6.9884,0.0,0.0,0.0,0.0,6.8344,6.8025,6.8008,6.8115,6.8427,6.979,7.0728,7.1001,7.2362,7.2986,7.2674,7.3258,7.396,7.4856,7.5713,7.8012,8.1714,8.3429,8.5494,8.7676,8.8261,8.8027,8.7092,8.5728,8.4484,8.351,8.4637,8.6312,8.83,8.9703,9.0755,9.1339,8.9936,8.8144,8.5997,8.3055,8.0351,7.7757,7.5378,7.2413,6.9588,6.8261,6.8436,6.9506,7.1451,7.3839,7.6485,7.9558,8.2201,8.4925,8.8286,8.9932,9.1402,9.3681,9.4604,9.5181,9.5749,9.615,9.6388,9.6388,9.6334,9.6288,9.6288,9.6288,9.6288,9.6288,9.6288,9.6288,9.6288,9.6288,9.6288,9.6288,9.6288,9.6288,9.6288,9.6288,9.6288,9.6288,9.6288,9.6288,9.6288,9.6288,9.6288,9.6288,9.6288,9.6288,9.6288,9.6288,9.6288,9.6326,9.6596,9.6557,9.6288,9.6288,9.6288,9.6288,9.6288,9.648,9.6711,9.6711,9.6903,9.7134,7.4468,7.466,7.4656,7.4604,7.3848,7.2977,7.2158,7.1283,7.076,7.0756,0.0,0.0,0.0,0.0,0.0,7.0809,7.0728,7.0339,6.952,7.0222,7.1079,7.1858,7.2752,7.3609,7.4427,7.4505,7.4934,7.5752,7.661,7.8282,8.0776,8.2494,8.425,8.5884,8.5923,8.639,8.7092,8.6312,8.604,8.6274,8.7949,9.0209,9.2816,9.5392,9.6912,9.7574,9.6717,9.4807,9.2154,8.8686,8.5743,8.2908,7.9247,7.5119,7.1271,6.9435,6.9458,7.0252,0.0,0.0,0.0,7.7936,8.0436,8.3187,8.6542,8.8594,9.0287,9.2095,9.3758,9.4912,9.4951,9.5634,9.6249,9.6249,9.6288,9.6288,9.6288,9.6288,9.6288,9.6288,9.6288,9.6288,9.6288,9.6288,9.6288,9.6288,9.6288,9.6288,9.6288,9.6288,9.6288,9.6288,9.6288,9.6288,9.6288,9.6288,9.6288,9.6288,9.6288,9.6326,9.6326,9.6326,9.6365,9.6442,9.7211,9.7096,9.6365,9.6365,9.6365,9.6365,9.6365,9.6865,9.7557,9.7557,9.8057,9.8788,7.5432,7.5966,7.6385,7.6379,7.5661,7.4983,7.4749,7.4509,7.4342,0.0,0.0,0.0,7.5572,7.5023,7.4319,7.3417,7.3336,7.3258,7.2986,7.3219,7.3453,7.3687,7.5129,7.5752,7.5363,7.6571,7.7038,7.6649,7.6882,7.7701,7.9023,8.0737,8.2104,8.3237,8.4484,8.5182,8.5416,8.5845,8.7053,8.8884,9.0634,9.3249,9.6366,9.8977,10.0886,10.2094,10.1899,10.0497,9.8463,0.0,9.2086,8.7695,8.0454,7.6412,7.3915,7.1606,7.1456,7.2146,7.2328,0.0,0.0,0.0,0.0,0.0,8.4127,8.6021,8.8045,9.0949,9.1941,9.2633,9.3835,9.4249,9.4634,9.5258,9.5903,9.6288,9.6288,9.6288,9.6288,9.6288,9.6288,9.6288,9.6288,9.6288,9.6288,9.6288,9.6288,9.6288,9.6288,9.6288,9.6288,9.6288,9.6288,9.6288,9.6288,9.6288,9.6288,9.6288,9.6288,9.6596,9.7173,9.7173,9.7519,9.8134,9.8327,9.8288,9.8096,9.8096,9.8096,9.8096,9.8096,9.825,9.8442,9.8442,9.8596,9.8788,7.682,7.7589,7.8281,7.8622,7.7977,7.7492,7.7882,7.7599,7.747,0.0,0.0,0.0,8.012,7.9415,7.8558,7.7701,7.696,7.622,7.5519,7.5129,7.509,7.548,7.6454,7.7077,7.7272,7.8282,7.8555,7.8048,7.8048,7.8477,7.9373,8.0347,8.1286,8.2146,8.3159,8.3822,8.425,8.5494,8.7481,9.0014,9.2469,9.5743,9.9483,10.2796,10.5095,10.6614,10.7004,10.6018,10.4205,10.1491,9.6576,9.0427,8.3944,7.994,7.7225,7.5043,7.4483,7.4534,7.4485,7.5461,7.6648,7.7362,0.0,0.0,8.2772,8.458,8.6447,8.8719,9.0017,9.1108,9.2464,9.2968,9.348,9.4335,9.4864,9.548,9.6211,9.6288,9.6288,9.6288,9.6288,9.6288,9.6288,9.6288,9.6288,9.6288,9.6288,9.6288,9.6288,9.6288,9.6442,9.6788,9.6788,9.698,9.7326,9.7326,9.7326,9.7326,9.7326,9.7596,9.8057,9.8057,9.8327,9.8827,9.9183,9.9336,9.9375,9.9712,9.9442,9.8788,9.8788,9.9029,9.9336,9.9336,9.9558,9.9827,0.0,7.9452,8.0263,8.1175,8.0602,8.031,8.1207,8.0599,8.0425,0.0,8.2455,8.3744,8.5377,8.4793,8.39,8.3042,8.1286,7.949,7.7818,7.6804,7.6571,7.7233,7.7389,7.8165,7.9763,7.9802,7.9802,7.9802,7.9685,7.9997,8.0659,8.0737,8.1208,8.1951,8.2068,8.2575,8.351,8.526,8.7598,9.0404,9.3794,9.7808,10.2094,10.6381,10.9108,11.0706,11.168,11.0987,10.9111,10.6186,9.9885,9.2567,8.8961,8.5,8.1349,7.9562,7.8398,7.7609,7.7529,7.8023,7.869,7.9282,7.9973,0.0,8.2323,8.3816,8.5218,8.6221,8.8105,8.9899,9.0854,9.1596,9.2343,9.3151,9.3373,9.4057,9.5903,9.6172,9.6172,9.6288,9.6288,9.6288,9.6288,9.6288,9.6288,9.6288,9.6288,9.6288,9.6288,9.6365,9.6749,9.748,9.7596,9.8019,9.8788,9.8788,9.8788,9.8788,9.8788,9.8865,9.8942,9.8942,9.8981,9.9135,9.9913,10.0221,10.0298,10.1019,10.0404,9.9096,9.9096,9.9558,10.0221,10.0221,10.0712,10.1279,8.1176,8.1585,8.2187,8.3683,8.3226,8.2932,8.3828,8.3783,8.4247,8.5767,8.7949,8.9742,9.079,9.0131,8.9235,8.8378,8.6118,8.4013,8.226,8.0662,7.9568,7.9023,7.9685,8.0542,8.1562,8.1601,8.1601,8.1601,8.0893,8.0269,7.9763,8.0464,8.0893,8.1088,8.1792,8.2575,8.351,8.526,8.8261,9.2193,9.5626,9.9561,10.3887,10.8212,11.0901,11.2615,11.4213,11.3987,11.2416,10.77,10.3091,9.8544,9.3804,0.0,0.0,8.5156,8.3374,8.212,8.2044,8.1686,0.0,0.0,0.0,0.0,8.2638,8.3066,8.3876,8.5952,8.6766,8.7586,8.9108,8.9453,8.9773,9.0581,9.1253,9.2518,9.4912,9.5258,9.5518,9.6211,9.6288,9.6288,9.6288,9.6288,9.6288,9.6288,9.6288,9.6288,9.6288,9.6903,9.7326,9.7519,9.8173,9.8634,9.8788,9.8788,9.8788,9.8788,9.8788,9.9173,9.9837,9.9837,10.0212,10.0789,10.1019,10.1096,10.1096,10.1202,10.1087,10.0789,10.0789,10.0894,10.1096,10.1096,10.1212,10.1279,8.1923,8.2492,8.3332,8.5058,8.5312,8.5728,8.7053,8.7988,8.9157,9.0833,9.3716,9.5743,9.621,9.5859,9.5041,9.3755,9.13,8.8927,8.6741,8.4598,8.3,8.2143,8.2104,8.2494,8.3393,8.3393,8.3198,8.277,8.2299,8.1636,8.0818,8.1675,8.2104,8.2143,8.3468,8.4289,8.4871,8.7443,9.0287,9.3366,9.6756,10.1198,10.6303,11.0083,11.32,11.5616,11.6391,11.5921,11.4088,11.0105,10.6488,0.0,0.0,9.5279,9.2401,0.0,8.8244,8.705,8.6136,0.0,0.0,8.4661,0.0,0.0,0.0,8.3964,8.3984,8.5104,8.532,8.5688,8.6893,8.7393,8.785,8.8619,8.9456,9.0569,9.2219,9.3557,9.4518,9.4941,9.5018,9.5018,9.5018,9.5403,9.5826,9.6288,9.6288,9.648,9.6865,9.7288,9.7904,9.875,9.9221,9.9635,10.0019,10.0019,10.0019,10.0019,10.0019,10.0289,10.0712,10.0712,10.0904,10.1279,10.1279,10.1279,10.1279,10.1279,10.1279,10.1279,10.1279,10.1279,10.1279,10.1279,10.1279,10.1279,8.239,8.3162,8.4209,8.5929,8.6897,8.8027,8.9781,9.1534,9.3599,9.6288,9.9522,10.1705,10.2016,10.1899,10.1081,9.9405,9.6876,9.4223,9.1456,8.8884,8.6936,8.5728,8.4832,8.4637,8.5182,8.5027,8.4601,8.39,8.3744,8.3276,8.2614,8.3315,8.3744,8.3978,8.5533,8.6429,8.6936,9.0209,9.2781,9.4967,9.8392,10.299,10.8216,11.1602,11.4992,11.7988,11.8204,11.721,11.5407,11.2711,10.9694,10.6588,10.3217,10.0013,0.0,0.0,0.0,0.0,0.0,0.0,0.0,0.0,0.0,8.6323,0.0,0.0,0.0,8.4543,8.4526,8.4688,8.5249,8.5932,8.6563,8.7002,8.7919,8.8749,8.9359,9.1352,9.292,9.3412,9.3595,9.371,9.371,9.4335,9.5104,9.598,9.6057,9.648,9.7442,9.7673,9.8481,10.0106,10.0298,10.0596,10.1279,10.1279,10.1279,10.1279,10.1279,10.1279,10.1279,10.1279,10.1279,10.1279,10.1279,10.1279,10.1279,10.1279,10.1279,10.1279,10.1279,10.1279,10.1279,10.1279,10.1279,10.1279,8.4061,8.449,8.5064,8.6787,8.7793,8.8923,9.0673,9.243,9.5782,10.2094,10.5212,10.7511,10.8991,10.8485,10.7398,10.5605,10.3107,10.0185,9.6834,9.4226,9.1732,8.9313,8.8378,8.7598,8.6936,8.6235,8.5806,8.5689,8.491,8.4484,8.4406,8.4523,8.4949,8.5728,8.6663,8.791,8.9547,9.2278,9.5279,9.8509,10.1899,10.5095,10.8216,11.1602,11.4992,11.8096,11.8703,11.8387,11.7191,0.0,11.2311,11.0115,0.0,10.4283,10.2288,0.0,0.0,0.0,0.0,0.0,0.0,0.0,8.9986,0.0,0.0,0.0,8.4773,8.5425,0.0,8.5525,8.5568,0.0,0.0,8.5655,8.6766,8.7727,8.7756,8.8703,9.018,9.2373,9.3249,9.371,9.371,9.3796,9.422,9.5066,9.5143,9.5835,9.7403,9.8211,9.9096,10.0106,10.0789,10.1202,10.1279,10.1279,10.1279,10.1279,10.1279,10.1279,10.1279,10.1279,10.1279,10.1279,10.1279,10.1279,10.1279,10.1279,10.1279,10.1279,10.1279,10.1279,10.1279,10.1279,10.1279,10.1279,8.4464,8.4698,8.5393,8.7563,8.9079,9.0755,9.2976,9.7773,10.2683,10.7004,11.0784,11.3317,11.4018,11.4615,11.409,11.1913,10.97,10.6989,10.3602,10.0514,9.7648,9.5077,9.3195,9.1573,9.0248,8.9391,8.8222,8.6702,8.6312,8.565,8.4715,8.5689,8.6624,8.7559,8.9936,9.1924,9.3677,9.6288,9.9094,10.2016,10.5017,10.829,11.168,11.3706,11.6494,11.9611,12.0316,11.9715,11.8305,0.0,11.4914,0.0,0.0,0.0,0.0,0.0,0.0,0.0,0.0,0.0,0.0,0.0,0.0,0.0,0.0,0.0,8.6062,0.0,0.0,0.0,0.0,0.0,0.0,0.0,8.5875,8.6254,8.6182,8.6439,8.7549,8.9996,9.0603,9.118,9.2133,9.2249,9.3018,9.4874,9.4989,9.5951,9.8134,9.8596,9.9404,10.0789,10.1087,10.1279,10.1279,10.1279,10.1279,10.1279,10.1279,10.1279,10.1279,10.1279,10.1279,10.1279,10.1279,10.1279,10.1279,10.1279,10.1587,10.2097,10.2097,10.1702,10.1279,10.1279,10.1279,10.1279,8.4871,8.5066,8.5767,8.8105,8.9936,9.2352,9.6093,10.2488,10.7982,11.129,11.5291,11.8204,11.91,12.0393,12.0389,11.8287,11.6513,11.3983,11.0599,10.6881,10.3803,10.119,9.8493,9.6114,9.4162,9.3047,9.1222,8.8612,8.8378,8.752,8.6118,8.7326,8.8495,8.9703,9.294,9.5473,9.7457,10.0497,10.3302,10.5913,10.8485,11.2304,11.6395,11.7019,11.8818,12.0904,12.1512,12.0813,11.948,11.8403,11.7002,0.0,11.2989,0.0,0.0,0.0,0.0,0.0,10.3885,0.0,0.0,0.0,0.0,0.0,0.0,0.0,0.0,0.0,0.0,0.0,0.0,0.0,8.6258,8.5657,0.0,8.5352,8.5288,8.5,8.5528,8.746,8.8072,8.8825,9.0056,9.0556,9.1825,9.4143,9.4527,9.5874,9.8634,9.8788,9.9558,10.1202,10.1279,10.1279,10.1279,10.1279,10.1279,10.1279,10.1279,10.1279,10.1279,10.1279,10.1394,10.1712,10.1712,10.1779,10.202,10.202,10.2404,10.2981,10.2981,10.2597,10.202,10.202,10.202,10.202,8.5806,8.5962,8.6507,8.8183,8.9936,9.3366,10.0185,10.49,10.9615,11.472,11.8297,12.1611,12.4998,12.6005,12.6115,12.5189,12.3397,12.09,11.7489,11.3281,10.9898,10.7287,10.4099,10.1085,9.8554,9.6889,9.4807,9.2232,9.1375,9.0517,8.9625,8.9703,9.0634,9.2388,9.4963,9.7574,10.0302,10.4514,10.7788,11.0316,11.2888,11.7097,12.1695,12.1695,12.17,12.1805,12.1706,0.0,0.0,11.9406,11.8082,0.0,0.0,0.0,0.0,0.0,0.0,0.0,0.0,0.0,0.0,10.179,0.0,0.0,0.0,0.0,8.9703,0.0,0.0,0.0,0.0,0.0,0.0,8.5974,8.5641,0.0,0.0,8.4668,8.4305,8.5044,8.6489,8.744,8.7517,8.897,9.0663,9.2441,9.3287,9.5211,9.8634,9.8788,9.9558,10.1202,10.1279,10.1279,10.1279,10.1279,10.1279,10.1279,10.1279,10.1279,10.1279,10.1279,10.1789,10.2597,10.2597,10.302,10.3789,10.3789,10.3789,10.3915,10.3915,10.3789,10.3789,10.3789,10.3789,10.3789,8.7598,8.8573,8.9547,9.0131,9.2119,9.6132,10.3614,10.8416,11.299,11.8092,12.2207,12.5915,12.9299,13.0801,13.1184,13.0187,12.8591,12.6089,12.2717,11.8982,11.5604,11.2517,0.0,10.5993,0.0,10.0716,9.8034,9.4836,9.4013,9.2586,9.0673,9.1258,9.2158,9.3405,9.6522,9.999,10.3692,10.7394,11.0784,11.4092,11.7683,12.092,12.3497,12.3501,12.3519,12.3419,12.331,12.2503,0.0,12.0611,11.978,11.8903,11.7779,11.7198,11.6508,11.4313,11.3403,0.0,0.0,0.0,10.7721,10.5184,0.0,0.0,0.0,0.0,0.0,0.0,0.0,0.0,0.0,0.0,8.8254,8.7658,8.6022,8.4864,0.0,8.3435,8.2461,8.2643,8.4018,8.5405,8.6483,8.7589,8.944,9.2287,9.3249,9.5172,9.8634,9.8788,9.9558,10.1202,10.1279,10.1279,10.1279,10.1904,10.2212,10.2212,10.2712,10.2981,10.2981,10.2981,10.3212,10.3482,10.3482,10.3597,10.3905,10.3905,10.4212,10.4723,10.4723,10.4982,10.5405,10.4289,10.3905,10.3905,8.9897,9.1286,9.2373,9.2076,9.5143,9.992,10.6801,11.1111,11.5702,12.15,12.5596,12.9289,13.3095,13.4783,13.5394,13.4784,13.3097,13.0899,12.8115,12.4516,0.0,11.8514,11.5012,0.0,0.0,10.5493,10.2289,9.8826,9.7107,9.5104,9.2898,9.2898,9.3482,9.4733,9.7847,10.1588,10.5909,10.9905,11.3792,11.7605,12.1895,12.4201,12.5111,0.0,12.5208,12.4599,0.0,12.3489,12.2193,12.2102,12.1189,12.0186,11.9618,11.9222,11.8594,11.6998,11.6284,11.5816,11.4809,11.3184,0.0,10.8698,10.5981,0.0,9.9292,0.0,0.0,0.0,0.0,0.0,0.0,0.0,0.0,8.8612,8.6261,8.4302,0.0,8.249,8.164,8.1579,8.2578,8.3826,8.5175,8.6297,8.8248,9.1325,9.2633,9.4634,9.775,9.8481,9.9442,10.0789,10.1212,10.1279,10.1279,10.2212,10.2597,10.2597,10.3482,10.3905,10.3905,10.3905,10.4097,10.4289,10.4289,10.4482,10.4789,10.4789,10.5097,10.5597,10.5597,10.5905,10.629,10.5213,10.4789,10.4789,9.2696,9.4143,9.5217,9.459,9.912,10.4605,10.9693,11.3205,11.7783,12.4695,12.8294,13.1885,13.6109,13.7902,13.8787,13.8698,13.7088,13.5398,13.3585,12.9808,0.0,0.0,12.121,11.7894,11.541,11.1093,10.7305,10.3996,10.0617,9.8038,9.6288,9.4616,9.4655,9.6327,9.8938,10.2484,10.6809,11.2011,11.6694,12.1117,12.5079,12.6618,12.6617,12.7387,12.6704,12.5412,12.5296,12.4607,12.3701,12.3599,12.2382,12.0893,12.0791,12.022,11.9515,11.9515,11.8892,11.8295,11.839,11.6809,11.4414,11.2005,0.0,0.0,0.0,0.0,9.9203,0.0,0.0,0.0,0.0,0.0,0.0,8.892,8.6402,0.0,8.2219,8.189,8.1839,8.1708,8.2135,8.2774,8.3587,8.5112,8.7094,8.9586,9.1441,9.3557,9.6095,9.7788,9.9096,10.0106,10.0789,10.1289,10.1279,10.2212,10.2712,10.2712,10.3597,10.3982,10.3982,10.3982,10.4405,10.5184,10.5184,10.5597,10.6395,10.6395,10.6395,10.6395,10.6395,10.6395,10.6395,10.6395,10.6395,10.6395,9.6888,9.9877,10.3,10.5285,10.6005,10.791,11.3016,11.6596,12.0982,12.709,13.0813,13.4093,13.7694,14.0,14.1015,14.0312,13.9812,13.8515,13.619,0.0,0.0,12.8416,12.5009,12.1704,11.8599,11.4491,0.0,10.7416,10.408,10.0994,9.8081,9.637,9.5785,9.6327,9.8938,10.2484,10.6887,11.26,11.8498,12.4183,12.5818,12.6708,12.7282,0.0,12.7119,12.6616,12.5994,12.5194,12.4421,12.431,12.3485,12.2615,12.2584,12.1995,12.1107,12.049,12.0202,11.9914,11.9278,11.8314,11.711,11.5298,11.3286,11.1091,0.0,0.0,0.0,0.0,0.0,0.0,0.0,0.0,0.0,0.0,0.0,0.0,0.0,0.0,0.0,8.1883,8.1818,8.2097,8.2821,8.4342,8.6043,8.7902,9.021,9.2672,9.5202,0.0,9.7904,9.999,10.0298,10.0712,10.1279,10.2789,10.3597,10.3597,10.5097,10.579,10.579,10.579,10.5905,10.6097,10.6097,10.6213,10.6395,10.6395,10.6395,10.6395,10.6395,10.6395,10.6395,10.6395,10.6395,10.6395,10.0706,10.4104,10.8084,11.1313,11.2398,11.3892,11.7182,12.0413,12.4416,12.9586,13.3107,13.612,13.8724,14.1109,14.2382,14.1892,14.1507,14.0686,13.9209,0.0,0.0,13.2307,12.9402,12.6318,12.2991,11.8504,0.0,11.0815,10.6788,10.3121,9.9846,9.7761,9.6756,9.6873,9.9094,10.2484,10.7,11.4415,12.031,12.4684,12.5705,12.6606,0.0,12.7183,12.709,12.6889,12.649,12.5805,12.5117,12.4999,12.4118,12.3104,12.3088,12.2499,12.1689,12.1188,12.1111,12.1007,12.0588,11.9883,11.9107,11.7906,11.6197,11.42,11.198,11.0014,10.821,0.0,0.0,0.0,0.0,0.0,0.0,0.0,0.0,0.0,0.0,0.0,0.0,0.0,8.1618,8.1195,8.1498,8.296,8.4527,8.6179,8.8325,9.0479,9.2663,0.0,9.6711,9.8904,9.9721,10.0721,10.1904,10.3212,10.4097,10.4405,10.579,10.6395,10.6395,10.6395,10.6395,10.6395,10.6395,10.6395,10.6395,10.6395,10.6395,10.6395,10.6395,10.6395,10.6395,10.6395,10.6395,10.6395,10.4713,10.8087,11.1879,11.5014,11.8487,12.1212,12.2293,12.4797,12.7901,13.2099,13.5389,13.799,13.9582,14.1916,14.3297,14.3297,14.2681,14.2297,14.2181,13.9979,13.8003,13.6385,13.3914,13.1011,12.7802,12.2778,0.0,0.0,10.9203,10.4987,10.16,9.8919,9.7652,9.773,9.9483,10.2979,10.8213,11.6483,12.1479,12.3885,12.5398,12.6398,12.6988,12.7016,12.6899,12.6807,12.6807,12.6413,12.5798,12.5801,12.4688,12.3317,12.3098,12.2485,12.1677,12.16,12.1612,12.1597,12.1688,12.1194,12.05,11.9986,11.8183,11.6284,11.5414,11.2902,11.0698,11.0284,10.7683,10.4905,0.0,0.0,0.0,0.0,0.0,0.0,0.0,0.0,0.0,0.0,0.0,0.0,8.0113,8.1316,8.2733,8.4286,8.6055,8.7863,8.9663,0.0,9.5489,9.7288,9.9029,10.0712,10.2404,0.0,10.4289,10.5107,10.602,10.6395,10.6395,10.6395,10.6395,10.6395,10.6395,10.6395,10.6395,10.6395,10.651,10.6587,10.6587,10.6587,10.6703,10.6703,10.6703,10.6703,11.111,11.4405,11.759,12.0204,12.3996,12.7411,12.9697,12.9997,13.1193,13.4596,13.7399,13.9685,14.1312,14.3118,14.422,14.422,14.472,0.0,0.0,0.0,0.0,13.9785,13.6617,13.3691,13.1104,12.6215,12.1792,0.0,11.2091,10.7282,10.3304,10.0083,9.8587,9.8665,10.0419,10.5801,11.3905,11.738,12.1086,12.4702,12.5394,12.6089,12.6814,12.6798,12.67,12.6715,12.6715,12.6611,12.652,12.6496,12.5791,12.4906,12.4101,12.3293,12.2485,12.1793,12.1612,12.1612,12.1597,12.1589,12.1392,12.0616,12.0187,11.9395,11.7299,11.6303,11.5212,11.242,11.0302,10.8014,10.4886,0.0,0.0,0.0,0.0,0.0,0.0,0.0,0.0,0.0,0.0,8.1007,8.0184,8.0284,8.0781,8.1716,8.3978,8.6363,8.8786,0.0,9.4057,0.0,9.8134,0.0,0.0,0.0,10.4289,10.5107,10.602,10.6395,10.6395,10.6395,10.6395,10.6395,10.6395,10.6395,10.6395,10.6395,10.678,10.7482,10.7482,10.7905,10.8482,10.8482,10.8482,10.829,11.7098,11.9385,12.1707,12.4608,12.8202,13.1609,13.4089,13.559,13.6809,13.7503,13.9812,14.1685,14.2387,14.3989,14.5105,14.5105,14.549,14.549,14.5105,14.3912,14.2797,14.1912,13.9488,0.0,13.45,12.9604,12.492,12.0398,11.4699,10.959,10.5013,10.2102,10.05,10.0188,10.3714,10.8688,11.47,11.7795,12.0994,12.4092,12.5208,12.6102,12.6686,12.6715,12.669,12.669,12.669,12.669,12.6601,12.6178,12.5678,12.5216,12.4409,12.3793,12.3408,12.2985,12.2601,12.2293,12.2293,12.1993,12.16,12.1287,12.09,12.0212,11.871,11.7618,11.6313,11.3816,11.1581,10.8705,10.411,10.0609,0.0,0.0,0.0,0.0,0.0,0.0,0.0,0.0,0.0,0.0,0.0,7.8525,7.8679,8.0292,0.0,0.0,0.0,0.0,9.1902,0.0,0.0,0.0,0.0,0.0,0.0,10.579,10.6213,10.6395,10.6395,10.6395,10.6395,10.6395,10.6395,10.6713,10.7098,10.7521,10.7905,10.829,10.829,10.8598,10.8906,10.8906,10.8906,10.879,12.2387,12.4079,12.5885,12.8682,13.2086,13.5295,13.7501,14.0796,14.2297,14.0412,14.1989,14.3412,14.3605,14.4913,14.5797,14.5913,14.599,14.599,14.599,14.522,14.4412,14.3682,14.1912,13.9912,13.768,13.2814,12.7887,0.0,11.7488,11.2185,10.7204,10.48,10.3403,10.3116,10.7588,11.1489,0.0,0.0,12.1406,12.391,12.5103,12.612,12.6986,12.6986,12.6986,12.6986,12.6986,12.6794,12.6614,12.5678,12.5486,12.5486,12.4716,12.4409,12.4293,12.4216,12.3524,12.2908,12.2908,12.2293,12.1597,12.1688,12.1199,12.05,11.9617,11.8288,11.6707,11.4693,11.2002,10.8499,10.3494,10.1711,0.0,0.0,0.0,0.0,0.0,0.0,0.0,0.0,0.0,0.0,7.8994,0.0,0.0,0.0,0.0,0.0,8.4739,0.0,0.0,0.0,0.0,9.9058,10.2289,0.0,10.4713,0.0,10.6395,10.6395,10.6395,10.6587,10.6713,10.6713,10.6905,10.729,10.7982,10.8598,10.8983,10.9213,10.9213,10.929,10.9483,10.9483,10.9483,10.9483,12.6291,12.8789,13.1294,13.2282,13.6001,13.9309,14.1104,14.4297,14.549,14.3105,14.3605,14.4605,14.5413,14.5605,14.599,14.6682,14.6798,14.6798,14.6798,14.599,14.549,14.549,14.3105,14.1296,14.0296,13.5385,13.0788,0.0,0.0,11.5584,11.0712,10.8316,10.7487,10.8199,11.0906,11.4289,0.0,11.9888,12.251,12.5389,12.5404,12.6421,12.7794,12.7794,12.7794,12.7794,12.7794,12.7294,12.6614,12.5678,12.5909,12.6409,12.5601,12.5293,12.5101,12.4293,12.3524,12.2908,12.2908,12.2293,12.1612,12.1585,12.1585,12.112,11.9614,11.9097,11.8089,11.4914,11.1115,10.7604,10.5491,10.3206,10.1115,0.0,0.0,0.0,0.0,0.0,0.0,8.5511,0.0,0.0,0.0,7.8883,0.0,0.0,7.9892,8.1392,8.47,0.0,0.0,9.2518,0.0,9.875,10.1394,10.3097,10.4713,10.6395,10.6395,10.6395,10.6395,10.7213,10.7598,10.7598,10.829,10.8713,10.879,10.8906,10.9406,11.0109,11.0109,11.0598,11.1291,11.1291,11.1291,11.1291,13.1113,13.2705,13.4603,13.6488,13.8988,14.1604,14.3797,14.6182,14.749,14.699,14.6798,14.6605,14.6413,14.6413,14.649,14.6913,14.6913,14.6913,14.6913,14.6605,14.6413,14.6413,14.499,14.3489,14.2104,13.8196,13.4213,0.0,0.0,0.0,11.5484,11.3085,11.242,11.3191,11.5096,11.7695,12.0691,12.218,12.42,12.6395,12.6688,12.7602,12.8717,12.8717,12.8409,12.7897,12.7897,12.7409,12.6601,12.6294,12.6409,12.6486,12.5678,12.5794,12.6101,12.5794,12.4716,12.3601,12.3601,12.2601,12.1612,12.1612,12.1612,12.12,11.9503,11.9091,11.8178,11.4806,11.1119,10.8009,10.6411,10.4905,10.3202,0.0,0.0,0.0,0.0,0.0,0.0,0.0,0.0,8.187,0.0,0.0,0.0,0.0,0.0,8.1862,8.4739,0.0,0.0,9.3133,0.0,9.9519,10.2097,10.3789,10.5213,10.6395,10.6895,10.7213,10.7213,10.8021,10.8406,10.8482,10.929,10.9713,10.9713,11.0214,11.0714,11.0983,11.0983,11.1214,11.1511,11.1511,11.1511,11.1483,13.5501,13.6603,13.7988,14.0104,14.1912,14.3797,14.6105,14.7682,14.8913,14.9707,14.9106,14.8298,14.7413,14.7105,14.6913,14.6913,14.6913,14.6913,14.6913,14.6913,14.6913,14.6913,14.6105,0.0,14.3912,14.0621,13.7105,13.3394,12.8697,0.0,12.0582,11.8082,11.7419,11.8194,11.9598,12.1405,12.3493,12.4806,12.6217,12.7607,12.8088,12.8794,12.9602,12.9602,12.8986,12.8282,12.8282,12.7602,12.669,12.669,12.669,12.6614,12.5986,12.6178,12.669,12.669,12.5486,12.4101,12.4101,12.2908,12.1612,12.1612,12.1612,12.1177,11.9792,11.9292,11.81,11.4714,11.1714,10.9196,10.7497,10.6381,10.4889,10.2689,0.0,0.0,0.0,0.0,0.0,0.0,8.5596,8.3017,8.1978,8.0746,0.0,0.0,0.0,8.3362,8.5162,0.0,0.0,0.0,0.0,0.0,0.0,10.4289,10.5713,10.679,10.7405,10.779,10.8098,10.8906,10.9406,10.9713,11.0291,11.0598,11.0598,11.1203,11.1511,11.1511,11.1511,11.1511,11.1511,11.1511,11.1511,11.1494,13.9104,14.0604,14.2104,14.2912,14.4489,14.6182,14.7913,14.8913,14.9798,15.0606,14.999,14.9183,14.8298,14.7413,14.6913,14.6913,14.6913,14.6913,14.6913,14.6913,14.6913,0.0,0.0,14.572,14.5682,14.2297,13.9388,13.6899,0.0,0.0,12.571,12.3094,12.2399,12.32,12.3994,12.5197,12.678,12.7704,12.848,12.9217,12.9217,12.9717,13.0487,13.0487,12.991,12.9217,12.9217,12.8102,12.669,12.669,12.669,12.669,12.669,12.669,12.669,12.669,12.5486,12.4101,12.4101,12.2908,12.1612,12.1612,12.1612,12.142,12.0485,11.9715,11.81,11.4714,11.2599,11.0895,10.9213,10.7602,10.59,10.4215,0.0,0.0,0.0,0.0,0.0,0.0,8.7224,8.5491,8.3834,8.3641,0.0,0.0,0.0,8.6055,8.6094,0.0,0.0,9.3595,9.7019,0.0,10.2597,10.4289,10.5982,10.7713,10.7713,10.8098,10.8906,10.979,11.0714,11.1522,11.1511,11.1511,11.1511,11.1511,11.1511,11.1511,11.1511,11.1511,11.1511,11.1511,11.1511,11.1494,14.1681,14.2797,14.3912,14.4682,14.5297,14.649,14.8721,14.9298,14.999,15.1414,15.0414,14.9413,14.9106,14.7798,14.6913,0.0,14.6913,14.6913,0.0,14.6913,14.6913,14.6913,14.6682,14.6297,14.572,14.4105,14.2003,13.9503,0.0,0.0,0.0,12.7997,12.749,12.8309,12.7889,12.8386,12.9317,12.9009,12.9293,13.0102,13.0102,13.0602,13.1295,13.1295,13.0794,12.9987,12.941,12.8486,12.7409,12.6909,12.669,12.669,12.669,12.669,12.669,12.669,12.5909,12.4909,12.4293,12.3293,12.2293,12.1677,12.1612,12.142,12.0485,11.8792,11.6676,11.4484,11.2714,11.1021,10.9213,10.8003,10.661,10.4301,10.2299,0.0,0.0,0.0,0.0,0.0,0.0,8.6789,0.0,8.5673,0.0,0.0,0.0,0.0,0.0,0.0,0.0,0.0,9.9596,0.0,10.3482,10.5097,10.6597,10.7713,10.829,10.929,11.0714,11.1021,11.1203,11.1511,11.1511,11.1511,11.1511,11.1511,11.1511,11.1511,11.1511,11.1511,11.1511,11.1511,11.1487,11.1609,14.3797,14.4489,14.522,14.599,14.6182,14.6913,14.9221,14.949,14.999,15.1298,15.0298,14.9413,14.899,14.7721,0.0,14.6913,14.6913,14.6913,14.6913,14.6913,14.6913,14.6913,14.6913,14.6682,14.6182,0.0,0.0,14.1989,13.9684,13.6989,13.3789,13.2402,13.2019,13.2408,13.1599,13.1485,13.191,13.1295,13.1218,13.141,13.141,13.1487,13.1679,13.1679,13.1179,13.041,12.9487,12.8602,12.7794,12.6986,12.669,12.669,12.669,12.669,12.669,12.669,12.6101,12.5293,12.4716,12.3793,12.2793,12.2216,12.1793,12.1304,12.01,11.86,11.6792,11.4484,11.3214,11.1714,10.929,10.8482,10.7213,10.4405,10.2404,10.0712,0.0,0.0,0.0,0.0,0.0,0.0,0.0,8.8375,0.0,0.0,0.0,0.0,0.0,0.0,0.0,9.7904,10.0981,0.0,10.4289,10.5713,10.7021,10.8213,10.929,11.0395,11.1511,11.1511,11.1511,11.1511,11.1511,11.1511,11.1511,11.178,11.178,11.1511,11.178,11.1791,11.1511,11.1511,11.1508,11.1583,14.5413,14.5797,14.599,14.6798,14.6913,14.749,14.9221,14.9413,14.9721,15.0491,14.9914,14.9106,14.8298,14.7413,14.6913,14.6913,0.0,0.0,0.0,14.6913,14.6913,14.6913,14.6913,14.6913,14.6913,14.6182,14.5413,14.4489,14.1091,13.8719,13.7103,13.6219,13.5719,13.5603,13.4795,13.4411,13.4411,13.4295,13.3795,13.3,13.3,13.25,13.1679,13.1679,13.1179,13.0487,12.9602,12.8705,12.7909,12.7101,12.6678,12.669,12.669,12.6678,12.6806,12.669,12.6101,12.5486,12.5409,12.4293,12.3024,12.2908,12.2216,12.1189,11.9485,11.91,11.81,11.4714,11.3984,11.2983,10.9483,10.8906,10.779,10.4405,10.252,10.0789,9.9019,0.0,0.0,0.0,0.0,0.0,0.0,9.1638,9.1613,0.0,0.0,0.0,0.0,0.0,9.658,9.8913,10.1404,10.3482,10.5107,10.602,10.729,10.8983,11.0714,11.1511,11.1511,11.1588,11.1588,11.1588,11.1588,11.1703,11.1703,11.2522,11.228,11.1703,11.2511,11.2291,11.1588,11.1598,11.1596,11.1594,0.0,0.0,14.6682,14.6913,14.6913,14.7298,14.8298,14.849,14.8798,14.9721,14.899,14.8413,14.8182,14.7413,14.6913,14.6913,14.6913,14.6913,14.6913,14.6913,14.6913,14.6913,14.6913,14.6913,14.6913,14.6682,14.6221,14.5413,14.2604,14.1104,14.0681,13.9104,13.8104,13.7411,13.6603,13.5795,13.5218,13.4603,13.3795,13.3,13.3,13.25,13.1679,13.1679,13.1602,13.1295,13.0487,12.9602,12.8794,12.7909,12.7217,12.669,12.669,12.7101,12.7486,12.6909,12.6614,12.6178,12.5601,12.5101,12.4486,12.3216,12.2216,12.1189,11.9485,11.91,11.81,11.4714,11.3984,11.2983,10.9483,10.8906,10.779,10.4405,10.2981,10.1481,9.9135,9.7711,0.0,0.0,9.5546,9.5353,9.5123,9.5123,9.5141,0.0,0.0,0.0,0.0,9.9265,10.02,10.0712,10.3212,10.4713,10.5107,10.6597,10.8213,10.9906,11.1021,11.1511,11.1511,11.2088,11.2406,11.2522,11.3099,11.3407,11.3407,11.3599,11.3599,11.3407,11.3599,11.3214,11.2406,11.2502,11.222,11.179,14.6605,14.6913,14.6913,14.6913,14.6913,14.7182,14.8106,14.8182,14.8413,14.8798,14.849,14.799,14.7605,14.7182,14.6913,14.6913,14.6913,14.6913,14.6913,14.6913,14.6913,14.6913,14.6913,14.6913,14.6913,14.6913,14.649,14.572,14.3912,14.2797,14.2412,14.0719,13.9412,13.8604,13.7796,13.6911,13.6103,13.5603,13.4911,13.4103,13.368,13.3103,13.2307,13.1923,13.1679,13.1602,13.0794,13.0217,12.9717,12.8794,12.8217,12.7794,12.7794,12.8102,12.8409,12.7986,12.7794,12.7678,12.6794,12.6294,12.5486,12.3408,12.2485,12.1716,11.9985,11.9408,11.8292,11.5715,11.4484,11.3099,11.0098,10.9213,10.779,10.4405,10.3212,10.1789,9.9721,9.8981,0.0,9.8096,9.8365,9.8596,9.8596,9.8596,9.8615,9.8623,0.0,0.0,10.0596,10.2213,10.2886,10.2481,10.4212,10.5492,10.629,10.7982,10.929,11.0224,11.1483,11.2011,11.2088,11.2906,11.3291,11.3291,11.3884,11.4115,11.3984,11.45,11.4423,11.3984,11.4407,11.4099,11.3302,11.3419,11.3301,11.2986,14.6605,14.6913,14.6913,14.6913,14.6913,14.7105,14.7913,14.799,14.799,14.799,14.799,14.7682,14.699,14.6913,14.6913,14.6913,14.6913,14.6913,14.6913,14.6913,14.6913,14.6913,14.6913,14.6913,14.6913,14.6913,14.6605,14.5913,14.4913,14.3989,14.3297,14.1604,14.0296,13.9296,13.8604,13.768,13.6796,13.6796,13.6296,13.5411,13.4603,13.3795,13.2923,13.1987,13.1679,13.1602,13.091,13.0602,13.041,12.9602,12.9294,12.9217,12.9217,12.9294,12.941,12.941,12.9487,12.941,12.8409,12.7409,12.6178,12.3985,12.3216,12.2485,12.0908,11.9792,11.86,11.6918,11.5215,11.3291,11.0791,10.9598,10.7905,10.4789,10.3482,10.2404,10.0721,0.0,10.0683,10.0683,10.1404,10.1894,10.2097,10.2087,10.2087,10.2087,10.2789,10.3212,0.0,10.4713,10.5213,10.4713,10.5213,10.629,10.8098,10.9504,11.0284,11.0592,11.2103,11.2796,11.2999,11.3807,11.4192,11.4318,11.4491,11.4508,11.4511,11.53,11.5086,11.45,11.5193,11.5,11.428,11.4396,11.4393,11.4395,14.6605,14.6913,14.6913,14.6913,14.6913,14.6913,14.7105,14.7105,14.7105,14.7105,14.7105,14.7105,14.6913,14.6913,14.6913,14.6913,14.6913,14.6913,14.6913,14.6913,14.6913,14.6913,14.6913,14.6913,14.6913,14.6913,14.6798,14.6682,14.522,14.4297,14.422,14.2489,14.0796,13.9296,13.9219,13.8296,13.6796,13.6796,13.6296,13.5411,13.4603,13.3795,13.2923,13.1987,13.1679,13.1679,13.1602,13.1102,13.0487,13.0294,12.9794,12.9217,12.9217,12.9717,13.0294,13.0294,13.0794,13.0987,12.941,12.7909,12.6601,12.6178,12.4486,12.2601,12.16,12.0216,11.86,11.6918,11.5215,11.3407,11.1588,10.9983,10.829,10.629,10.529,10.4097,10.2404,0.0,10.3289,10.3289,10.3982,10.4789,10.551,10.5587,10.5587,10.5587,10.5703,10.6087,10.6905,10.7213,10.7598,10.8098,10.7598,10.8098,10.979,11.0115,11.1003,11.2516,11.28,11.3303,11.4113,11.5,11.5386,11.5386,11.61,11.6409,11.6388,11.6486,11.6486,11.6388,11.6504,11.608,11.5406,11.5389,11.5107,11.4589,14.6605,14.6913,14.6913,14.6913,14.6913,14.6913,14.6913,14.6913,14.6913,14.6913,14.6913,14.6913,14.6913,14.6913,14.6913,14.6913,14.6913,14.6913,14.6913,14.6913,14.6913,14.6913,14.6913,14.6913,14.6913,14.6913,14.6913,14.6913,14.522,14.4412,14.4412,14.2681,14.0989,13.9296,13.9296,13.8411,13.6796,13.6796,13.6603,13.6103,13.5295,13.4718,13.418,13.291,13.241,13.2295,13.191,13.1487,13.1102,13.1102,13.091,13.0487,13.0487,13.0794,13.1179,13.1679,13.1487,13.091,13.0102,12.8986,12.7794,12.6909,12.5794,12.4486,12.2716,12.1293,11.9985,11.8292,11.6484,11.4714,11.2511,11.1098,10.9598,10.7395,10.679,0.0,0.0,10.5405,10.5905,10.5905,10.6713,10.729,10.7713,10.7713,10.7713,10.7713,10.7713,10.7905,10.829,10.829,10.8713,10.9598,10.9213,10.9598,11.0906,11.1396,11.2413,11.3707,11.4202,11.4703,11.5107,11.5987,11.6412,11.6412,11.6902,11.7009,11.6991,11.7018,11.7009,11.6991,11.6991,11.6682,11.6383,11.6484,11.6284,11.6112,14.6605,14.6913,14.6913,14.6913,14.6913,14.6913,14.6913,14.6913,14.6913,14.6913,14.6913,14.6913,14.6913,14.6913,14.6913,14.6913,14.6913,14.6913,14.6913,14.6913,14.6913,14.6913,14.6913,14.6913,14.6913,14.6913,14.6913,14.6913,14.522,14.4412,14.4412,14.2489,14.0796,13.9296,13.9104,13.8219,13.6796,13.6796,13.6796,13.668,13.5911,13.5488,13.5295,13.391,13.3192,13.2923,13.2179,13.191,13.1679,13.1679,13.1679,13.1679,13.191,13.1987,13.2179,13.2987,13.241,13.1295,13.1102,13.0294,12.9102,12.7678,12.6986,12.6101,12.3985,12.2485,12.1177,11.9908,11.81,11.6099,11.3984,11.2791,11.1406,10.9213,0.0,0.0,0.0,10.7905,10.8406,10.8598,10.929,10.9906,11.0098,11.0098,11.0098,11.0098,11.0098,11.0098,11.0098,11.0098,11.0406,11.1098,11.0906,11.1186,11.2092,11.2901,11.3679,11.4704,11.5406,11.5901,11.619,11.6904,11.7213,11.7222,11.7297,11.728,11.7183,11.7297,11.728,11.7213,11.7213,11.7213,11.7183,11.7297,11.7414,11.7384,14.6605,14.6913,14.6913,14.6913,14.6913,14.6913,14.6913,14.6913,14.6913,14.6913,14.6913,14.6913,14.6913,14.6913,14.6913,14.6913,14.6913,14.6913,14.6913,14.6913,14.6913,14.6913,14.6913,14.6913,14.6913,14.6913,14.6913,14.6913,14.522,14.4412,14.4283,14.1912,14.0219,13.9296,13.8488,13.7694,13.6796,13.6796,13.6796,13.668,13.5911,13.5488,13.5411,13.4487,13.368,13.3,13.2923,13.241,13.1679,13.1679,13.1679,13.1795,13.2603,13.2923,13.3115,13.391,13.4103,13.3795,13.2987,13.1602,13.0217,12.9217,12.7794,12.6409,12.5409,12.3293,12.1612,12.142,11.9408,11.7407,11.6407,11.4907,11.3483,11.2522,0.0,0.0,10.9906,10.9993,11.0291,11.1088,11.1895,11.2714,11.3483,11.3599,11.3599,11.3599,11.3599,11.3599,11.3599,11.3599,11.3714,11.3714,11.2906,11.2999,11.399,11.4093,11.4684,11.5806,11.5985,11.6492,11.7421,11.7486,11.7599,11.7599,11.7606,11.7606,11.7599,11.7606,11.7606,11.7599,11.7599,11.7599,11.7599,11.7606,11.7614,11.7711,14.6605,14.6913,14.6913,14.6913,14.6913,14.6913,14.6913,14.6913,14.6913,14.6913,14.6913,14.6913,14.6913,14.6913,14.6913,14.6913,14.6913,14.6913,14.6913,14.6913,14.6913,14.6913,14.6913,14.6913,14.6913,14.6913,14.6913,14.6913,14.522,14.4412,14.4283,14.1797,14.0104,13.9296,13.8488,13.7603,13.6796,13.6796,13.6796,13.6796,13.6411,13.6296,13.618,13.5411,13.4795,13.4487,13.3987,13.3603,13.3295,13.3295,13.3295,13.341,13.368,13.3795,13.3987,13.4795,13.4988,13.4988,13.4603,13.3295,13.1795,13.0987,12.991,12.8602,12.6601,12.5498,12.419,12.1985,12.0793,11.96,11.7715,11.6792,11.5907,11.4484,0.0,11.3176,11.2599,11.2599,11.2714,11.2983,11.3291,11.3599,11.3984,11.3984,11.3984,11.3984,11.3984,11.3984,11.3984,11.3984,11.4214,11.4791,11.4484,11.4506,11.4895,11.4998,11.5621,11.6588,11.691,11.7511,11.8405,11.8508,11.8811,11.9317,11.9317,11.9317,11.9317,11.9317,11.9317,11.9317,11.8694,11.85,11.85,11.7994,11.7818,11.7802,14.6605,14.6913,14.6913,14.6913,14.6913,14.6913,14.6913,14.6913,14.6913,14.6913,14.6913,14.6913,14.6913,14.6913,14.6913,14.6913,14.6913,14.6913,14.6913,14.6913,14.6913,14.6913,14.6913,14.6913,14.6913,14.6913,14.6913,14.6913,14.522,14.4412,14.4283,14.1489,13.9912,13.9296,13.8181,13.7411,13.6796,13.6796,13.6796,13.6796,13.6796,13.6796,13.668,13.6103,13.5719,13.5411,13.4911,13.4487,13.4295,13.4295,13.4295,13.4295,13.4603,13.4911,13.5218,13.6103,13.6103,13.5988,13.618,13.5103,13.341,13.1987,13.1295,13.0294,12.7986,12.7101,12.5998,12.369,12.2793,12.1793,11.9792,11.9215,11.8484,11.71,11.6407,11.5907,11.5291,11.5215,11.5215,11.5215,11.5407,11.5599,11.5599,11.5599,11.5599,11.5599,11.5599,11.5599,11.5599,11.5599,11.5907,11.6484,11.6484,11.6484,11.6484,11.6403,11.6905,11.7987,11.8222,11.8689,11.9406,11.9488,11.9915,12.0499,12.0499,12.0499,12.0499,12.0499,12.0499,12.0421,11.9798,11.9604,11.9482,11.902,11.8703,11.8708,14.6605,14.6913,14.6913,14.6913,14.6913,14.6913,14.6913,14.6913,14.6913,14.6913,14.6913,14.6913,14.6913,14.6913,14.6913,14.6913,14.6913,14.6913,14.6913,14.6913,14.6913,14.6913,14.6913,14.6913,14.6913,14.6913,14.6913,14.6913,14.522,14.4412,14.4297,14.0912,13.9296,13.9206,13.7603,13.6796,13.6796,13.6796,13.6796,13.6796,13.6796,13.6796,13.6796,13.6796,13.6296,13.5488,13.5488,13.4988,13.4295,13.4295,13.4295,13.4487,13.5295,13.6103,13.6988,13.7886,13.7488,13.6988,13.7886,13.6796,13.4911,13.241,13.1679,13.1295,12.9602,12.7909,12.669,12.669,12.5293,12.3909,12.3101,12.2216,12.1293,12.0485,11.8908,11.7792,11.7792,11.7792,11.7792,11.7792,11.86,11.91,11.91,11.91,11.91,11.91,11.91,11.91,11.91,11.91,11.91,11.91,11.91,11.91,11.91,11.8408,11.8682,11.9786,12.009,12.0316,12.0405,12.0483,12.0604,12.0604,12.0604,12.0604,12.0604,12.0604,12.0604,12.0604,12.0604,12.0604,12.0604,12.0608,12.0608,12.0608,14.6682,14.6913,14.6913,14.6913,14.6913,14.6913,14.6913,14.6913,14.6913,14.6913,14.6913,14.6913,14.6913,14.6913,14.6913,14.6913,14.6913,14.6913,14.6913,14.6913,14.6913,14.6913,14.6913,14.6913,14.6913,14.6913,14.6605,14.6105,14.4913,14.4105,14.3412,14.122,13.9912,13.9296,13.8796,13.8219,13.768,13.8296,13.8219,13.7694,13.7694,13.7296,13.6796,13.6796,13.6603,13.6411,13.6411,13.6296,13.6103,13.6103,13.6103,13.618,13.7103,13.7911,13.8604,13.8911,13.8796,13.8488,13.8181,13.7694,13.6796,13.4911,13.3487,13.2307,13.1179,13.0102,12.8909,12.7114,12.6294,12.5486,12.3985,12.3485,12.2908,12.1408,12.0793,12.01,11.8908,11.8715,11.8715,11.8715,11.8908,11.91,11.91,11.91,11.91,11.91,11.91,11.91,11.91,11.91,11.91,11.91,11.91,11.9408,11.9908,11.9294,11.9183,11.969,11.9982,12.0588,12.13,12.1496,12.1812,12.2396,12.2396,12.2396,12.2396,12.2396,12.2396,12.2396,12.1812,12.15,12.1383,12.0798,12.0608,12.0608,14.6682,14.6913,14.6913,14.6913,14.6913,14.6913,14.6913,14.6913,14.6913,14.6913,14.6913,14.6913,14.6913,14.6913,14.6913,14.6913,14.6913,14.6913,14.6913,14.6913,14.6913,14.6913,14.6913,14.6913,14.6913,14.6913,14.649,14.572,14.4797,14.3989,14.3118,14.1412,14.0296,13.9796,13.9488,13.8988,13.8604,13.9104,13.8988,13.8604,13.8604,13.8104,13.7296,13.7296,13.7103,13.6796,13.718,13.7296,13.7411,13.768,13.7796,13.7911,13.8411,13.8911,13.9412,13.9719,13.9604,13.9219,13.8681,13.8296,13.7809,13.6411,13.4988,13.368,13.2487,13.1602,13.041,12.8602,12.7909,12.7294,12.5909,12.5293,12.4678,12.3293,12.2485,12.1793,12.0716,12.0292,12.01,12.01,12.01,12.01,12.01,12.01,12.01,12.01,12.01,12.01,12.01,12.01,12.01,12.01,12.01,12.0292,12.0793,12.0792,12.0686,12.0594,12.0897,12.1486,12.2121,12.2296,12.262,12.3186,12.3083,12.3111,12.3116,12.3098,12.3186,12.3108,12.2586,12.2396,12.2396,12.1812,12.1617,12.1617,14.6798,14.6913,14.6913,14.6913,14.6913,14.6913,14.6913,14.6913,14.6913,14.6913,14.6913,14.6913,14.6913,14.6913,14.6913,14.6913,14.6913,14.6913,14.6913,14.6913,14.6913,14.6913,14.6913,14.6913,14.6913,14.6913,14.649,14.5605,14.4797,14.3912,14.2989,14.1412,14.0681,14.0604,13.9912,13.9488,13.9398,13.9488,13.9488,13.9398,13.9398,13.8911,13.8181,13.8181,13.768,13.7103,13.7911,13.8181,13.8296,13.9104,13.9412,13.9398,13.9398,13.9488,13.9719,14.0489,14.0219,13.9488,13.9398,13.8796,13.8001,13.7103,13.6296,13.518,13.3603,13.2615,13.1679,13.0794,12.9987,12.9102,12.8217,12.7409,12.6486,12.5678,12.4216,12.3101,12.3024,12.2293,12.1677,12.1677,12.16,12.1612,12.1612,12.1612,12.1612,12.1612,12.1612,12.1612,12.1612,12.1612,12.1612,12.1612,12.1689,12.1677,12.1677,12.2601,12.2818,12.2207,12.2614,12.2799,12.3018,12.3198,12.318,12.3308,12.3213,12.3189,12.3117,12.3219,12.3207,12.3101,12.3195,12.3214,12.3214,12.3214,12.3214,12.3214,14.6913,14.6913,14.6913,14.6913,14.6913,14.6913,14.6913,14.6913,14.6913,14.6913,14.6913,14.6913,14.6913,14.6913,14.6913,14.6913,14.6913,14.6913,14.6913,14.6913,14.6913,14.6913,14.6913,14.6913,14.6913,14.6913,14.6182,14.472,14.4489,14.3605,14.2181,14.1797,14.1296,14.0604,14.1104,14.0989,14.0412,14.0989,14.0912,14.0296,14.0296,13.9796,13.8988,13.8988,13.8911,13.8796,13.8988,13.8988,13.9104,13.9206,13.9796,14.0296,14.0296,14.0796,14.1412,14.1604,14.1489,14.1181,14.0489,13.9719,13.8796,13.7988,13.718,13.618,13.518,13.4295,13.3295,13.1795,13.1295,13.0718,12.9217,12.8217,12.7409,12.6601,12.5486,12.4601,12.3909,12.3101,12.2601,12.2601,12.1985,12.1612,12.1612,12.1612,12.1612,12.1612,12.1612,12.1612,12.1612,12.1612,12.1612,12.1612,12.2293,12.2601,12.2601,12.3394,12.3578,12.3096,12.4013,12.4489,12.4809,12.48,12.4917,12.4891,12.4917,12.4483,12.3906,12.3896,12.3597,12.3101,12.3195,12.3214,12.3214,12.3214,12.3214,12.3214,14.6913,14.6913,14.6913,14.6913,14.6913,14.6913,14.6913,14.6913,14.6913,14.6913,14.6913,14.6913,14.6913,14.6913,14.6913,14.6913,14.6913,14.6913,14.6913,14.6913,14.6913,14.6913,14.6913,14.6913,14.6913,14.6913,14.6105,14.4412,14.4412,14.3489,14.1912,14.1912,14.1681,14.1181,14.1681,14.1604,14.1296,14.1681,14.1604,14.1181,14.1181,14.0719,13.9912,13.9912,13.9719,13.9412,13.9796,14.0219,14.0489,14.0489,14.0796,14.1181,14.1181,14.1489,14.1912,14.1912,14.1912,14.1681,14.0796,14.0296,13.9719,13.8911,13.8296,13.7603,13.5911,13.5218,13.4487,13.3218,13.291,13.241,13.0718,12.9987,12.9217,12.7486,12.6601,12.5678,12.4793,12.3985,12.3485,12.3485,12.2716,12.21,12.16,12.1612,12.1612,12.1612,12.1985,12.2216,12.2216,12.2601,12.2793,12.2793,12.3216,12.3485,12.3485,12.4293,12.4615,12.4397,12.4614,12.489,12.5111,12.5197,12.5296,12.5286,12.5289,12.4978,12.4594,12.4703,12.459,12.4192,12.3887,12.3799,12.3682,12.3292,12.3214,12.3214,14.6913,14.6913,14.6913,14.6913,14.6913,14.6913,14.6913,14.6913,14.6913,14.6913,14.6913,14.6913,14.6913,14.6913,14.6913,14.6913,14.6913,14.6913,14.6913,14.6913,14.6913,14.6913,14.6913,14.6913,14.6913,14.6798,14.5913,14.4412,14.4412,14.3489,14.1912,14.1912,14.1912,14.1912,14.1912,14.1912,14.1912,14.1912,14.1912,14.1912,14.1912,14.1489,14.0796,14.0796,14.0412,13.9796,14.0604,14.1412,14.2104,14.2104,14.2181,14.2297,14.2181,14.2104,14.2104,14.1912,14.1912,14.1681,14.0989,14.0719,14.0412,13.9719,13.9398,13.8706,13.6603,13.5988,13.568,13.4718,13.4487,13.3987,13.241,13.191,13.0987,12.8909,12.7717,12.6794,12.5909,12.5101,12.4486,12.4293,12.3601,12.2793,12.21,12.1985,12.1985,12.1985,12.2716,12.3101,12.3101,12.3716,12.4101,12.4101,12.4216,12.4293,12.4293,12.5216,12.57,12.5805,12.5208,12.5117,12.5309,12.539,12.5507,12.5497,12.5516,12.5386,12.5407,12.5502,12.5578,12.5392,12.489,12.4617,12.45,12.3682,12.3292,12.3214,14.6913,14.6913,14.6913,14.6913,14.6913,14.6913,14.6913,14.6913,14.6913,14.6913,14.6913,14.6913,14.6913,14.6913,14.6913,14.6913,14.6913,14.6913,14.6913,14.6913,14.6913,14.6913,14.6913,14.6913,14.6913,14.6221,14.5413,14.4412,14.4412,14.3489,14.1912,14.1912,14.1912,14.1912,14.1912,14.1912,14.1912,14.1912,14.1912,14.1912,14.1912,14.1797,14.1681,14.1681,14.1681,14.1604,14.1681,14.2181,14.2912,14.2912,14.3412,14.3912,14.3181,14.2912,14.2797,14.2104,14.1912,14.1912,14.1797,14.1181,14.0604,14.0489,13.9912,13.9219,13.8911,13.8219,13.7309,13.568,13.5295,13.5103,13.4103,13.2718,13.1602,13.1218,12.991,12.8602,12.7717,12.6909,12.6101,12.5293,12.4486,12.3909,12.3793,12.3793,12.3793,12.3793,12.3909,12.3909,12.3909,12.3985,12.4101,12.4101,12.4793,12.5216,12.5216,12.6101,12.6498,12.6599,12.651,12.6586,12.6797,12.6817,12.6789,12.6809,12.7004,12.6586,12.6084,12.6292,12.6005,12.5509,12.5508,12.5514,12.5397,12.4617,12.3799,12.3214,14.6798,14.6913,14.6913,14.6913,14.6913,14.6913,14.6913,14.6913,14.6913,14.6913,14.6913,14.6913,14.6913,14.649,14.599,14.549,14.549,14.572,14.6182,14.6221,14.6221,14.6221,14.6221,14.599,14.549,14.522,14.4489,14.3682,14.3682,14.3105,14.1912,14.1912,14.1912,14.1912,14.1912,14.1912,14.1912,14.1912,14.1912,14.1912,14.1912,14.1912,14.1912,14.1912,14.1912,14.1989,14.2412,14.2797,14.3181,14.3682,14.4105,14.422,14.3412,14.3105,14.2912,14.2104,14.1912,14.1912,14.1912,14.1604,14.1296,14.1296,14.0989,14.0604,14.0104,13.9796,13.8988,13.7296,13.6988,13.6488,13.5218,13.4295,13.341,13.191,13.1102,12.9987,12.8217,12.7602,12.6909,12.5601,12.5101,12.4601,12.4101,12.4101,12.4101,12.4101,12.4601,12.4793,12.4793,12.5293,12.5601,12.5601,12.5909,12.6101,12.6101,12.6486,12.669,12.669,12.67,12.678,12.6911,12.6977,12.7009,12.7097,12.7212,12.708,12.6818,12.709,12.7095,12.6893,12.6512,12.6112,12.5708,12.5319,12.489,12.45]}]]